<?xml version="1.0" encoding="UTF-8" standalone="no" ?>
<gpx xmlns="http://www.topografix.com/GPX/1/1" xmlns:xsi="http://www.w3.org/2001/XMLSchema-instance" xsi:schemaLocation="http://www.topografix.com/GPX/1/1 http://www.topografix.com/GPX/1/1/gpx.xsd" version="1.1" creator="VisuGPX - https://www.visugpx.com">
  <metadata>
    <name>CHEZINE CENS</name>
    <desc><![CDATA[Parcours généralement roulant, émaillé de spots ludiques]]></desc>
  </metadata>
  <trk>
    <name><![CDATA[Chezine - Cens - 2013-08-07-01]]></name>
    <trkseg>
      <trkpt lat="47.23138" lon="-1.60633">
        <ele>32.522026</ele>
        <time>2013-08-07T15:55:02Z</time>
      </trkpt>
      <trkpt lat="47.23107" lon="-1.60654">
        <ele>25.049385</ele>
        <time>2013-08-07T15:55:03Z</time>
      </trkpt>
      <trkpt lat="47.23107" lon="-1.60654">
        <ele>25</ele>
        <time>2013-08-07T15:55:03Z</time>
      </trkpt>
      <trkpt lat="47.23098" lon="-1.60657">
        <ele>26</ele>
        <time>2013-08-07T15:55:05Z</time>
      </trkpt>
      <trkpt lat="47.23091" lon="-1.60659">
        <ele>11.5</ele>
        <time>2013-08-07T15:55:54Z</time>
      </trkpt>
      <trkpt lat="47.23092" lon="-1.60902">
        <ele>59.7</ele>
        <time>2013-08-07T16:23:57Z</time>
      </trkpt>
      <trkpt lat="47.23075" lon="-1.60884">
        <ele>42.5</ele>
        <time>2013-08-07T16:23:58Z</time>
      </trkpt>
      <trkpt lat="47.23068" lon="-1.60875">
        <ele>43.6</ele>
        <time>2013-08-07T16:23:59Z</time>
      </trkpt>
      <trkpt lat="47.23076" lon="-1.60887">
        <ele>47.5</ele>
        <time>2013-08-07T16:24:06Z</time>
      </trkpt>
      <trkpt lat="47.23081" lon="-1.60898">
        <ele>42.2</ele>
        <time>2013-08-07T16:24:10Z</time>
      </trkpt>
      <trkpt lat="47.23084" lon="-1.60912">
        <ele>40.9</ele>
        <time>2013-08-07T16:24:14Z</time>
      </trkpt>
      <trkpt lat="47.23089" lon="-1.60926">
        <ele>39.7</ele>
        <time>2013-08-07T16:24:19Z</time>
      </trkpt>
      <trkpt lat="47.23095" lon="-1.6094">
        <ele>38.9</ele>
        <time>2013-08-07T16:24:24Z</time>
      </trkpt>
      <trkpt lat="47.23099" lon="-1.60953">
        <ele>38.6</ele>
        <time>2013-08-07T16:24:29Z</time>
      </trkpt>
      <trkpt lat="47.23103" lon="-1.60966">
        <ele>38.4</ele>
        <time>2013-08-07T16:24:33Z</time>
      </trkpt>
      <trkpt lat="47.23109" lon="-1.60978">
        <ele>38.2</ele>
        <time>2013-08-07T16:24:37Z</time>
      </trkpt>
      <trkpt lat="47.23112" lon="-1.60992">
        <ele>37.9</ele>
        <time>2013-08-07T16:24:41Z</time>
      </trkpt>
      <trkpt lat="47.2311" lon="-1.61006">
        <ele>37.7</ele>
        <time>2013-08-07T16:24:45Z</time>
      </trkpt>
      <trkpt lat="47.23113" lon="-1.61021">
        <ele>37.5</ele>
        <time>2013-08-07T16:24:48Z</time>
      </trkpt>
      <trkpt lat="47.23118" lon="-1.61033">
        <ele>36.4</ele>
        <time>2013-08-07T16:24:50Z</time>
      </trkpt>
      <trkpt lat="47.23122" lon="-1.61045">
        <ele>36.5</ele>
        <time>2013-08-07T16:24:52Z</time>
      </trkpt>
      <trkpt lat="47.23121" lon="-1.61058">
        <ele>36.6</ele>
        <time>2013-08-07T16:24:55Z</time>
      </trkpt>
      <trkpt lat="47.2311" lon="-1.6107">
        <ele>36.1</ele>
        <time>2013-08-07T16:24:58Z</time>
      </trkpt>
      <trkpt lat="47.2311" lon="-1.6107">
        <ele>36.1</ele>
        <time>2013-08-07T16:24:58Z</time>
      </trkpt>
      <trkpt lat="47.23103" lon="-1.61085">
        <ele>35.7</ele>
        <time>2013-08-07T16:25:01Z</time>
      </trkpt>
      <trkpt lat="47.23103" lon="-1.61099">
        <ele>35.9</ele>
        <time>2013-08-07T16:25:03Z</time>
      </trkpt>
      <trkpt lat="47.23106" lon="-1.61113">
        <ele>36.8</ele>
        <time>2013-08-07T16:25:05Z</time>
      </trkpt>
      <trkpt lat="47.2311" lon="-1.61127">
        <ele>37.1</ele>
        <time>2013-08-07T16:25:07Z</time>
      </trkpt>
      <trkpt lat="47.23112" lon="-1.6114">
        <ele>37.6</ele>
        <time>2013-08-07T16:25:09Z</time>
      </trkpt>
      <trkpt lat="47.23106" lon="-1.61157">
        <ele>38.1</ele>
        <time>2013-08-07T16:25:12Z</time>
      </trkpt>
      <trkpt lat="47.23103" lon="-1.61176">
        <ele>39.1</ele>
        <time>2013-08-07T16:25:15Z</time>
      </trkpt>
      <trkpt lat="47.23103" lon="-1.61193">
        <ele>39.1</ele>
        <time>2013-08-07T16:25:19Z</time>
      </trkpt>
      <trkpt lat="47.23106" lon="-1.61207">
        <ele>39.3</ele>
        <time>2013-08-07T16:25:22Z</time>
      </trkpt>
      <trkpt lat="47.23112" lon="-1.61218">
        <ele>39.4</ele>
        <time>2013-08-07T16:25:25Z</time>
      </trkpt>
      <trkpt lat="47.23116" lon="-1.61231">
        <ele>39.5</ele>
        <time>2013-08-07T16:25:27Z</time>
      </trkpt>
      <trkpt lat="47.23122" lon="-1.61245">
        <ele>38.5</ele>
        <time>2013-08-07T16:25:29Z</time>
      </trkpt>
      <trkpt lat="47.2313" lon="-1.61255">
        <ele>38.3</ele>
        <time>2013-08-07T16:25:31Z</time>
      </trkpt>
      <trkpt lat="47.23139" lon="-1.61259">
        <ele>37.9</ele>
        <time>2013-08-07T16:25:33Z</time>
      </trkpt>
      <trkpt lat="47.23148" lon="-1.61262">
        <ele>37.3</ele>
        <time>2013-08-07T16:25:35Z</time>
      </trkpt>
      <trkpt lat="47.23157" lon="-1.61265">
        <ele>37.2</ele>
        <time>2013-08-07T16:25:37Z</time>
      </trkpt>
      <trkpt lat="47.23167" lon="-1.61269">
        <ele>37.1</ele>
        <time>2013-08-07T16:25:40Z</time>
      </trkpt>
      <trkpt lat="47.23176" lon="-1.6127">
        <ele>36.5</ele>
        <time>2013-08-07T16:25:45Z</time>
      </trkpt>
      <trkpt lat="47.23185" lon="-1.6127">
        <ele>36.3</ele>
        <time>2013-08-07T16:25:49Z</time>
      </trkpt>
      <trkpt lat="47.23195" lon="-1.61276">
        <ele>36</ele>
        <time>2013-08-07T16:25:52Z</time>
      </trkpt>
      <trkpt lat="47.23205" lon="-1.61281">
        <ele>35.3</ele>
        <time>2013-08-07T16:25:55Z</time>
      </trkpt>
      <trkpt lat="47.23214" lon="-1.61276">
        <ele>34.5</ele>
        <time>2013-08-07T16:25:59Z</time>
      </trkpt>
      <trkpt lat="47.23222" lon="-1.61267">
        <ele>33.9</ele>
        <time>2013-08-07T16:26:02Z</time>
      </trkpt>
      <trkpt lat="47.23229" lon="-1.61253">
        <ele>33.3</ele>
        <time>2013-08-07T16:26:05Z</time>
      </trkpt>
      <trkpt lat="47.23238" lon="-1.61252">
        <ele>32.8</ele>
        <time>2013-08-07T16:26:12Z</time>
      </trkpt>
      <trkpt lat="47.23248" lon="-1.61251">
        <ele>32.4</ele>
        <time>2013-08-07T16:26:17Z</time>
      </trkpt>
      <trkpt lat="47.23259" lon="-1.6125">
        <ele>32.1</ele>
        <time>2013-08-07T16:26:21Z</time>
      </trkpt>
      <trkpt lat="47.2327" lon="-1.61251">
        <ele>31.9</ele>
        <time>2013-08-07T16:26:26Z</time>
      </trkpt>
      <trkpt lat="47.23281" lon="-1.6125">
        <ele>31</ele>
        <time>2013-08-07T16:26:30Z</time>
      </trkpt>
      <trkpt lat="47.23292" lon="-1.6125">
        <ele>29.9</ele>
        <time>2013-08-07T16:26:34Z</time>
      </trkpt>
      <trkpt lat="47.23302" lon="-1.61246">
        <ele>27.7</ele>
        <time>2013-08-07T16:26:41Z</time>
      </trkpt>
      <trkpt lat="47.23312" lon="-1.61241">
        <ele>26.7</ele>
        <time>2013-08-07T16:26:46Z</time>
      </trkpt>
      <trkpt lat="47.23323" lon="-1.6124">
        <ele>25</ele>
        <time>2013-08-07T16:26:53Z</time>
      </trkpt>
      <trkpt lat="47.23333" lon="-1.61239">
        <ele>24.9</ele>
        <time>2013-08-07T16:26:57Z</time>
      </trkpt>
      <trkpt lat="47.23342" lon="-1.61236">
        <ele>25.3</ele>
        <time>2013-08-07T16:27:01Z</time>
      </trkpt>
      <trkpt lat="47.23353" lon="-1.61228">
        <ele>25.4</ele>
        <time>2013-08-07T16:27:07Z</time>
      </trkpt>
      <trkpt lat="47.23366" lon="-1.61221">
        <ele>25.5</ele>
        <time>2013-08-07T16:27:09Z</time>
      </trkpt>
      <trkpt lat="47.23377" lon="-1.61213">
        <ele>25.4</ele>
        <time>2013-08-07T16:27:12Z</time>
      </trkpt>
      <trkpt lat="47.23385" lon="-1.61207">
        <ele>25.3</ele>
        <time>2013-08-07T16:27:15Z</time>
      </trkpt>
      <trkpt lat="47.23396" lon="-1.61203">
        <ele>25</ele>
        <time>2013-08-07T16:27:24Z</time>
      </trkpt>
      <trkpt lat="47.23407" lon="-1.61199">
        <ele>25.5</ele>
        <time>2013-08-07T16:27:27Z</time>
      </trkpt>
      <trkpt lat="47.2342" lon="-1.61197">
        <ele>25.8</ele>
        <time>2013-08-07T16:27:29Z</time>
      </trkpt>
      <trkpt lat="47.23434" lon="-1.61194">
        <ele>25.9</ele>
        <time>2013-08-07T16:27:31Z</time>
      </trkpt>
      <trkpt lat="47.23446" lon="-1.61189">
        <ele>26</ele>
        <time>2013-08-07T16:27:33Z</time>
      </trkpt>
      <trkpt lat="47.23458" lon="-1.61181">
        <ele>26.1</ele>
        <time>2013-08-07T16:27:35Z</time>
      </trkpt>
      <trkpt lat="47.23467" lon="-1.61172">
        <ele>26.1</ele>
        <time>2013-08-07T16:27:37Z</time>
      </trkpt>
      <trkpt lat="47.23474" lon="-1.61164">
        <ele>26.3</ele>
        <time>2013-08-07T16:27:39Z</time>
      </trkpt>
      <trkpt lat="47.23484" lon="-1.61158">
        <ele>26.4</ele>
        <time>2013-08-07T16:27:41Z</time>
      </trkpt>
      <trkpt lat="47.23493" lon="-1.61151">
        <ele>26.5</ele>
        <time>2013-08-07T16:27:43Z</time>
      </trkpt>
      <trkpt lat="47.23504" lon="-1.61142">
        <ele>26.5</ele>
        <time>2013-08-07T16:27:46Z</time>
      </trkpt>
      <trkpt lat="47.23511" lon="-1.61134">
        <ele>26.1</ele>
        <time>2013-08-07T16:27:48Z</time>
      </trkpt>
      <trkpt lat="47.2352" lon="-1.61125">
        <ele>23.8</ele>
        <time>2013-08-07T16:27:49Z</time>
      </trkpt>
      <trkpt lat="47.2353" lon="-1.61108">
        <ele>18.5</ele>
        <time>2013-08-07T16:27:52Z</time>
      </trkpt>
      <trkpt lat="47.23537" lon="-1.61094">
        <ele>14.7</ele>
        <time>2013-08-07T16:27:54Z</time>
      </trkpt>
      <trkpt lat="47.23544" lon="-1.6108">
        <ele>14.4</ele>
        <time>2013-08-07T16:27:56Z</time>
      </trkpt>
      <trkpt lat="47.23552" lon="-1.61066">
        <ele>14.1</ele>
        <time>2013-08-07T16:27:58Z</time>
      </trkpt>
      <trkpt lat="47.23559" lon="-1.61054">
        <ele>14</ele>
        <time>2013-08-07T16:28:00Z</time>
      </trkpt>
      <trkpt lat="47.23568" lon="-1.61045">
        <ele>13.8</ele>
        <time>2013-08-07T16:28:02Z</time>
      </trkpt>
      <trkpt lat="47.23577" lon="-1.61039">
        <ele>13.1</ele>
        <time>2013-08-07T16:28:04Z</time>
      </trkpt>
      <trkpt lat="47.23588" lon="-1.61033">
        <ele>13</ele>
        <time>2013-08-07T16:28:06Z</time>
      </trkpt>
      <trkpt lat="47.23591" lon="-1.61018">
        <ele>12.8</ele>
        <time>2013-08-07T16:28:09Z</time>
      </trkpt>
      <trkpt lat="47.236" lon="-1.61023">
        <ele>11.9</ele>
        <time>2013-08-07T16:28:20Z</time>
      </trkpt>
      <trkpt lat="47.23602" lon="-1.61038">
        <ele>11.3</ele>
        <time>2013-08-07T16:28:25Z</time>
      </trkpt>
      <trkpt lat="47.23606" lon="-1.61051">
        <ele>11.1</ele>
        <time>2013-08-07T16:28:29Z</time>
      </trkpt>
      <trkpt lat="47.2361" lon="-1.61065">
        <ele>10.9</ele>
        <time>2013-08-07T16:28:33Z</time>
      </trkpt>
      <trkpt lat="47.23615" lon="-1.6108">
        <ele>10.8</ele>
        <time>2013-08-07T16:28:37Z</time>
      </trkpt>
      <trkpt lat="47.23619" lon="-1.61095">
        <ele>11</ele>
        <time>2013-08-07T16:28:41Z</time>
      </trkpt>
      <trkpt lat="47.23622" lon="-1.6111">
        <ele>11</ele>
        <time>2013-08-07T16:28:45Z</time>
      </trkpt>
      <trkpt lat="47.23625" lon="-1.61125">
        <ele>10.9</ele>
        <time>2013-08-07T16:28:48Z</time>
      </trkpt>
      <trkpt lat="47.2363" lon="-1.61139">
        <ele>10.8</ele>
        <time>2013-08-07T16:28:51Z</time>
      </trkpt>
      <trkpt lat="47.23636" lon="-1.6115">
        <ele>10.5</ele>
        <time>2013-08-07T16:28:54Z</time>
      </trkpt>
      <trkpt lat="47.23643" lon="-1.61165">
        <ele>10</ele>
        <time>2013-08-07T16:28:57Z</time>
      </trkpt>
      <trkpt lat="47.23649" lon="-1.61179">
        <ele>9.7</ele>
        <time>2013-08-07T16:29:00Z</time>
      </trkpt>
      <trkpt lat="47.23657" lon="-1.61196">
        <ele>8.1</ele>
        <time>2013-08-07T16:29:03Z</time>
      </trkpt>
      <trkpt lat="47.23662" lon="-1.6121">
        <ele>8.6</ele>
        <time>2013-08-07T16:29:05Z</time>
      </trkpt>
      <trkpt lat="47.23667" lon="-1.61221">
        <ele>8.9</ele>
        <time>2013-08-07T16:29:07Z</time>
      </trkpt>
      <trkpt lat="47.23671" lon="-1.61233">
        <ele>9.1</ele>
        <time>2013-08-07T16:29:09Z</time>
      </trkpt>
      <trkpt lat="47.23673" lon="-1.61251">
        <ele>9.3</ele>
        <time>2013-08-07T16:29:12Z</time>
      </trkpt>
      <trkpt lat="47.23676" lon="-1.6127">
        <ele>9.4</ele>
        <time>2013-08-07T16:29:15Z</time>
      </trkpt>
      <trkpt lat="47.23679" lon="-1.61288">
        <ele>9.4</ele>
        <time>2013-08-07T16:29:18Z</time>
      </trkpt>
      <trkpt lat="47.23684" lon="-1.613">
        <ele>9.6</ele>
        <time>2013-08-07T16:29:20Z</time>
      </trkpt>
      <trkpt lat="47.23692" lon="-1.61311">
        <ele>9.8</ele>
        <time>2013-08-07T16:29:23Z</time>
      </trkpt>
      <trkpt lat="47.23699" lon="-1.61319">
        <ele>10.1</ele>
        <time>2013-08-07T16:29:26Z</time>
      </trkpt>
      <trkpt lat="47.23708" lon="-1.61326">
        <ele>10.3</ele>
        <time>2013-08-07T16:29:29Z</time>
      </trkpt>
      <trkpt lat="47.23718" lon="-1.61337">
        <ele>10.3</ele>
        <time>2013-08-07T16:29:32Z</time>
      </trkpt>
      <trkpt lat="47.23726" lon="-1.6135">
        <ele>10.4</ele>
        <time>2013-08-07T16:29:35Z</time>
      </trkpt>
      <trkpt lat="47.23732" lon="-1.61366">
        <ele>10.4</ele>
        <time>2013-08-07T16:29:38Z</time>
      </trkpt>
      <trkpt lat="47.23737" lon="-1.6138">
        <ele>10.5</ele>
        <time>2013-08-07T16:29:41Z</time>
      </trkpt>
      <trkpt lat="47.2374" lon="-1.61394">
        <ele>10.7</ele>
        <time>2013-08-07T16:29:44Z</time>
      </trkpt>
      <trkpt lat="47.23742" lon="-1.61411">
        <ele>11.1</ele>
        <time>2013-08-07T16:29:48Z</time>
      </trkpt>
      <trkpt lat="47.23743" lon="-1.61427">
        <ele>11.3</ele>
        <time>2013-08-07T16:29:51Z</time>
      </trkpt>
      <trkpt lat="47.2374" lon="-1.61441">
        <ele>11.6</ele>
        <time>2013-08-07T16:29:54Z</time>
      </trkpt>
      <trkpt lat="47.23735" lon="-1.61452">
        <ele>11.8</ele>
        <time>2013-08-07T16:29:57Z</time>
      </trkpt>
      <trkpt lat="47.23733" lon="-1.61469">
        <ele>11.9</ele>
        <time>2013-08-07T16:30:01Z</time>
      </trkpt>
      <trkpt lat="47.23733" lon="-1.61484">
        <ele>11.9</ele>
        <time>2013-08-07T16:30:05Z</time>
      </trkpt>
      <trkpt lat="47.23735" lon="-1.61501">
        <ele>12</ele>
        <time>2013-08-07T16:30:09Z</time>
      </trkpt>
      <trkpt lat="47.23737" lon="-1.61514">
        <ele>12.1</ele>
        <time>2013-08-07T16:30:12Z</time>
      </trkpt>
      <trkpt lat="47.23743" lon="-1.61527">
        <ele>11.9</ele>
        <time>2013-08-07T16:30:16Z</time>
      </trkpt>
      <trkpt lat="47.23753" lon="-1.61534">
        <ele>12</ele>
        <time>2013-08-07T16:30:20Z</time>
      </trkpt>
      <trkpt lat="47.23762" lon="-1.6154">
        <ele>11.8</ele>
        <time>2013-08-07T16:30:24Z</time>
      </trkpt>
      <trkpt lat="47.23768" lon="-1.6155">
        <ele>11.5</ele>
        <time>2013-08-07T16:30:28Z</time>
      </trkpt>
      <trkpt lat="47.23775" lon="-1.61563">
        <ele>12.1</ele>
        <time>2013-08-07T16:30:32Z</time>
      </trkpt>
      <trkpt lat="47.23778" lon="-1.61575">
        <ele>13.1</ele>
        <time>2013-08-07T16:30:37Z</time>
      </trkpt>
      <trkpt lat="47.23777" lon="-1.61589">
        <ele>13.7</ele>
        <time>2013-08-07T16:30:44Z</time>
      </trkpt>
      <trkpt lat="47.23775" lon="-1.61603">
        <ele>13.8</ele>
        <time>2013-08-07T16:30:49Z</time>
      </trkpt>
      <trkpt lat="47.23772" lon="-1.61616">
        <ele>14.2</ele>
        <time>2013-08-07T16:30:54Z</time>
      </trkpt>
      <trkpt lat="47.23771" lon="-1.6163">
        <ele>14</ele>
        <time>2013-08-07T16:31:00Z</time>
      </trkpt>
      <trkpt lat="47.23772" lon="-1.61644">
        <ele>13.7</ele>
        <time>2013-08-07T16:31:08Z</time>
      </trkpt>
      <trkpt lat="47.23771" lon="-1.61659">
        <ele>13.3</ele>
        <time>2013-08-07T16:31:14Z</time>
      </trkpt>
      <trkpt lat="47.23775" lon="-1.61671">
        <ele>13.7</ele>
        <time>2013-08-07T16:31:21Z</time>
      </trkpt>
      <trkpt lat="47.23776" lon="-1.61687">
        <ele>15</ele>
        <time>2013-08-07T16:31:27Z</time>
      </trkpt>
      <trkpt lat="47.23777" lon="-1.61701">
        <ele>16.5</ele>
        <time>2013-08-07T16:31:32Z</time>
      </trkpt>
      <trkpt lat="47.23779" lon="-1.61715">
        <ele>18.6</ele>
        <time>2013-08-07T16:31:39Z</time>
      </trkpt>
      <trkpt lat="47.23778" lon="-1.61729">
        <ele>20.5</ele>
        <time>2013-08-07T16:31:54Z</time>
      </trkpt>
      <trkpt lat="47.2378" lon="-1.61745">
        <ele>21.2</ele>
        <time>2013-08-07T16:31:58Z</time>
      </trkpt>
      <trkpt lat="47.23783" lon="-1.61758">
        <ele>21.4</ele>
        <time>2013-08-07T16:32:01Z</time>
      </trkpt>
      <trkpt lat="47.23786" lon="-1.61773">
        <ele>21.5</ele>
        <time>2013-08-07T16:32:05Z</time>
      </trkpt>
      <trkpt lat="47.23791" lon="-1.61785">
        <ele>22</ele>
        <time>2013-08-07T16:32:10Z</time>
      </trkpt>
      <trkpt lat="47.23797" lon="-1.61796">
        <ele>22.2</ele>
        <time>2013-08-07T16:32:15Z</time>
      </trkpt>
      <trkpt lat="47.23803" lon="-1.61808">
        <ele>22.1</ele>
        <time>2013-08-07T16:32:19Z</time>
      </trkpt>
      <trkpt lat="47.23811" lon="-1.61822">
        <ele>21.9</ele>
        <time>2013-08-07T16:32:23Z</time>
      </trkpt>
      <trkpt lat="47.23818" lon="-1.61831">
        <ele>21.7</ele>
        <time>2013-08-07T16:32:28Z</time>
      </trkpt>
      <trkpt lat="47.23824" lon="-1.61842">
        <ele>21</ele>
        <time>2013-08-07T16:32:32Z</time>
      </trkpt>
      <trkpt lat="47.23829" lon="-1.61854">
        <ele>20.2</ele>
        <time>2013-08-07T16:32:36Z</time>
      </trkpt>
      <trkpt lat="47.23833" lon="-1.61866">
        <ele>19.7</ele>
        <time>2013-08-07T16:32:39Z</time>
      </trkpt>
      <trkpt lat="47.23832" lon="-1.6188">
        <ele>19.1</ele>
        <time>2013-08-07T16:32:42Z</time>
      </trkpt>
      <trkpt lat="47.23834" lon="-1.61894">
        <ele>18.3</ele>
        <time>2013-08-07T16:32:45Z</time>
      </trkpt>
      <trkpt lat="47.2384" lon="-1.61904">
        <ele>17.7</ele>
        <time>2013-08-07T16:32:49Z</time>
      </trkpt>
      <trkpt lat="47.23848" lon="-1.61914">
        <ele>17.2</ele>
        <time>2013-08-07T16:32:54Z</time>
      </trkpt>
      <trkpt lat="47.23853" lon="-1.61925">
        <ele>16.8</ele>
        <time>2013-08-07T16:32:58Z</time>
      </trkpt>
      <trkpt lat="47.23861" lon="-1.61936">
        <ele>16</ele>
        <time>2013-08-07T16:33:02Z</time>
      </trkpt>
      <trkpt lat="47.23869" lon="-1.61946">
        <ele>15.3</ele>
        <time>2013-08-07T16:33:06Z</time>
      </trkpt>
      <trkpt lat="47.23879" lon="-1.61952">
        <ele>14.6</ele>
        <time>2013-08-07T16:33:10Z</time>
      </trkpt>
      <trkpt lat="47.23889" lon="-1.61955">
        <ele>14.5</ele>
        <time>2013-08-07T16:33:16Z</time>
      </trkpt>
      <trkpt lat="47.239" lon="-1.61955">
        <ele>14.4</ele>
        <time>2013-08-07T16:33:22Z</time>
      </trkpt>
      <trkpt lat="47.23909" lon="-1.61957">
        <ele>13.5</ele>
        <time>2013-08-07T16:33:28Z</time>
      </trkpt>
      <trkpt lat="47.23916" lon="-1.61968">
        <ele>11.4</ele>
        <time>2013-08-07T16:33:34Z</time>
      </trkpt>
      <trkpt lat="47.2393" lon="-1.61982">
        <ele>10.4</ele>
        <time>2013-08-07T16:33:39Z</time>
      </trkpt>
      <trkpt lat="47.23946" lon="-1.61994">
        <ele>10.7</ele>
        <time>2013-08-07T16:33:41Z</time>
      </trkpt>
      <trkpt lat="47.23958" lon="-1.62002">
        <ele>11</ele>
        <time>2013-08-07T16:33:43Z</time>
      </trkpt>
      <trkpt lat="47.23967" lon="-1.62007">
        <ele>11.5</ele>
        <time>2013-08-07T16:33:45Z</time>
      </trkpt>
      <trkpt lat="47.23979" lon="-1.62014">
        <ele>12.2</ele>
        <time>2013-08-07T16:33:48Z</time>
      </trkpt>
      <trkpt lat="47.23987" lon="-1.6202">
        <ele>12.7</ele>
        <time>2013-08-07T16:33:50Z</time>
      </trkpt>
      <trkpt lat="47.23997" lon="-1.62029">
        <ele>13.3</ele>
        <time>2013-08-07T16:33:53Z</time>
      </trkpt>
      <trkpt lat="47.24003" lon="-1.62039">
        <ele>13.7</ele>
        <time>2013-08-07T16:33:56Z</time>
      </trkpt>
      <trkpt lat="47.24007" lon="-1.62056">
        <ele>14.5</ele>
        <time>2013-08-07T16:34:00Z</time>
      </trkpt>
      <trkpt lat="47.24009" lon="-1.6207">
        <ele>15.2</ele>
        <time>2013-08-07T16:34:03Z</time>
      </trkpt>
      <trkpt lat="47.24011" lon="-1.62085">
        <ele>15.7</ele>
        <time>2013-08-07T16:34:07Z</time>
      </trkpt>
      <trkpt lat="47.24012" lon="-1.62102">
        <ele>15.7</ele>
        <time>2013-08-07T16:34:11Z</time>
      </trkpt>
      <trkpt lat="47.24011" lon="-1.62116">
        <ele>15.5</ele>
        <time>2013-08-07T16:34:15Z</time>
      </trkpt>
      <trkpt lat="47.24011" lon="-1.62132">
        <ele>15.7</ele>
        <time>2013-08-07T16:34:19Z</time>
      </trkpt>
      <trkpt lat="47.24013" lon="-1.62148">
        <ele>15.9</ele>
        <time>2013-08-07T16:34:23Z</time>
      </trkpt>
      <trkpt lat="47.24013" lon="-1.62163">
        <ele>15.9</ele>
        <time>2013-08-07T16:34:27Z</time>
      </trkpt>
      <trkpt lat="47.24015" lon="-1.62179">
        <ele>16.1</ele>
        <time>2013-08-07T16:34:32Z</time>
      </trkpt>
      <trkpt lat="47.24015" lon="-1.62194">
        <ele>16.3</ele>
        <time>2013-08-07T16:34:36Z</time>
      </trkpt>
      <trkpt lat="47.24017" lon="-1.62208">
        <ele>16.3</ele>
        <time>2013-08-07T16:34:40Z</time>
      </trkpt>
      <trkpt lat="47.24018" lon="-1.62222">
        <ele>16.6</ele>
        <time>2013-08-07T16:34:44Z</time>
      </trkpt>
      <trkpt lat="47.24018" lon="-1.62239">
        <ele>16.7</ele>
        <time>2013-08-07T16:34:49Z</time>
      </trkpt>
      <trkpt lat="47.24019" lon="-1.62256">
        <ele>17</ele>
        <time>2013-08-07T16:34:53Z</time>
      </trkpt>
      <trkpt lat="47.24021" lon="-1.62271">
        <ele>17.1</ele>
        <time>2013-08-07T16:34:56Z</time>
      </trkpt>
      <trkpt lat="47.24022" lon="-1.62287">
        <ele>17</ele>
        <time>2013-08-07T16:34:59Z</time>
      </trkpt>
      <trkpt lat="47.24021" lon="-1.62301">
        <ele>16.8</ele>
        <time>2013-08-07T16:35:02Z</time>
      </trkpt>
      <trkpt lat="47.2402" lon="-1.62315">
        <ele>16.8</ele>
        <time>2013-08-07T16:35:05Z</time>
      </trkpt>
      <trkpt lat="47.24018" lon="-1.62329">
        <ele>16.8</ele>
        <time>2013-08-07T16:35:08Z</time>
      </trkpt>
      <trkpt lat="47.24017" lon="-1.62343">
        <ele>15.8</ele>
        <time>2013-08-07T16:35:11Z</time>
      </trkpt>
      <trkpt lat="47.24018" lon="-1.62359">
        <ele>15.5</ele>
        <time>2013-08-07T16:35:14Z</time>
      </trkpt>
      <trkpt lat="47.24015" lon="-1.62376">
        <ele>15.3</ele>
        <time>2013-08-07T16:35:17Z</time>
      </trkpt>
      <trkpt lat="47.24018" lon="-1.62393">
        <ele>15</ele>
        <time>2013-08-07T16:35:20Z</time>
      </trkpt>
      <trkpt lat="47.24016" lon="-1.6241">
        <ele>14.7</ele>
        <time>2013-08-07T16:35:23Z</time>
      </trkpt>
      <trkpt lat="47.24012" lon="-1.62429">
        <ele>14.8</ele>
        <time>2013-08-07T16:35:26Z</time>
      </trkpt>
      <trkpt lat="47.24014" lon="-1.62444">
        <ele>14.8</ele>
        <time>2013-08-07T16:35:29Z</time>
      </trkpt>
      <trkpt lat="47.24023" lon="-1.62456">
        <ele>13.9</ele>
        <time>2013-08-07T16:35:32Z</time>
      </trkpt>
      <trkpt lat="47.24032" lon="-1.6247">
        <ele>13.7</ele>
        <time>2013-08-07T16:35:35Z</time>
      </trkpt>
      <trkpt lat="47.24039" lon="-1.62482">
        <ele>13.7</ele>
        <time>2013-08-07T16:35:38Z</time>
      </trkpt>
      <trkpt lat="47.24047" lon="-1.62495">
        <ele>13.7</ele>
        <time>2013-08-07T16:35:41Z</time>
      </trkpt>
      <trkpt lat="47.24055" lon="-1.62508">
        <ele>13.8</ele>
        <time>2013-08-07T16:35:44Z</time>
      </trkpt>
      <trkpt lat="47.24062" lon="-1.62522">
        <ele>13.9</ele>
        <time>2013-08-07T16:35:47Z</time>
      </trkpt>
      <trkpt lat="47.24072" lon="-1.62534">
        <ele>14.1</ele>
        <time>2013-08-07T16:35:50Z</time>
      </trkpt>
      <trkpt lat="47.24084" lon="-1.62541">
        <ele>14.3</ele>
        <time>2013-08-07T16:35:53Z</time>
      </trkpt>
      <trkpt lat="47.24095" lon="-1.62546">
        <ele>14.5</ele>
        <time>2013-08-07T16:35:56Z</time>
      </trkpt>
      <trkpt lat="47.24104" lon="-1.62552">
        <ele>14.8</ele>
        <time>2013-08-07T16:35:59Z</time>
      </trkpt>
      <trkpt lat="47.24105" lon="-1.62567">
        <ele>15</ele>
        <time>2013-08-07T16:36:01Z</time>
      </trkpt>
      <trkpt lat="47.24099" lon="-1.62584">
        <ele>15.1</ele>
        <time>2013-08-07T16:36:04Z</time>
      </trkpt>
      <trkpt lat="47.24095" lon="-1.62596">
        <ele>15.7</ele>
        <time>2013-08-07T16:36:06Z</time>
      </trkpt>
      <trkpt lat="47.24089" lon="-1.62609">
        <ele>15.7</ele>
        <time>2013-08-07T16:36:08Z</time>
      </trkpt>
      <trkpt lat="47.24082" lon="-1.62623">
        <ele>14.6</ele>
        <time>2013-08-07T16:36:10Z</time>
      </trkpt>
      <trkpt lat="47.24076" lon="-1.62636">
        <ele>13.9</ele>
        <time>2013-08-07T16:36:12Z</time>
      </trkpt>
      <trkpt lat="47.24071" lon="-1.62647">
        <ele>14</ele>
        <time>2013-08-07T16:36:14Z</time>
      </trkpt>
      <trkpt lat="47.24064" lon="-1.62659">
        <ele>14.1</ele>
        <time>2013-08-07T16:36:17Z</time>
      </trkpt>
      <trkpt lat="47.2406" lon="-1.62673">
        <ele>14.4</ele>
        <time>2013-08-07T16:36:21Z</time>
      </trkpt>
      <trkpt lat="47.24062" lon="-1.62687">
        <ele>14.6</ele>
        <time>2013-08-07T16:36:27Z</time>
      </trkpt>
      <trkpt lat="47.24067" lon="-1.62701">
        <ele>13.8</ele>
        <time>2013-08-07T16:36:36Z</time>
      </trkpt>
      <trkpt lat="47.24075" lon="-1.62706">
        <ele>13</ele>
        <time>2013-08-07T16:36:42Z</time>
      </trkpt>
      <trkpt lat="47.24083" lon="-1.62716">
        <ele>12.9</ele>
        <time>2013-08-07T16:36:50Z</time>
      </trkpt>
      <trkpt lat="47.24092" lon="-1.62724">
        <ele>13.3</ele>
        <time>2013-08-07T16:36:57Z</time>
      </trkpt>
      <trkpt lat="47.241" lon="-1.62733">
        <ele>13.5</ele>
        <time>2013-08-07T16:37:03Z</time>
      </trkpt>
      <trkpt lat="47.24106" lon="-1.62743">
        <ele>13.7</ele>
        <time>2013-08-07T16:37:08Z</time>
      </trkpt>
      <trkpt lat="47.24111" lon="-1.62756">
        <ele>14.1</ele>
        <time>2013-08-07T16:37:13Z</time>
      </trkpt>
      <trkpt lat="47.24116" lon="-1.62768">
        <ele>14.6</ele>
        <time>2013-08-07T16:37:17Z</time>
      </trkpt>
      <trkpt lat="47.24122" lon="-1.6278">
        <ele>14.9</ele>
        <time>2013-08-07T16:37:21Z</time>
      </trkpt>
      <trkpt lat="47.24128" lon="-1.62794">
        <ele>15.2</ele>
        <time>2013-08-07T16:37:26Z</time>
      </trkpt>
      <trkpt lat="47.24133" lon="-1.62808">
        <ele>15.5</ele>
        <time>2013-08-07T16:37:30Z</time>
      </trkpt>
      <trkpt lat="47.24139" lon="-1.62823">
        <ele>15.4</ele>
        <time>2013-08-07T16:37:34Z</time>
      </trkpt>
      <trkpt lat="47.24146" lon="-1.62836">
        <ele>15.3</ele>
        <time>2013-08-07T16:37:38Z</time>
      </trkpt>
      <trkpt lat="47.24153" lon="-1.62848">
        <ele>15.2</ele>
        <time>2013-08-07T16:37:42Z</time>
      </trkpt>
      <trkpt lat="47.2416" lon="-1.6286">
        <ele>15.2</ele>
        <time>2013-08-07T16:37:46Z</time>
      </trkpt>
      <trkpt lat="47.24166" lon="-1.62874">
        <ele>15.4</ele>
        <time>2013-08-07T16:37:50Z</time>
      </trkpt>
      <trkpt lat="47.2417" lon="-1.62888">
        <ele>15.7</ele>
        <time>2013-08-07T16:37:53Z</time>
      </trkpt>
      <trkpt lat="47.24175" lon="-1.62901">
        <ele>15.9</ele>
        <time>2013-08-07T16:37:56Z</time>
      </trkpt>
      <trkpt lat="47.24181" lon="-1.62917">
        <ele>16.3</ele>
        <time>2013-08-07T16:37:59Z</time>
      </trkpt>
      <trkpt lat="47.24188" lon="-1.62934">
        <ele>17.1</ele>
        <time>2013-08-07T16:38:03Z</time>
      </trkpt>
      <trkpt lat="47.24194" lon="-1.62949">
        <ele>17.8</ele>
        <time>2013-08-07T16:38:07Z</time>
      </trkpt>
      <trkpt lat="47.24196" lon="-1.62962">
        <ele>18.1</ele>
        <time>2013-08-07T16:38:10Z</time>
      </trkpt>
      <trkpt lat="47.24198" lon="-1.62976">
        <ele>18.6</ele>
        <time>2013-08-07T16:38:13Z</time>
      </trkpt>
      <trkpt lat="47.24199" lon="-1.62991">
        <ele>19.3</ele>
        <time>2013-08-07T16:38:16Z</time>
      </trkpt>
      <trkpt lat="47.24202" lon="-1.63004">
        <ele>20.2</ele>
        <time>2013-08-07T16:38:19Z</time>
      </trkpt>
      <trkpt lat="47.24204" lon="-1.63019">
        <ele>20.7</ele>
        <time>2013-08-07T16:38:22Z</time>
      </trkpt>
      <trkpt lat="47.24205" lon="-1.63035">
        <ele>21.2</ele>
        <time>2013-08-07T16:38:25Z</time>
      </trkpt>
      <trkpt lat="47.24208" lon="-1.63049">
        <ele>21.3</ele>
        <time>2013-08-07T16:38:28Z</time>
      </trkpt>
      <trkpt lat="47.2421" lon="-1.63067">
        <ele>21.9</ele>
        <time>2013-08-07T16:38:31Z</time>
      </trkpt>
      <trkpt lat="47.24213" lon="-1.63086">
        <ele>22.3</ele>
        <time>2013-08-07T16:38:34Z</time>
      </trkpt>
      <trkpt lat="47.24216" lon="-1.63099">
        <ele>22.3</ele>
        <time>2013-08-07T16:38:36Z</time>
      </trkpt>
      <trkpt lat="47.2422" lon="-1.63112">
        <ele>22.3</ele>
        <time>2013-08-07T16:38:38Z</time>
      </trkpt>
      <trkpt lat="47.24223" lon="-1.63124">
        <ele>22.1</ele>
        <time>2013-08-07T16:38:40Z</time>
      </trkpt>
      <trkpt lat="47.24228" lon="-1.63141">
        <ele>22.1</ele>
        <time>2013-08-07T16:38:43Z</time>
      </trkpt>
      <trkpt lat="47.24234" lon="-1.63156">
        <ele>22.3</ele>
        <time>2013-08-07T16:38:46Z</time>
      </trkpt>
      <trkpt lat="47.24242" lon="-1.6317">
        <ele>22</ele>
        <time>2013-08-07T16:38:49Z</time>
      </trkpt>
      <trkpt lat="47.24251" lon="-1.6318">
        <ele>21.8</ele>
        <time>2013-08-07T16:38:52Z</time>
      </trkpt>
      <trkpt lat="47.24259" lon="-1.63193">
        <ele>21.7</ele>
        <time>2013-08-07T16:38:55Z</time>
      </trkpt>
      <trkpt lat="47.2427" lon="-1.63202">
        <ele>21.5</ele>
        <time>2013-08-07T16:38:58Z</time>
      </trkpt>
      <trkpt lat="47.24279" lon="-1.6321">
        <ele>21.6</ele>
        <time>2013-08-07T16:39:01Z</time>
      </trkpt>
      <trkpt lat="47.24287" lon="-1.63218">
        <ele>21.5</ele>
        <time>2013-08-07T16:39:04Z</time>
      </trkpt>
      <trkpt lat="47.24295" lon="-1.63227">
        <ele>21.5</ele>
        <time>2013-08-07T16:39:07Z</time>
      </trkpt>
      <trkpt lat="47.24301" lon="-1.63238">
        <ele>21.6</ele>
        <time>2013-08-07T16:39:10Z</time>
      </trkpt>
      <trkpt lat="47.24309" lon="-1.63247">
        <ele>21.9</ele>
        <time>2013-08-07T16:39:13Z</time>
      </trkpt>
      <trkpt lat="47.24317" lon="-1.63258">
        <ele>22.3</ele>
        <time>2013-08-07T16:39:16Z</time>
      </trkpt>
      <trkpt lat="47.24325" lon="-1.63269">
        <ele>22.5</ele>
        <time>2013-08-07T16:39:19Z</time>
      </trkpt>
      <trkpt lat="47.24332" lon="-1.6328">
        <ele>22.9</ele>
        <time>2013-08-07T16:39:23Z</time>
      </trkpt>
      <trkpt lat="47.24343" lon="-1.63278">
        <ele>23</ele>
        <time>2013-08-07T16:39:30Z</time>
      </trkpt>
      <trkpt lat="47.24353" lon="-1.63281">
        <ele>23.4</ele>
        <time>2013-08-07T16:39:35Z</time>
      </trkpt>
      <trkpt lat="47.24362" lon="-1.6328">
        <ele>24.1</ele>
        <time>2013-08-07T16:39:41Z</time>
      </trkpt>
      <trkpt lat="47.24372" lon="-1.63281">
        <ele>26.2</ele>
        <time>2013-08-07T16:39:48Z</time>
      </trkpt>
      <trkpt lat="47.24381" lon="-1.63281">
        <ele>28.5</ele>
        <time>2013-08-07T16:39:55Z</time>
      </trkpt>
      <trkpt lat="47.2439" lon="-1.63278">
        <ele>30.9</ele>
        <time>2013-08-07T16:40:03Z</time>
      </trkpt>
      <trkpt lat="47.244" lon="-1.63275">
        <ele>33.2</ele>
        <time>2013-08-07T16:40:10Z</time>
      </trkpt>
      <trkpt lat="47.24409" lon="-1.6327">
        <ele>35.6</ele>
        <time>2013-08-07T16:40:21Z</time>
      </trkpt>
      <trkpt lat="47.24418" lon="-1.63268">
        <ele>36.5</ele>
        <time>2013-08-07T16:40:29Z</time>
      </trkpt>
      <trkpt lat="47.24427" lon="-1.63266">
        <ele>37.4</ele>
        <time>2013-08-07T16:40:37Z</time>
      </trkpt>
      <trkpt lat="47.24437" lon="-1.63264">
        <ele>38</ele>
        <time>2013-08-07T16:40:45Z</time>
      </trkpt>
      <trkpt lat="47.24448" lon="-1.63259">
        <ele>38.3</ele>
        <time>2013-08-07T16:40:49Z</time>
      </trkpt>
      <trkpt lat="47.24458" lon="-1.63255">
        <ele>38.5</ele>
        <time>2013-08-07T16:40:51Z</time>
      </trkpt>
      <trkpt lat="47.2447" lon="-1.63252">
        <ele>38.9</ele>
        <time>2013-08-07T16:40:54Z</time>
      </trkpt>
      <trkpt lat="47.2448" lon="-1.63247">
        <ele>39.3</ele>
        <time>2013-08-07T16:40:58Z</time>
      </trkpt>
      <trkpt lat="47.24489" lon="-1.6324">
        <ele>39.5</ele>
        <time>2013-08-07T16:41:03Z</time>
      </trkpt>
      <trkpt lat="47.24495" lon="-1.6323">
        <ele>40.2</ele>
        <time>2013-08-07T16:41:10Z</time>
      </trkpt>
      <trkpt lat="47.24502" lon="-1.63222">
        <ele>41.7</ele>
        <time>2013-08-07T16:41:19Z</time>
      </trkpt>
      <trkpt lat="47.24511" lon="-1.63218">
        <ele>42.8</ele>
        <time>2013-08-07T16:41:25Z</time>
      </trkpt>
      <trkpt lat="47.2452" lon="-1.63223">
        <ele>43.7</ele>
        <time>2013-08-07T16:41:30Z</time>
      </trkpt>
      <trkpt lat="47.24527" lon="-1.63236">
        <ele>44.5</ele>
        <time>2013-08-07T16:41:35Z</time>
      </trkpt>
      <trkpt lat="47.24535" lon="-1.63245">
        <ele>45.3</ele>
        <time>2013-08-07T16:41:39Z</time>
      </trkpt>
      <trkpt lat="47.24543" lon="-1.6324">
        <ele>46.7</ele>
        <time>2013-08-07T16:41:45Z</time>
      </trkpt>
      <trkpt lat="47.24552" lon="-1.63235">
        <ele>47.7</ele>
        <time>2013-08-07T16:41:50Z</time>
      </trkpt>
      <trkpt lat="47.24561" lon="-1.63231">
        <ele>48.9</ele>
        <time>2013-08-07T16:41:54Z</time>
      </trkpt>
      <trkpt lat="47.24572" lon="-1.63226">
        <ele>49.9</ele>
        <time>2013-08-07T16:41:58Z</time>
      </trkpt>
      <trkpt lat="47.2458" lon="-1.63218">
        <ele>50.9</ele>
        <time>2013-08-07T16:42:02Z</time>
      </trkpt>
      <trkpt lat="47.24589" lon="-1.63211">
        <ele>51.9</ele>
        <time>2013-08-07T16:42:06Z</time>
      </trkpt>
      <trkpt lat="47.24599" lon="-1.63206">
        <ele>52.8</ele>
        <time>2013-08-07T16:42:10Z</time>
      </trkpt>
      <trkpt lat="47.24609" lon="-1.63199">
        <ele>53.5</ele>
        <time>2013-08-07T16:42:14Z</time>
      </trkpt>
      <trkpt lat="47.24619" lon="-1.63191">
        <ele>53.9</ele>
        <time>2013-08-07T16:42:18Z</time>
      </trkpt>
      <trkpt lat="47.24628" lon="-1.63183">
        <ele>54.2</ele>
        <time>2013-08-07T16:42:23Z</time>
      </trkpt>
      <trkpt lat="47.24636" lon="-1.63175">
        <ele>54.6</ele>
        <time>2013-08-07T16:42:27Z</time>
      </trkpt>
      <trkpt lat="47.24645" lon="-1.63168">
        <ele>54.9</ele>
        <time>2013-08-07T16:42:31Z</time>
      </trkpt>
      <trkpt lat="47.24653" lon="-1.6316">
        <ele>54.8</ele>
        <time>2013-08-07T16:42:37Z</time>
      </trkpt>
      <trkpt lat="47.24661" lon="-1.63149">
        <ele>53.7</ele>
        <time>2013-08-07T16:42:43Z</time>
      </trkpt>
      <trkpt lat="47.2467" lon="-1.63141">
        <ele>51.9</ele>
        <time>2013-08-07T16:42:48Z</time>
      </trkpt>
      <trkpt lat="47.24679" lon="-1.63135">
        <ele>50.6</ele>
        <time>2013-08-07T16:42:52Z</time>
      </trkpt>
      <trkpt lat="47.2469" lon="-1.63127">
        <ele>49.4</ele>
        <time>2013-08-07T16:42:56Z</time>
      </trkpt>
      <trkpt lat="47.247" lon="-1.63124">
        <ele>48.3</ele>
        <time>2013-08-07T16:43:00Z</time>
      </trkpt>
      <trkpt lat="47.24711" lon="-1.63118">
        <ele>47.3</ele>
        <time>2013-08-07T16:43:04Z</time>
      </trkpt>
      <trkpt lat="47.24722" lon="-1.6312">
        <ele>47.6</ele>
        <time>2013-08-07T16:43:07Z</time>
      </trkpt>
      <trkpt lat="47.24731" lon="-1.63123">
        <ele>48</ele>
        <time>2013-08-07T16:43:09Z</time>
      </trkpt>
      <trkpt lat="47.24741" lon="-1.63127">
        <ele>48.3</ele>
        <time>2013-08-07T16:43:11Z</time>
      </trkpt>
      <trkpt lat="47.24752" lon="-1.6313">
        <ele>48.9</ele>
        <time>2013-08-07T16:43:13Z</time>
      </trkpt>
      <trkpt lat="47.24762" lon="-1.63137">
        <ele>49.6</ele>
        <time>2013-08-07T16:43:16Z</time>
      </trkpt>
      <trkpt lat="47.24771" lon="-1.63144">
        <ele>50.1</ele>
        <time>2013-08-07T16:43:19Z</time>
      </trkpt>
      <trkpt lat="47.24779" lon="-1.63157">
        <ele>50.8</ele>
        <time>2013-08-07T16:43:23Z</time>
      </trkpt>
      <trkpt lat="47.24784" lon="-1.63169">
        <ele>51.4</ele>
        <time>2013-08-07T16:43:26Z</time>
      </trkpt>
      <trkpt lat="47.24789" lon="-1.63182">
        <ele>52.5</ele>
        <time>2013-08-07T16:43:30Z</time>
      </trkpt>
      <trkpt lat="47.24793" lon="-1.63197">
        <ele>53</ele>
        <time>2013-08-07T16:43:34Z</time>
      </trkpt>
      <trkpt lat="47.24798" lon="-1.63212">
        <ele>53.4</ele>
        <time>2013-08-07T16:43:38Z</time>
      </trkpt>
      <trkpt lat="47.24801" lon="-1.63229">
        <ele>53.7</ele>
        <time>2013-08-07T16:43:41Z</time>
      </trkpt>
      <trkpt lat="47.24804" lon="-1.63246">
        <ele>54.2</ele>
        <time>2013-08-07T16:43:45Z</time>
      </trkpt>
      <trkpt lat="47.24808" lon="-1.63261">
        <ele>54.5</ele>
        <time>2013-08-07T16:43:49Z</time>
      </trkpt>
      <trkpt lat="47.24812" lon="-1.63278">
        <ele>54.8</ele>
        <time>2013-08-07T16:43:53Z</time>
      </trkpt>
      <trkpt lat="47.24816" lon="-1.6329">
        <ele>55.2</ele>
        <time>2013-08-07T16:43:56Z</time>
      </trkpt>
      <trkpt lat="47.24821" lon="-1.63305">
        <ele>55.7</ele>
        <time>2013-08-07T16:44:00Z</time>
      </trkpt>
      <trkpt lat="47.24825" lon="-1.6332">
        <ele>56</ele>
        <time>2013-08-07T16:44:04Z</time>
      </trkpt>
      <trkpt lat="47.2483" lon="-1.63334">
        <ele>56.1</ele>
        <time>2013-08-07T16:44:08Z</time>
      </trkpt>
      <trkpt lat="47.24838" lon="-1.63348">
        <ele>56.3</ele>
        <time>2013-08-07T16:44:12Z</time>
      </trkpt>
      <trkpt lat="47.24843" lon="-1.63359">
        <ele>56.3</ele>
        <time>2013-08-07T16:44:15Z</time>
      </trkpt>
      <trkpt lat="47.24848" lon="-1.63371">
        <ele>56.4</ele>
        <time>2013-08-07T16:44:18Z</time>
      </trkpt>
      <trkpt lat="47.24854" lon="-1.63382">
        <ele>56.4</ele>
        <time>2013-08-07T16:44:21Z</time>
      </trkpt>
      <trkpt lat="47.2486" lon="-1.63394">
        <ele>56.5</ele>
        <time>2013-08-07T16:44:24Z</time>
      </trkpt>
      <trkpt lat="47.24867" lon="-1.63408">
        <ele>56.6</ele>
        <time>2013-08-07T16:44:27Z</time>
      </trkpt>
      <trkpt lat="47.24872" lon="-1.63421">
        <ele>56.5</ele>
        <time>2013-08-07T16:44:30Z</time>
      </trkpt>
      <trkpt lat="47.24877" lon="-1.63436">
        <ele>56.5</ele>
        <time>2013-08-07T16:44:34Z</time>
      </trkpt>
      <trkpt lat="47.24882" lon="-1.63447">
        <ele>56.5</ele>
        <time>2013-08-07T16:44:37Z</time>
      </trkpt>
      <trkpt lat="47.24887" lon="-1.6346">
        <ele>56.7</ele>
        <time>2013-08-07T16:44:40Z</time>
      </trkpt>
      <trkpt lat="47.24894" lon="-1.63469">
        <ele>56.8</ele>
        <time>2013-08-07T16:44:43Z</time>
      </trkpt>
      <trkpt lat="47.24894" lon="-1.63483">
        <ele>56.2</ele>
        <time>2013-08-07T16:44:50Z</time>
      </trkpt>
      <trkpt lat="47.24886" lon="-1.6349">
        <ele>56</ele>
        <time>2013-08-07T16:44:53Z</time>
      </trkpt>
      <trkpt lat="47.24892" lon="-1.63503">
        <ele>56</ele>
        <time>2013-08-07T16:44:58Z</time>
      </trkpt>
      <trkpt lat="47.24899" lon="-1.63511">
        <ele>56.3</ele>
        <time>2013-08-07T16:45:03Z</time>
      </trkpt>
      <trkpt lat="47.24909" lon="-1.63505">
        <ele>56.9</ele>
        <time>2013-08-07T16:45:11Z</time>
      </trkpt>
      <trkpt lat="47.24918" lon="-1.63497">
        <ele>57.2</ele>
        <time>2013-08-07T16:45:14Z</time>
      </trkpt>
      <trkpt lat="47.24926" lon="-1.63489">
        <ele>57.5</ele>
        <time>2013-08-07T16:45:17Z</time>
      </trkpt>
      <trkpt lat="47.24936" lon="-1.63479">
        <ele>58.1</ele>
        <time>2013-08-07T16:45:21Z</time>
      </trkpt>
      <trkpt lat="47.24944" lon="-1.63472">
        <ele>58.2</ele>
        <time>2013-08-07T16:45:24Z</time>
      </trkpt>
      <trkpt lat="47.24953" lon="-1.63465">
        <ele>58.3</ele>
        <time>2013-08-07T16:45:27Z</time>
      </trkpt>
      <trkpt lat="47.24962" lon="-1.6346">
        <ele>58.1</ele>
        <time>2013-08-07T16:45:30Z</time>
      </trkpt>
      <trkpt lat="47.24972" lon="-1.63456">
        <ele>58.3</ele>
        <time>2013-08-07T16:45:35Z</time>
      </trkpt>
      <trkpt lat="47.24979" lon="-1.63469">
        <ele>58.3</ele>
        <time>2013-08-07T16:45:39Z</time>
      </trkpt>
      <trkpt lat="47.24984" lon="-1.63482">
        <ele>58.4</ele>
        <time>2013-08-07T16:45:42Z</time>
      </trkpt>
      <trkpt lat="47.2499" lon="-1.63497">
        <ele>58.5</ele>
        <time>2013-08-07T16:45:45Z</time>
      </trkpt>
      <trkpt lat="47.24998" lon="-1.63513">
        <ele>58.6</ele>
        <time>2013-08-07T16:45:48Z</time>
      </trkpt>
      <trkpt lat="47.25003" lon="-1.63526">
        <ele>58.5</ele>
        <time>2013-08-07T16:45:50Z</time>
      </trkpt>
      <trkpt lat="47.25007" lon="-1.63541">
        <ele>57.6</ele>
        <time>2013-08-07T16:45:53Z</time>
      </trkpt>
      <trkpt lat="47.25007" lon="-1.63556">
        <ele>57.1</ele>
        <time>2013-08-07T16:45:55Z</time>
      </trkpt>
      <trkpt lat="47.25007" lon="-1.63575">
        <ele>55.9</ele>
        <time>2013-08-07T16:45:57Z</time>
      </trkpt>
      <trkpt lat="47.25009" lon="-1.63592">
        <ele>54.6</ele>
        <time>2013-08-07T16:45:59Z</time>
      </trkpt>
      <trkpt lat="47.25013" lon="-1.63604">
        <ele>54</ele>
        <time>2013-08-07T16:46:01Z</time>
      </trkpt>
      <trkpt lat="47.25017" lon="-1.63616">
        <ele>54</ele>
        <time>2013-08-07T16:46:03Z</time>
      </trkpt>
      <trkpt lat="47.2502" lon="-1.6363">
        <ele>54</ele>
        <time>2013-08-07T16:46:05Z</time>
      </trkpt>
      <trkpt lat="47.25022" lon="-1.63647">
        <ele>53.9</ele>
        <time>2013-08-07T16:46:08Z</time>
      </trkpt>
      <trkpt lat="47.25017" lon="-1.63662">
        <ele>53.8</ele>
        <time>2013-08-07T16:46:11Z</time>
      </trkpt>
      <trkpt lat="47.25014" lon="-1.63678">
        <ele>53.8</ele>
        <time>2013-08-07T16:46:14Z</time>
      </trkpt>
      <trkpt lat="47.25015" lon="-1.63694">
        <ele>53.8</ele>
        <time>2013-08-07T16:46:17Z</time>
      </trkpt>
      <trkpt lat="47.25023" lon="-1.63699">
        <ele>53.7</ele>
        <time>2013-08-07T16:46:22Z</time>
      </trkpt>
      <trkpt lat="47.2503" lon="-1.63708">
        <ele>53.4</ele>
        <time>2013-08-07T16:46:26Z</time>
      </trkpt>
      <trkpt lat="47.25035" lon="-1.63719">
        <ele>53.3</ele>
        <time>2013-08-07T16:46:29Z</time>
      </trkpt>
      <trkpt lat="47.25041" lon="-1.63731">
        <ele>53.6</ele>
        <time>2013-08-07T16:46:33Z</time>
      </trkpt>
      <trkpt lat="47.25049" lon="-1.63737">
        <ele>54.4</ele>
        <time>2013-08-07T16:46:38Z</time>
      </trkpt>
      <trkpt lat="47.25055" lon="-1.63748">
        <ele>55.1</ele>
        <time>2013-08-07T16:46:42Z</time>
      </trkpt>
      <trkpt lat="47.25065" lon="-1.63756">
        <ele>54.8</ele>
        <time>2013-08-07T16:46:46Z</time>
      </trkpt>
      <trkpt lat="47.25081" lon="-1.63777">
        <ele>53.7</ele>
        <time>2013-08-07T16:46:48Z</time>
      </trkpt>
      <trkpt lat="47.2509" lon="-1.63788">
        <ele>53.7</ele>
        <time>2013-08-07T16:46:49Z</time>
      </trkpt>
      <trkpt lat="47.25097" lon="-1.63798">
        <ele>53.7</ele>
        <time>2013-08-07T16:46:50Z</time>
      </trkpt>
      <trkpt lat="47.25111" lon="-1.63818">
        <ele>53.4</ele>
        <time>2013-08-07T16:46:52Z</time>
      </trkpt>
      <trkpt lat="47.25122" lon="-1.63826">
        <ele>53.5</ele>
        <time>2013-08-07T16:46:54Z</time>
      </trkpt>
      <trkpt lat="47.25131" lon="-1.63819">
        <ele>53.4</ele>
        <time>2013-08-07T16:46:57Z</time>
      </trkpt>
      <trkpt lat="47.25141" lon="-1.63812">
        <ele>53.3</ele>
        <time>2013-08-07T16:47:00Z</time>
      </trkpt>
      <trkpt lat="47.2515" lon="-1.63804">
        <ele>53.4</ele>
        <time>2013-08-07T16:47:03Z</time>
      </trkpt>
      <trkpt lat="47.2516" lon="-1.63798">
        <ele>53.5</ele>
        <time>2013-08-07T16:47:06Z</time>
      </trkpt>
      <trkpt lat="47.25174" lon="-1.638">
        <ele>53.4</ele>
        <time>2013-08-07T16:47:09Z</time>
      </trkpt>
      <trkpt lat="47.25185" lon="-1.63803">
        <ele>53.4</ele>
        <time>2013-08-07T16:47:11Z</time>
      </trkpt>
      <trkpt lat="47.25198" lon="-1.63806">
        <ele>53.5</ele>
        <time>2013-08-07T16:47:13Z</time>
      </trkpt>
      <trkpt lat="47.25211" lon="-1.63811">
        <ele>53</ele>
        <time>2013-08-07T16:47:15Z</time>
      </trkpt>
      <trkpt lat="47.25224" lon="-1.63815">
        <ele>52.6</ele>
        <time>2013-08-07T16:47:17Z</time>
      </trkpt>
      <trkpt lat="47.25233" lon="-1.63814">
        <ele>52.6</ele>
        <time>2013-08-07T16:47:19Z</time>
      </trkpt>
      <trkpt lat="47.25246" lon="-1.63812">
        <ele>52.4</ele>
        <time>2013-08-07T16:47:22Z</time>
      </trkpt>
      <trkpt lat="47.25256" lon="-1.63812">
        <ele>52.1</ele>
        <time>2013-08-07T16:47:24Z</time>
      </trkpt>
      <trkpt lat="47.25269" lon="-1.63806">
        <ele>51.4</ele>
        <time>2013-08-07T16:47:27Z</time>
      </trkpt>
      <trkpt lat="47.25279" lon="-1.63797">
        <ele>51.4</ele>
        <time>2013-08-07T16:47:30Z</time>
      </trkpt>
      <trkpt lat="47.25289" lon="-1.63787">
        <ele>51.3</ele>
        <time>2013-08-07T16:47:33Z</time>
      </trkpt>
      <trkpt lat="47.25293" lon="-1.63773">
        <ele>51.5</ele>
        <time>2013-08-07T16:47:36Z</time>
      </trkpt>
      <trkpt lat="47.25294" lon="-1.63759">
        <ele>51.6</ele>
        <time>2013-08-07T16:47:39Z</time>
      </trkpt>
      <trkpt lat="47.25299" lon="-1.63744">
        <ele>51.6</ele>
        <time>2013-08-07T16:47:43Z</time>
      </trkpt>
      <trkpt lat="47.25301" lon="-1.63731">
        <ele>51.8</ele>
        <time>2013-08-07T16:48:02Z</time>
      </trkpt>
      <trkpt lat="47.25295" lon="-1.6372">
        <ele>52</ele>
        <time>2013-08-07T16:48:12Z</time>
      </trkpt>
      <trkpt lat="47.25286" lon="-1.6372">
        <ele>52</ele>
        <time>2013-08-07T16:48:16Z</time>
      </trkpt>
      <trkpt lat="47.25274" lon="-1.63721">
        <ele>51.9</ele>
        <time>2013-08-07T16:48:20Z</time>
      </trkpt>
      <trkpt lat="47.25263" lon="-1.63718">
        <ele>51.8</ele>
        <time>2013-08-07T16:48:23Z</time>
      </trkpt>
      <trkpt lat="47.25252" lon="-1.63717">
        <ele>51.9</ele>
        <time>2013-08-07T16:48:27Z</time>
      </trkpt>
      <trkpt lat="47.25242" lon="-1.63714">
        <ele>51.9</ele>
        <time>2013-08-07T16:48:31Z</time>
      </trkpt>
      <trkpt lat="47.25233" lon="-1.63703">
        <ele>51.7</ele>
        <time>2013-08-07T16:48:36Z</time>
      </trkpt>
      <trkpt lat="47.25224" lon="-1.63696">
        <ele>51.4</ele>
        <time>2013-08-07T16:48:40Z</time>
      </trkpt>
      <trkpt lat="47.25215" lon="-1.63692">
        <ele>51.2</ele>
        <time>2013-08-07T16:48:44Z</time>
      </trkpt>
      <trkpt lat="47.25207" lon="-1.63685">
        <ele>50.8</ele>
        <time>2013-08-07T16:48:47Z</time>
      </trkpt>
      <trkpt lat="47.25197" lon="-1.6368">
        <ele>50.4</ele>
        <time>2013-08-07T16:48:51Z</time>
      </trkpt>
      <trkpt lat="47.25189" lon="-1.63673">
        <ele>50</ele>
        <time>2013-08-07T16:48:55Z</time>
      </trkpt>
      <trkpt lat="47.25182" lon="-1.63664">
        <ele>49.6</ele>
        <time>2013-08-07T16:48:58Z</time>
      </trkpt>
      <trkpt lat="47.25174" lon="-1.63655">
        <ele>49.3</ele>
        <time>2013-08-07T16:49:01Z</time>
      </trkpt>
      <trkpt lat="47.25164" lon="-1.63651">
        <ele>48.7</ele>
        <time>2013-08-07T16:49:05Z</time>
      </trkpt>
      <trkpt lat="47.25154" lon="-1.6365">
        <ele>48</ele>
        <time>2013-08-07T16:49:09Z</time>
      </trkpt>
      <trkpt lat="47.25149" lon="-1.63638">
        <ele>46.9</ele>
        <time>2013-08-07T16:49:20Z</time>
      </trkpt>
      <trkpt lat="47.2515" lon="-1.63618">
        <ele>46</ele>
        <time>2013-08-07T16:49:36Z</time>
      </trkpt>
      <trkpt lat="47.25147" lon="-1.63602">
        <ele>47.3</ele>
        <time>2013-08-07T16:49:41Z</time>
      </trkpt>
      <trkpt lat="47.25146" lon="-1.63588">
        <ele>48.4</ele>
        <time>2013-08-07T16:49:46Z</time>
      </trkpt>
      <trkpt lat="47.25146" lon="-1.63572">
        <ele>49.1</ele>
        <time>2013-08-07T16:49:51Z</time>
      </trkpt>
      <trkpt lat="47.25148" lon="-1.63556">
        <ele>50</ele>
        <time>2013-08-07T16:49:55Z</time>
      </trkpt>
      <trkpt lat="47.25152" lon="-1.6354">
        <ele>50.8</ele>
        <time>2013-08-07T16:49:59Z</time>
      </trkpt>
      <trkpt lat="47.25162" lon="-1.63531">
        <ele>51.2</ele>
        <time>2013-08-07T16:50:03Z</time>
      </trkpt>
      <trkpt lat="47.25171" lon="-1.63525">
        <ele>51.7</ele>
        <time>2013-08-07T16:50:07Z</time>
      </trkpt>
      <trkpt lat="47.2518" lon="-1.63517">
        <ele>51.9</ele>
        <time>2013-08-07T16:50:11Z</time>
      </trkpt>
      <trkpt lat="47.25189" lon="-1.63509">
        <ele>51.8</ele>
        <time>2013-08-07T16:50:15Z</time>
      </trkpt>
      <trkpt lat="47.25199" lon="-1.63512">
        <ele>51.7</ele>
        <time>2013-08-07T16:50:19Z</time>
      </trkpt>
      <trkpt lat="47.2521" lon="-1.63522">
        <ele>52.1</ele>
        <time>2013-08-07T16:50:23Z</time>
      </trkpt>
      <trkpt lat="47.25218" lon="-1.63532">
        <ele>52.4</ele>
        <time>2013-08-07T16:50:26Z</time>
      </trkpt>
      <trkpt lat="47.25226" lon="-1.63544">
        <ele>52.7</ele>
        <time>2013-08-07T16:50:29Z</time>
      </trkpt>
      <trkpt lat="47.25233" lon="-1.63553">
        <ele>53</ele>
        <time>2013-08-07T16:50:32Z</time>
      </trkpt>
      <trkpt lat="47.25243" lon="-1.63564">
        <ele>53.3</ele>
        <time>2013-08-07T16:50:35Z</time>
      </trkpt>
      <trkpt lat="47.25253" lon="-1.63574">
        <ele>53.4</ele>
        <time>2013-08-07T16:50:37Z</time>
      </trkpt>
      <trkpt lat="47.2526" lon="-1.63582">
        <ele>53.6</ele>
        <time>2013-08-07T16:50:39Z</time>
      </trkpt>
      <trkpt lat="47.25271" lon="-1.63592">
        <ele>53.7</ele>
        <time>2013-08-07T16:50:42Z</time>
      </trkpt>
      <trkpt lat="47.25279" lon="-1.63598">
        <ele>53.8</ele>
        <time>2013-08-07T16:50:45Z</time>
      </trkpt>
      <trkpt lat="47.25285" lon="-1.63613">
        <ele>54.2</ele>
        <time>2013-08-07T16:50:49Z</time>
      </trkpt>
      <trkpt lat="47.25297" lon="-1.63622">
        <ele>54.8</ele>
        <time>2013-08-07T16:50:52Z</time>
      </trkpt>
      <trkpt lat="47.25307" lon="-1.63632">
        <ele>55.1</ele>
        <time>2013-08-07T16:50:55Z</time>
      </trkpt>
      <trkpt lat="47.2531" lon="-1.63647">
        <ele>55.3</ele>
        <time>2013-08-07T16:50:59Z</time>
      </trkpt>
      <trkpt lat="47.25309" lon="-1.6366">
        <ele>55.4</ele>
        <time>2013-08-07T16:51:02Z</time>
      </trkpt>
      <trkpt lat="47.25308" lon="-1.63676">
        <ele>55.3</ele>
        <time>2013-08-07T16:51:05Z</time>
      </trkpt>
      <trkpt lat="47.25307" lon="-1.63689">
        <ele>55.1</ele>
        <time>2013-08-07T16:51:08Z</time>
      </trkpt>
      <trkpt lat="47.25307" lon="-1.63704">
        <ele>54.6</ele>
        <time>2013-08-07T16:51:12Z</time>
      </trkpt>
      <trkpt lat="47.25308" lon="-1.63719">
        <ele>54</ele>
        <time>2013-08-07T16:51:17Z</time>
      </trkpt>
      <trkpt lat="47.25309" lon="-1.63733">
        <ele>53.6</ele>
        <time>2013-08-07T16:51:20Z</time>
      </trkpt>
      <trkpt lat="47.25309" lon="-1.63746">
        <ele>53.1</ele>
        <time>2013-08-07T16:51:23Z</time>
      </trkpt>
      <trkpt lat="47.25308" lon="-1.63765">
        <ele>52.6</ele>
        <time>2013-08-07T16:51:27Z</time>
      </trkpt>
      <trkpt lat="47.25315" lon="-1.63777">
        <ele>51.9</ele>
        <time>2013-08-07T16:51:30Z</time>
      </trkpt>
      <trkpt lat="47.25319" lon="-1.63795">
        <ele>51.4</ele>
        <time>2013-08-07T16:51:34Z</time>
      </trkpt>
      <trkpt lat="47.25321" lon="-1.63815">
        <ele>50.8</ele>
        <time>2013-08-07T16:51:37Z</time>
      </trkpt>
      <trkpt lat="47.25322" lon="-1.63833">
        <ele>50.1</ele>
        <time>2013-08-07T16:51:40Z</time>
      </trkpt>
      <trkpt lat="47.25322" lon="-1.63847">
        <ele>49.4</ele>
        <time>2013-08-07T16:51:44Z</time>
      </trkpt>
      <trkpt lat="47.25312" lon="-1.63854">
        <ele>48.2</ele>
        <time>2013-08-07T16:52:03Z</time>
      </trkpt>
      <trkpt lat="47.25305" lon="-1.63863">
        <ele>48.5</ele>
        <time>2013-08-07T16:52:07Z</time>
      </trkpt>
      <trkpt lat="47.25293" lon="-1.63871">
        <ele>49.8</ele>
        <time>2013-08-07T16:52:11Z</time>
      </trkpt>
      <trkpt lat="47.25283" lon="-1.63878">
        <ele>50.1</ele>
        <time>2013-08-07T16:52:13Z</time>
      </trkpt>
      <trkpt lat="47.25273" lon="-1.63886">
        <ele>48.4</ele>
        <time>2013-08-07T16:52:15Z</time>
      </trkpt>
      <trkpt lat="47.25262" lon="-1.63893">
        <ele>47</ele>
        <time>2013-08-07T16:52:17Z</time>
      </trkpt>
      <trkpt lat="47.25252" lon="-1.63901">
        <ele>45.7</ele>
        <time>2013-08-07T16:52:19Z</time>
      </trkpt>
      <trkpt lat="47.25242" lon="-1.63911">
        <ele>45.8</ele>
        <time>2013-08-07T16:52:21Z</time>
      </trkpt>
      <trkpt lat="47.25234" lon="-1.63922">
        <ele>44.7</ele>
        <time>2013-08-07T16:52:23Z</time>
      </trkpt>
      <trkpt lat="47.25225" lon="-1.63933">
        <ele>43.5</ele>
        <time>2013-08-07T16:52:25Z</time>
      </trkpt>
      <trkpt lat="47.25216" lon="-1.63946">
        <ele>43.5</ele>
        <time>2013-08-07T16:52:27Z</time>
      </trkpt>
      <trkpt lat="47.25207" lon="-1.63958">
        <ele>43.1</ele>
        <time>2013-08-07T16:52:29Z</time>
      </trkpt>
      <trkpt lat="47.252" lon="-1.63969">
        <ele>43.1</ele>
        <time>2013-08-07T16:52:31Z</time>
      </trkpt>
      <trkpt lat="47.25192" lon="-1.63979">
        <ele>42.5</ele>
        <time>2013-08-07T16:52:33Z</time>
      </trkpt>
      <trkpt lat="47.25184" lon="-1.63987">
        <ele>42.5</ele>
        <time>2013-08-07T16:52:35Z</time>
      </trkpt>
      <trkpt lat="47.25177" lon="-1.63997">
        <ele>42.7</ele>
        <time>2013-08-07T16:52:37Z</time>
      </trkpt>
      <trkpt lat="47.25171" lon="-1.64008">
        <ele>42.1</ele>
        <time>2013-08-07T16:52:39Z</time>
      </trkpt>
      <trkpt lat="47.25163" lon="-1.64023">
        <ele>39.7</ele>
        <time>2013-08-07T16:52:42Z</time>
      </trkpt>
      <trkpt lat="47.25157" lon="-1.64034">
        <ele>38.5</ele>
        <time>2013-08-07T16:52:44Z</time>
      </trkpt>
      <trkpt lat="47.25151" lon="-1.64051">
        <ele>38.3</ele>
        <time>2013-08-07T16:52:47Z</time>
      </trkpt>
      <trkpt lat="47.25146" lon="-1.64063">
        <ele>39.2</ele>
        <time>2013-08-07T16:52:49Z</time>
      </trkpt>
      <trkpt lat="47.25142" lon="-1.64075">
        <ele>40.3</ele>
        <time>2013-08-07T16:52:51Z</time>
      </trkpt>
      <trkpt lat="47.25139" lon="-1.64089">
        <ele>40.4</ele>
        <time>2013-08-07T16:52:53Z</time>
      </trkpt>
      <trkpt lat="47.25134" lon="-1.64106">
        <ele>40.1</ele>
        <time>2013-08-07T16:52:56Z</time>
      </trkpt>
      <trkpt lat="47.25126" lon="-1.64119">
        <ele>39.9</ele>
        <time>2013-08-07T16:52:59Z</time>
      </trkpt>
      <trkpt lat="47.25119" lon="-1.64127">
        <ele>39.9</ele>
        <time>2013-08-07T16:53:01Z</time>
      </trkpt>
      <trkpt lat="47.25111" lon="-1.64136">
        <ele>39.9</ele>
        <time>2013-08-07T16:53:03Z</time>
      </trkpt>
      <trkpt lat="47.25102" lon="-1.64143">
        <ele>40.2</ele>
        <time>2013-08-07T16:53:05Z</time>
      </trkpt>
      <trkpt lat="47.25089" lon="-1.64153">
        <ele>41.2</ele>
        <time>2013-08-07T16:53:08Z</time>
      </trkpt>
      <trkpt lat="47.25081" lon="-1.64159">
        <ele>41.3</ele>
        <time>2013-08-07T16:53:10Z</time>
      </trkpt>
      <trkpt lat="47.25072" lon="-1.6417">
        <ele>41.1</ele>
        <time>2013-08-07T16:53:13Z</time>
      </trkpt>
      <trkpt lat="47.25062" lon="-1.64178">
        <ele>40.9</ele>
        <time>2013-08-07T16:53:16Z</time>
      </trkpt>
      <trkpt lat="47.25052" lon="-1.64179">
        <ele>40.8</ele>
        <time>2013-08-07T16:53:19Z</time>
      </trkpt>
      <trkpt lat="47.25042" lon="-1.64179">
        <ele>40.7</ele>
        <time>2013-08-07T16:53:22Z</time>
      </trkpt>
      <trkpt lat="47.25032" lon="-1.64183">
        <ele>40.7</ele>
        <time>2013-08-07T16:53:25Z</time>
      </trkpt>
      <trkpt lat="47.25023" lon="-1.64185">
        <ele>41.4</ele>
        <time>2013-08-07T16:53:27Z</time>
      </trkpt>
      <trkpt lat="47.25012" lon="-1.64188">
        <ele>42.4</ele>
        <time>2013-08-07T16:53:29Z</time>
      </trkpt>
      <trkpt lat="47.25001" lon="-1.64191">
        <ele>41.9</ele>
        <time>2013-08-07T16:53:31Z</time>
      </trkpt>
      <trkpt lat="47.2499" lon="-1.64193">
        <ele>41</ele>
        <time>2013-08-07T16:53:33Z</time>
      </trkpt>
      <trkpt lat="47.2498" lon="-1.64196">
        <ele>41</ele>
        <time>2013-08-07T16:53:35Z</time>
      </trkpt>
      <trkpt lat="47.2497" lon="-1.642">
        <ele>41.3</ele>
        <time>2013-08-07T16:53:37Z</time>
      </trkpt>
      <trkpt lat="47.24961" lon="-1.64205">
        <ele>41.7</ele>
        <time>2013-08-07T16:53:39Z</time>
      </trkpt>
      <trkpt lat="47.24951" lon="-1.64209">
        <ele>41.5</ele>
        <time>2013-08-07T16:53:41Z</time>
      </trkpt>
      <trkpt lat="47.24942" lon="-1.64214">
        <ele>40.6</ele>
        <time>2013-08-07T16:53:43Z</time>
      </trkpt>
      <trkpt lat="47.24931" lon="-1.64225">
        <ele>40</ele>
        <time>2013-08-07T16:53:46Z</time>
      </trkpt>
      <trkpt lat="47.24927" lon="-1.64242">
        <ele>39.9</ele>
        <time>2013-08-07T16:53:49Z</time>
      </trkpt>
      <trkpt lat="47.24925" lon="-1.64258">
        <ele>39.7</ele>
        <time>2013-08-07T16:53:52Z</time>
      </trkpt>
      <trkpt lat="47.24925" lon="-1.64272">
        <ele>40</ele>
        <time>2013-08-07T16:53:55Z</time>
      </trkpt>
      <trkpt lat="47.24929" lon="-1.64288">
        <ele>40.6</ele>
        <time>2013-08-07T16:53:59Z</time>
      </trkpt>
      <trkpt lat="47.24938" lon="-1.64295">
        <ele>41</ele>
        <time>2013-08-07T16:54:02Z</time>
      </trkpt>
      <trkpt lat="47.24946" lon="-1.64303">
        <ele>41.3</ele>
        <time>2013-08-07T16:54:05Z</time>
      </trkpt>
      <trkpt lat="47.24952" lon="-1.64314">
        <ele>41.6</ele>
        <time>2013-08-07T16:54:08Z</time>
      </trkpt>
      <trkpt lat="47.24954" lon="-1.64328">
        <ele>41.5</ele>
        <time>2013-08-07T16:54:11Z</time>
      </trkpt>
      <trkpt lat="47.24955" lon="-1.64341">
        <ele>41.5</ele>
        <time>2013-08-07T16:54:14Z</time>
      </trkpt>
      <trkpt lat="47.24957" lon="-1.64355">
        <ele>41.7</ele>
        <time>2013-08-07T16:54:17Z</time>
      </trkpt>
      <trkpt lat="47.2496" lon="-1.6437">
        <ele>41.6</ele>
        <time>2013-08-07T16:54:20Z</time>
      </trkpt>
      <trkpt lat="47.24965" lon="-1.64384">
        <ele>41.8</ele>
        <time>2013-08-07T16:54:23Z</time>
      </trkpt>
      <trkpt lat="47.24968" lon="-1.64401">
        <ele>42</ele>
        <time>2013-08-07T16:54:26Z</time>
      </trkpt>
      <trkpt lat="47.24973" lon="-1.64415">
        <ele>42.1</ele>
        <time>2013-08-07T16:54:29Z</time>
      </trkpt>
      <trkpt lat="47.24978" lon="-1.64431">
        <ele>42.2</ele>
        <time>2013-08-07T16:54:32Z</time>
      </trkpt>
      <trkpt lat="47.24983" lon="-1.64447">
        <ele>44</ele>
        <time>2013-08-07T16:54:35Z</time>
      </trkpt>
      <trkpt lat="47.24989" lon="-1.64465">
        <ele>44.7</ele>
        <time>2013-08-07T16:54:38Z</time>
      </trkpt>
      <trkpt lat="47.24994" lon="-1.64481">
        <ele>44.8</ele>
        <time>2013-08-07T16:54:41Z</time>
      </trkpt>
      <trkpt lat="47.24997" lon="-1.64496">
        <ele>44.8</ele>
        <time>2013-08-07T16:54:44Z</time>
      </trkpt>
      <trkpt lat="47.25001" lon="-1.64512">
        <ele>44.9</ele>
        <time>2013-08-07T16:54:47Z</time>
      </trkpt>
      <trkpt lat="47.25007" lon="-1.64527">
        <ele>44.9</ele>
        <time>2013-08-07T16:54:50Z</time>
      </trkpt>
      <trkpt lat="47.25011" lon="-1.64543">
        <ele>45.1</ele>
        <time>2013-08-07T16:54:53Z</time>
      </trkpt>
      <trkpt lat="47.25016" lon="-1.6456">
        <ele>45.1</ele>
        <time>2013-08-07T16:54:56Z</time>
      </trkpt>
      <trkpt lat="47.25022" lon="-1.64576">
        <ele>44.9</ele>
        <time>2013-08-07T16:54:59Z</time>
      </trkpt>
      <trkpt lat="47.25032" lon="-1.64583">
        <ele>44.6</ele>
        <time>2013-08-07T16:55:02Z</time>
      </trkpt>
      <trkpt lat="47.2504" lon="-1.64574">
        <ele>44.1</ele>
        <time>2013-08-07T16:55:06Z</time>
      </trkpt>
      <trkpt lat="47.25047" lon="-1.64561">
        <ele>43.7</ele>
        <time>2013-08-07T16:55:10Z</time>
      </trkpt>
      <trkpt lat="47.25052" lon="-1.64549">
        <ele>43.5</ele>
        <time>2013-08-07T16:55:13Z</time>
      </trkpt>
      <trkpt lat="47.2506" lon="-1.64538">
        <ele>43.4</ele>
        <time>2013-08-07T16:55:16Z</time>
      </trkpt>
      <trkpt lat="47.25072" lon="-1.64527">
        <ele>43.7</ele>
        <time>2013-08-07T16:55:19Z</time>
      </trkpt>
      <trkpt lat="47.25082" lon="-1.64523">
        <ele>43.9</ele>
        <time>2013-08-07T16:55:21Z</time>
      </trkpt>
      <trkpt lat="47.25093" lon="-1.64534">
        <ele>44.1</ele>
        <time>2013-08-07T16:55:24Z</time>
      </trkpt>
      <trkpt lat="47.25098" lon="-1.64547">
        <ele>44.1</ele>
        <time>2013-08-07T16:55:27Z</time>
      </trkpt>
      <trkpt lat="47.25101" lon="-1.6456">
        <ele>43.9</ele>
        <time>2013-08-07T16:55:30Z</time>
      </trkpt>
      <trkpt lat="47.25103" lon="-1.64575">
        <ele>43.8</ele>
        <time>2013-08-07T16:55:33Z</time>
      </trkpt>
      <trkpt lat="47.25105" lon="-1.64589">
        <ele>44</ele>
        <time>2013-08-07T16:55:36Z</time>
      </trkpt>
      <trkpt lat="47.25105" lon="-1.64605">
        <ele>44.2</ele>
        <time>2013-08-07T16:55:39Z</time>
      </trkpt>
      <trkpt lat="47.25105" lon="-1.64621">
        <ele>44.3</ele>
        <time>2013-08-07T16:55:42Z</time>
      </trkpt>
      <trkpt lat="47.25103" lon="-1.64638">
        <ele>44.4</ele>
        <time>2013-08-07T16:55:45Z</time>
      </trkpt>
      <trkpt lat="47.25101" lon="-1.64654">
        <ele>44.6</ele>
        <time>2013-08-07T16:55:48Z</time>
      </trkpt>
      <trkpt lat="47.25098" lon="-1.64672">
        <ele>45.2</ele>
        <time>2013-08-07T16:55:51Z</time>
      </trkpt>
      <trkpt lat="47.25096" lon="-1.64685">
        <ele>45.1</ele>
        <time>2013-08-07T16:55:53Z</time>
      </trkpt>
      <trkpt lat="47.25093" lon="-1.64701">
        <ele>45.6</ele>
        <time>2013-08-07T16:55:55Z</time>
      </trkpt>
      <trkpt lat="47.25091" lon="-1.64716">
        <ele>46.4</ele>
        <time>2013-08-07T16:55:57Z</time>
      </trkpt>
      <trkpt lat="47.25089" lon="-1.64731">
        <ele>46</ele>
        <time>2013-08-07T16:55:59Z</time>
      </trkpt>
      <trkpt lat="47.25088" lon="-1.64746">
        <ele>45.5</ele>
        <time>2013-08-07T16:56:01Z</time>
      </trkpt>
      <trkpt lat="47.25086" lon="-1.64762">
        <ele>44.8</ele>
        <time>2013-08-07T16:56:03Z</time>
      </trkpt>
      <trkpt lat="47.25084" lon="-1.64779">
        <ele>44.2</ele>
        <time>2013-08-07T16:56:05Z</time>
      </trkpt>
      <trkpt lat="47.25082" lon="-1.64796">
        <ele>43.8</ele>
        <time>2013-08-07T16:56:07Z</time>
      </trkpt>
      <trkpt lat="47.2508" lon="-1.64813">
        <ele>43</ele>
        <time>2013-08-07T16:56:09Z</time>
      </trkpt>
      <trkpt lat="47.25084" lon="-1.64827">
        <ele>42.9</ele>
        <time>2013-08-07T16:56:12Z</time>
      </trkpt>
      <trkpt lat="47.25092" lon="-1.64835">
        <ele>42.9</ele>
        <time>2013-08-07T16:56:15Z</time>
      </trkpt>
      <trkpt lat="47.25101" lon="-1.64842">
        <ele>42.7</ele>
        <time>2013-08-07T16:56:18Z</time>
      </trkpt>
      <trkpt lat="47.25112" lon="-1.64848">
        <ele>42.6</ele>
        <time>2013-08-07T16:56:21Z</time>
      </trkpt>
      <trkpt lat="47.25122" lon="-1.64853">
        <ele>42.6</ele>
        <time>2013-08-07T16:56:24Z</time>
      </trkpt>
      <trkpt lat="47.25133" lon="-1.64857">
        <ele>42.5</ele>
        <time>2013-08-07T16:56:27Z</time>
      </trkpt>
      <trkpt lat="47.25143" lon="-1.64862">
        <ele>42.4</ele>
        <time>2013-08-07T16:56:30Z</time>
      </trkpt>
      <trkpt lat="47.25154" lon="-1.6487">
        <ele>42.7</ele>
        <time>2013-08-07T16:56:34Z</time>
      </trkpt>
      <trkpt lat="47.25162" lon="-1.64879">
        <ele>43</ele>
        <time>2013-08-07T16:56:38Z</time>
      </trkpt>
      <trkpt lat="47.25166" lon="-1.64893">
        <ele>43</ele>
        <time>2013-08-07T16:56:42Z</time>
      </trkpt>
      <trkpt lat="47.25169" lon="-1.64909">
        <ele>43.2</ele>
        <time>2013-08-07T16:56:46Z</time>
      </trkpt>
      <trkpt lat="47.25172" lon="-1.64922">
        <ele>43.5</ele>
        <time>2013-08-07T16:56:49Z</time>
      </trkpt>
      <trkpt lat="47.25174" lon="-1.64937">
        <ele>43.8</ele>
        <time>2013-08-07T16:56:52Z</time>
      </trkpt>
      <trkpt lat="47.25177" lon="-1.6495">
        <ele>44</ele>
        <time>2013-08-07T16:56:55Z</time>
      </trkpt>
      <trkpt lat="47.25178" lon="-1.64966">
        <ele>44.3</ele>
        <time>2013-08-07T16:56:58Z</time>
      </trkpt>
      <trkpt lat="47.25177" lon="-1.64982">
        <ele>44.3</ele>
        <time>2013-08-07T16:57:01Z</time>
      </trkpt>
      <trkpt lat="47.25176" lon="-1.64997">
        <ele>44.6</ele>
        <time>2013-08-07T16:57:04Z</time>
      </trkpt>
      <trkpt lat="47.25176" lon="-1.65011">
        <ele>44.8</ele>
        <time>2013-08-07T16:57:07Z</time>
      </trkpt>
      <trkpt lat="47.25176" lon="-1.65025">
        <ele>45.1</ele>
        <time>2013-08-07T16:57:10Z</time>
      </trkpt>
      <trkpt lat="47.25176" lon="-1.65041">
        <ele>45.4</ele>
        <time>2013-08-07T16:57:13Z</time>
      </trkpt>
      <trkpt lat="47.25176" lon="-1.65058">
        <ele>45.5</ele>
        <time>2013-08-07T16:57:16Z</time>
      </trkpt>
      <trkpt lat="47.25176" lon="-1.65075">
        <ele>45.7</ele>
        <time>2013-08-07T16:57:19Z</time>
      </trkpt>
      <trkpt lat="47.25176" lon="-1.65092">
        <ele>45.6</ele>
        <time>2013-08-07T16:57:22Z</time>
      </trkpt>
      <trkpt lat="47.25176" lon="-1.65109">
        <ele>45.6</ele>
        <time>2013-08-07T16:57:25Z</time>
      </trkpt>
      <trkpt lat="47.25174" lon="-1.65126">
        <ele>45.4</ele>
        <time>2013-08-07T16:57:28Z</time>
      </trkpt>
      <trkpt lat="47.25171" lon="-1.65139">
        <ele>45.3</ele>
        <time>2013-08-07T16:57:30Z</time>
      </trkpt>
      <trkpt lat="47.25168" lon="-1.65158">
        <ele>45.1</ele>
        <time>2013-08-07T16:57:33Z</time>
      </trkpt>
      <trkpt lat="47.25165" lon="-1.65171">
        <ele>45</ele>
        <time>2013-08-07T16:57:35Z</time>
      </trkpt>
      <trkpt lat="47.25162" lon="-1.65183">
        <ele>44.8</ele>
        <time>2013-08-07T16:57:37Z</time>
      </trkpt>
      <trkpt lat="47.25158" lon="-1.65198">
        <ele>43.3</ele>
        <time>2013-08-07T16:57:39Z</time>
      </trkpt>
      <trkpt lat="47.25155" lon="-1.65213">
        <ele>43.6</ele>
        <time>2013-08-07T16:57:41Z</time>
      </trkpt>
      <trkpt lat="47.25157" lon="-1.65231">
        <ele>44.6</ele>
        <time>2013-08-07T16:57:43Z</time>
      </trkpt>
      <trkpt lat="47.2516" lon="-1.65248">
        <ele>45.4</ele>
        <time>2013-08-07T16:57:45Z</time>
      </trkpt>
      <trkpt lat="47.25162" lon="-1.65262">
        <ele>46.4</ele>
        <time>2013-08-07T16:57:47Z</time>
      </trkpt>
      <trkpt lat="47.25163" lon="-1.65279">
        <ele>45</ele>
        <time>2013-08-07T16:57:49Z</time>
      </trkpt>
      <trkpt lat="47.25161" lon="-1.65297">
        <ele>42.9</ele>
        <time>2013-08-07T16:57:51Z</time>
      </trkpt>
      <trkpt lat="47.25158" lon="-1.65317">
        <ele>41.7</ele>
        <time>2013-08-07T16:57:53Z</time>
      </trkpt>
      <trkpt lat="47.25152" lon="-1.65334">
        <ele>41.6</ele>
        <time>2013-08-07T16:57:55Z</time>
      </trkpt>
      <trkpt lat="47.25145" lon="-1.65352">
        <ele>41.5</ele>
        <time>2013-08-07T16:57:57Z</time>
      </trkpt>
      <trkpt lat="47.25139" lon="-1.65371">
        <ele>40.7</ele>
        <time>2013-08-07T16:57:59Z</time>
      </trkpt>
      <trkpt lat="47.25132" lon="-1.65392">
        <ele>40.6</ele>
        <time>2013-08-07T16:58:01Z</time>
      </trkpt>
      <trkpt lat="47.25125" lon="-1.6541">
        <ele>39.5</ele>
        <time>2013-08-07T16:58:03Z</time>
      </trkpt>
      <trkpt lat="47.25118" lon="-1.65426">
        <ele>38.2</ele>
        <time>2013-08-07T16:58:05Z</time>
      </trkpt>
      <trkpt lat="47.2511" lon="-1.65442">
        <ele>37.6</ele>
        <time>2013-08-07T16:58:07Z</time>
      </trkpt>
      <trkpt lat="47.25104" lon="-1.65459">
        <ele>36.3</ele>
        <time>2013-08-07T16:58:09Z</time>
      </trkpt>
      <trkpt lat="47.25102" lon="-1.65478">
        <ele>35.8</ele>
        <time>2013-08-07T16:58:11Z</time>
      </trkpt>
      <trkpt lat="47.251" lon="-1.65496">
        <ele>36</ele>
        <time>2013-08-07T16:58:13Z</time>
      </trkpt>
      <trkpt lat="47.25098" lon="-1.65515">
        <ele>36.1</ele>
        <time>2013-08-07T16:58:15Z</time>
      </trkpt>
      <trkpt lat="47.25095" lon="-1.65537">
        <ele>35.6</ele>
        <time>2013-08-07T16:58:17Z</time>
      </trkpt>
      <trkpt lat="47.25088" lon="-1.6556">
        <ele>34.4</ele>
        <time>2013-08-07T16:58:19Z</time>
      </trkpt>
      <trkpt lat="47.2508" lon="-1.65582">
        <ele>33.2</ele>
        <time>2013-08-07T16:58:21Z</time>
      </trkpt>
      <trkpt lat="47.25073" lon="-1.65604">
        <ele>32</ele>
        <time>2013-08-07T16:58:23Z</time>
      </trkpt>
      <trkpt lat="47.25069" lon="-1.65622">
        <ele>30.9</ele>
        <time>2013-08-07T16:58:25Z</time>
      </trkpt>
      <trkpt lat="47.25067" lon="-1.65638">
        <ele>30.2</ele>
        <time>2013-08-07T16:58:27Z</time>
      </trkpt>
      <trkpt lat="47.2507" lon="-1.65654">
        <ele>29.6</ele>
        <time>2013-08-07T16:58:29Z</time>
      </trkpt>
      <trkpt lat="47.25076" lon="-1.65664">
        <ele>29.7</ele>
        <time>2013-08-07T16:58:31Z</time>
      </trkpt>
      <trkpt lat="47.25084" lon="-1.65671">
        <ele>31</ele>
        <time>2013-08-07T16:58:33Z</time>
      </trkpt>
      <trkpt lat="47.25094" lon="-1.65676">
        <ele>31.8</ele>
        <time>2013-08-07T16:58:35Z</time>
      </trkpt>
      <trkpt lat="47.25104" lon="-1.6568">
        <ele>33.1</ele>
        <time>2013-08-07T16:58:37Z</time>
      </trkpt>
      <trkpt lat="47.25114" lon="-1.65684">
        <ele>33.9</ele>
        <time>2013-08-07T16:58:39Z</time>
      </trkpt>
      <trkpt lat="47.25124" lon="-1.65688">
        <ele>35.5</ele>
        <time>2013-08-07T16:58:41Z</time>
      </trkpt>
      <trkpt lat="47.25133" lon="-1.65691">
        <ele>37.6</ele>
        <time>2013-08-07T16:58:43Z</time>
      </trkpt>
      <trkpt lat="47.25146" lon="-1.65694">
        <ele>40.3</ele>
        <time>2013-08-07T16:58:46Z</time>
      </trkpt>
      <trkpt lat="47.25155" lon="-1.65695">
        <ele>41</ele>
        <time>2013-08-07T16:58:48Z</time>
      </trkpt>
      <trkpt lat="47.25167" lon="-1.65697">
        <ele>41.2</ele>
        <time>2013-08-07T16:58:51Z</time>
      </trkpt>
      <trkpt lat="47.25176" lon="-1.65703">
        <ele>41.4</ele>
        <time>2013-08-07T16:58:54Z</time>
      </trkpt>
      <trkpt lat="47.25181" lon="-1.65719">
        <ele>41.6</ele>
        <time>2013-08-07T16:58:58Z</time>
      </trkpt>
      <trkpt lat="47.25186" lon="-1.65734">
        <ele>41.3</ele>
        <time>2013-08-07T16:59:01Z</time>
      </trkpt>
      <trkpt lat="47.2519" lon="-1.65748">
        <ele>41.1</ele>
        <time>2013-08-07T16:59:04Z</time>
      </trkpt>
      <trkpt lat="47.25195" lon="-1.6576">
        <ele>41</ele>
        <time>2013-08-07T16:59:07Z</time>
      </trkpt>
      <trkpt lat="47.252" lon="-1.65772">
        <ele>40.5</ele>
        <time>2013-08-07T16:59:10Z</time>
      </trkpt>
      <trkpt lat="47.25205" lon="-1.65783">
        <ele>40.1</ele>
        <time>2013-08-07T16:59:13Z</time>
      </trkpt>
      <trkpt lat="47.25209" lon="-1.65796">
        <ele>39.8</ele>
        <time>2013-08-07T16:59:16Z</time>
      </trkpt>
      <trkpt lat="47.25214" lon="-1.65811">
        <ele>39.7</ele>
        <time>2013-08-07T16:59:19Z</time>
      </trkpt>
      <trkpt lat="47.25217" lon="-1.65828">
        <ele>39.8</ele>
        <time>2013-08-07T16:59:22Z</time>
      </trkpt>
      <trkpt lat="47.25221" lon="-1.65844">
        <ele>40</ele>
        <time>2013-08-07T16:59:25Z</time>
      </trkpt>
      <trkpt lat="47.25225" lon="-1.65858">
        <ele>40.2</ele>
        <time>2013-08-07T16:59:28Z</time>
      </trkpt>
      <trkpt lat="47.25229" lon="-1.65872">
        <ele>40.3</ele>
        <time>2013-08-07T16:59:31Z</time>
      </trkpt>
      <trkpt lat="47.25233" lon="-1.65886">
        <ele>40.4</ele>
        <time>2013-08-07T16:59:34Z</time>
      </trkpt>
      <trkpt lat="47.25236" lon="-1.65899">
        <ele>40.6</ele>
        <time>2013-08-07T16:59:37Z</time>
      </trkpt>
      <trkpt lat="47.2524" lon="-1.65913">
        <ele>40.8</ele>
        <time>2013-08-07T16:59:40Z</time>
      </trkpt>
      <trkpt lat="47.25243" lon="-1.65926">
        <ele>41</ele>
        <time>2013-08-07T16:59:43Z</time>
      </trkpt>
      <trkpt lat="47.25246" lon="-1.65938">
        <ele>41.1</ele>
        <time>2013-08-07T16:59:46Z</time>
      </trkpt>
      <trkpt lat="47.2525" lon="-1.65952">
        <ele>41.3</ele>
        <time>2013-08-07T16:59:49Z</time>
      </trkpt>
      <trkpt lat="47.25254" lon="-1.65965">
        <ele>41.4</ele>
        <time>2013-08-07T16:59:52Z</time>
      </trkpt>
      <trkpt lat="47.25259" lon="-1.65978">
        <ele>41.6</ele>
        <time>2013-08-07T16:59:55Z</time>
      </trkpt>
      <trkpt lat="47.25265" lon="-1.65993">
        <ele>41.8</ele>
        <time>2013-08-07T16:59:58Z</time>
      </trkpt>
      <trkpt lat="47.25273" lon="-1.66007">
        <ele>42.6</ele>
        <time>2013-08-07T17:00:01Z</time>
      </trkpt>
      <trkpt lat="47.25281" lon="-1.66021">
        <ele>44.3</ele>
        <time>2013-08-07T17:00:04Z</time>
      </trkpt>
      <trkpt lat="47.2529" lon="-1.66035">
        <ele>44.4</ele>
        <time>2013-08-07T17:00:07Z</time>
      </trkpt>
      <trkpt lat="47.25299" lon="-1.6605">
        <ele>43.8</ele>
        <time>2013-08-07T17:00:10Z</time>
      </trkpt>
      <trkpt lat="47.25307" lon="-1.66065">
        <ele>43.4</ele>
        <time>2013-08-07T17:00:13Z</time>
      </trkpt>
      <trkpt lat="47.25313" lon="-1.66076">
        <ele>43.8</ele>
        <time>2013-08-07T17:00:15Z</time>
      </trkpt>
      <trkpt lat="47.2532" lon="-1.66086">
        <ele>44.2</ele>
        <time>2013-08-07T17:00:17Z</time>
      </trkpt>
      <trkpt lat="47.25325" lon="-1.66099">
        <ele>43.8</ele>
        <time>2013-08-07T17:00:19Z</time>
      </trkpt>
      <trkpt lat="47.25326" lon="-1.66113">
        <ele>43.4</ele>
        <time>2013-08-07T17:00:21Z</time>
      </trkpt>
      <trkpt lat="47.25325" lon="-1.66132">
        <ele>43.2</ele>
        <time>2013-08-07T17:00:23Z</time>
      </trkpt>
      <trkpt lat="47.25323" lon="-1.66151">
        <ele>43.4</ele>
        <time>2013-08-07T17:00:25Z</time>
      </trkpt>
      <trkpt lat="47.25321" lon="-1.66169">
        <ele>44</ele>
        <time>2013-08-07T17:00:27Z</time>
      </trkpt>
      <trkpt lat="47.2532" lon="-1.66186">
        <ele>44.2</ele>
        <time>2013-08-07T17:00:29Z</time>
      </trkpt>
      <trkpt lat="47.2532" lon="-1.66202">
        <ele>44.1</ele>
        <time>2013-08-07T17:00:31Z</time>
      </trkpt>
      <trkpt lat="47.2532" lon="-1.66218">
        <ele>43.8</ele>
        <time>2013-08-07T17:00:33Z</time>
      </trkpt>
      <trkpt lat="47.2532" lon="-1.66234">
        <ele>44.1</ele>
        <time>2013-08-07T17:00:35Z</time>
      </trkpt>
      <trkpt lat="47.2532" lon="-1.66251">
        <ele>44.1</ele>
        <time>2013-08-07T17:00:37Z</time>
      </trkpt>
      <trkpt lat="47.2532" lon="-1.66268">
        <ele>44</ele>
        <time>2013-08-07T17:00:39Z</time>
      </trkpt>
      <trkpt lat="47.25321" lon="-1.66286">
        <ele>43.7</ele>
        <time>2013-08-07T17:00:41Z</time>
      </trkpt>
      <trkpt lat="47.25322" lon="-1.66305">
        <ele>43.2</ele>
        <time>2013-08-07T17:00:43Z</time>
      </trkpt>
      <trkpt lat="47.25322" lon="-1.66322">
        <ele>43.2</ele>
        <time>2013-08-07T17:00:45Z</time>
      </trkpt>
      <trkpt lat="47.25324" lon="-1.66338">
        <ele>44</ele>
        <time>2013-08-07T17:00:47Z</time>
      </trkpt>
      <trkpt lat="47.25325" lon="-1.66353">
        <ele>44</ele>
        <time>2013-08-07T17:00:49Z</time>
      </trkpt>
      <trkpt lat="47.25326" lon="-1.66368">
        <ele>43.7</ele>
        <time>2013-08-07T17:00:51Z</time>
      </trkpt>
      <trkpt lat="47.25326" lon="-1.66382">
        <ele>43.9</ele>
        <time>2013-08-07T17:00:53Z</time>
      </trkpt>
      <trkpt lat="47.25325" lon="-1.66397">
        <ele>44.3</ele>
        <time>2013-08-07T17:00:55Z</time>
      </trkpt>
      <trkpt lat="47.25325" lon="-1.66411">
        <ele>44.5</ele>
        <time>2013-08-07T17:00:57Z</time>
      </trkpt>
      <trkpt lat="47.25325" lon="-1.66426">
        <ele>44.1</ele>
        <time>2013-08-07T17:00:59Z</time>
      </trkpt>
      <trkpt lat="47.25325" lon="-1.66442">
        <ele>44.1</ele>
        <time>2013-08-07T17:01:01Z</time>
      </trkpt>
      <trkpt lat="47.25326" lon="-1.66457">
        <ele>43.8</ele>
        <time>2013-08-07T17:01:03Z</time>
      </trkpt>
      <trkpt lat="47.25327" lon="-1.66473">
        <ele>42.7</ele>
        <time>2013-08-07T17:01:05Z</time>
      </trkpt>
      <trkpt lat="47.25327" lon="-1.66488">
        <ele>40.6</ele>
        <time>2013-08-07T17:01:07Z</time>
      </trkpt>
      <trkpt lat="47.25327" lon="-1.66504">
        <ele>38.8</ele>
        <time>2013-08-07T17:01:09Z</time>
      </trkpt>
      <trkpt lat="47.25329" lon="-1.66517">
        <ele>37.6</ele>
        <time>2013-08-07T17:01:20Z</time>
      </trkpt>
      <trkpt lat="47.2534" lon="-1.66518">
        <ele>38.6</ele>
        <time>2013-08-07T17:01:25Z</time>
      </trkpt>
      <trkpt lat="47.25353" lon="-1.6651">
        <ele>40.9</ele>
        <time>2013-08-07T17:01:27Z</time>
      </trkpt>
      <trkpt lat="47.25364" lon="-1.66504">
        <ele>40.9</ele>
        <time>2013-08-07T17:01:29Z</time>
      </trkpt>
      <trkpt lat="47.25375" lon="-1.66499">
        <ele>41</ele>
        <time>2013-08-07T17:01:31Z</time>
      </trkpt>
      <trkpt lat="47.25385" lon="-1.66495">
        <ele>41.1</ele>
        <time>2013-08-07T17:01:33Z</time>
      </trkpt>
      <trkpt lat="47.25396" lon="-1.6649">
        <ele>41.1</ele>
        <time>2013-08-07T17:01:36Z</time>
      </trkpt>
      <trkpt lat="47.25407" lon="-1.6649">
        <ele>41.1</ele>
        <time>2013-08-07T17:01:39Z</time>
      </trkpt>
      <trkpt lat="47.25418" lon="-1.66486">
        <ele>41.2</ele>
        <time>2013-08-07T17:01:43Z</time>
      </trkpt>
      <trkpt lat="47.25427" lon="-1.66479">
        <ele>41.4</ele>
        <time>2013-08-07T17:01:47Z</time>
      </trkpt>
      <trkpt lat="47.25435" lon="-1.66469">
        <ele>41.9</ele>
        <time>2013-08-07T17:01:51Z</time>
      </trkpt>
      <trkpt lat="47.25441" lon="-1.66458">
        <ele>42.3</ele>
        <time>2013-08-07T17:01:55Z</time>
      </trkpt>
      <trkpt lat="47.25448" lon="-1.66445">
        <ele>42.7</ele>
        <time>2013-08-07T17:02:00Z</time>
      </trkpt>
      <trkpt lat="47.25455" lon="-1.66436">
        <ele>43</ele>
        <time>2013-08-07T17:02:02Z</time>
      </trkpt>
      <trkpt lat="47.25461" lon="-1.66427">
        <ele>43.3</ele>
        <time>2013-08-07T17:02:04Z</time>
      </trkpt>
      <trkpt lat="47.2547" lon="-1.66415">
        <ele>43.6</ele>
        <time>2013-08-07T17:02:07Z</time>
      </trkpt>
      <trkpt lat="47.25478" lon="-1.66405">
        <ele>44</ele>
        <time>2013-08-07T17:02:10Z</time>
      </trkpt>
      <trkpt lat="47.25485" lon="-1.66391">
        <ele>44.1</ele>
        <time>2013-08-07T17:02:14Z</time>
      </trkpt>
      <trkpt lat="47.25491" lon="-1.66379">
        <ele>44.2</ele>
        <time>2013-08-07T17:02:17Z</time>
      </trkpt>
      <trkpt lat="47.255" lon="-1.6637">
        <ele>44.2</ele>
        <time>2013-08-07T17:02:20Z</time>
      </trkpt>
      <trkpt lat="47.2551" lon="-1.66364">
        <ele>44</ele>
        <time>2013-08-07T17:02:23Z</time>
      </trkpt>
      <trkpt lat="47.25519" lon="-1.66358">
        <ele>44.2</ele>
        <time>2013-08-07T17:02:27Z</time>
      </trkpt>
      <trkpt lat="47.25526" lon="-1.66346">
        <ele>45</ele>
        <time>2013-08-07T17:02:31Z</time>
      </trkpt>
      <trkpt lat="47.25534" lon="-1.66334">
        <ele>45.7</ele>
        <time>2013-08-07T17:02:35Z</time>
      </trkpt>
      <trkpt lat="47.25541" lon="-1.66321">
        <ele>46.3</ele>
        <time>2013-08-07T17:02:38Z</time>
      </trkpt>
      <trkpt lat="47.25546" lon="-1.66305">
        <ele>47.1</ele>
        <time>2013-08-07T17:02:41Z</time>
      </trkpt>
      <trkpt lat="47.2555" lon="-1.6629">
        <ele>47.8</ele>
        <time>2013-08-07T17:02:44Z</time>
      </trkpt>
      <trkpt lat="47.25554" lon="-1.66275">
        <ele>48.3</ele>
        <time>2013-08-07T17:02:47Z</time>
      </trkpt>
      <trkpt lat="47.25557" lon="-1.66261">
        <ele>48.5</ele>
        <time>2013-08-07T17:02:50Z</time>
      </trkpt>
      <trkpt lat="47.2556" lon="-1.66245">
        <ele>48.8</ele>
        <time>2013-08-07T17:02:54Z</time>
      </trkpt>
      <trkpt lat="47.25567" lon="-1.66226">
        <ele>48.7</ele>
        <time>2013-08-07T17:02:58Z</time>
      </trkpt>
      <trkpt lat="47.25574" lon="-1.66213">
        <ele>46.7</ele>
        <time>2013-08-07T17:03:00Z</time>
      </trkpt>
      <trkpt lat="47.25581" lon="-1.66198">
        <ele>46.2</ele>
        <time>2013-08-07T17:03:03Z</time>
      </trkpt>
      <trkpt lat="47.25588" lon="-1.66183">
        <ele>45.7</ele>
        <time>2013-08-07T17:03:06Z</time>
      </trkpt>
      <trkpt lat="47.25596" lon="-1.66167">
        <ele>46</ele>
        <time>2013-08-07T17:03:09Z</time>
      </trkpt>
      <trkpt lat="47.25603" lon="-1.66152">
        <ele>45.7</ele>
        <time>2013-08-07T17:03:12Z</time>
      </trkpt>
      <trkpt lat="47.25608" lon="-1.66139">
        <ele>45.4</ele>
        <time>2013-08-07T17:03:15Z</time>
      </trkpt>
      <trkpt lat="47.25614" lon="-1.66127">
        <ele>45.1</ele>
        <time>2013-08-07T17:03:18Z</time>
      </trkpt>
      <trkpt lat="47.25619" lon="-1.66114">
        <ele>44.7</ele>
        <time>2013-08-07T17:03:22Z</time>
      </trkpt>
      <trkpt lat="47.25627" lon="-1.66101">
        <ele>44.7</ele>
        <time>2013-08-07T17:03:25Z</time>
      </trkpt>
      <trkpt lat="47.25635" lon="-1.66089">
        <ele>44.8</ele>
        <time>2013-08-07T17:03:27Z</time>
      </trkpt>
      <trkpt lat="47.25642" lon="-1.6608">
        <ele>46</ele>
        <time>2013-08-07T17:03:29Z</time>
      </trkpt>
      <trkpt lat="47.2565" lon="-1.66066">
        <ele>46.4</ele>
        <time>2013-08-07T17:03:32Z</time>
      </trkpt>
      <trkpt lat="47.25657" lon="-1.66053">
        <ele>46.8</ele>
        <time>2013-08-07T17:03:34Z</time>
      </trkpt>
      <trkpt lat="47.25664" lon="-1.66036">
        <ele>47.2</ele>
        <time>2013-08-07T17:03:37Z</time>
      </trkpt>
      <trkpt lat="47.2567" lon="-1.66024">
        <ele>47.5</ele>
        <time>2013-08-07T17:03:39Z</time>
      </trkpt>
      <trkpt lat="47.25678" lon="-1.66011">
        <ele>48.1</ele>
        <time>2013-08-07T17:03:42Z</time>
      </trkpt>
      <trkpt lat="47.25685" lon="-1.65996">
        <ele>48.7</ele>
        <time>2013-08-07T17:03:45Z</time>
      </trkpt>
      <trkpt lat="47.25692" lon="-1.65983">
        <ele>49.1</ele>
        <time>2013-08-07T17:03:48Z</time>
      </trkpt>
      <trkpt lat="47.25699" lon="-1.65971">
        <ele>49.4</ele>
        <time>2013-08-07T17:03:50Z</time>
      </trkpt>
      <trkpt lat="47.25706" lon="-1.6596">
        <ele>49.7</ele>
        <time>2013-08-07T17:03:52Z</time>
      </trkpt>
      <trkpt lat="47.25713" lon="-1.65946">
        <ele>50.2</ele>
        <time>2013-08-07T17:03:55Z</time>
      </trkpt>
      <trkpt lat="47.25718" lon="-1.65935">
        <ele>50.5</ele>
        <time>2013-08-07T17:03:57Z</time>
      </trkpt>
      <trkpt lat="47.25725" lon="-1.65925">
        <ele>50.7</ele>
        <time>2013-08-07T17:03:59Z</time>
      </trkpt>
      <trkpt lat="47.25731" lon="-1.65914">
        <ele>50.8</ele>
        <time>2013-08-07T17:04:01Z</time>
      </trkpt>
      <trkpt lat="47.25738" lon="-1.65904">
        <ele>51.1</ele>
        <time>2013-08-07T17:04:03Z</time>
      </trkpt>
      <trkpt lat="47.25747" lon="-1.6589">
        <ele>51.7</ele>
        <time>2013-08-07T17:04:06Z</time>
      </trkpt>
      <trkpt lat="47.25753" lon="-1.65876">
        <ele>52.1</ele>
        <time>2013-08-07T17:04:09Z</time>
      </trkpt>
      <trkpt lat="47.25758" lon="-1.65862">
        <ele>52.2</ele>
        <time>2013-08-07T17:04:12Z</time>
      </trkpt>
      <trkpt lat="47.25763" lon="-1.6585">
        <ele>52.4</ele>
        <time>2013-08-07T17:04:14Z</time>
      </trkpt>
      <trkpt lat="47.25771" lon="-1.65834">
        <ele>53.6</ele>
        <time>2013-08-07T17:04:17Z</time>
      </trkpt>
      <trkpt lat="47.25779" lon="-1.65819">
        <ele>55.8</ele>
        <time>2013-08-07T17:04:20Z</time>
      </trkpt>
      <trkpt lat="47.25787" lon="-1.65806">
        <ele>58.7</ele>
        <time>2013-08-07T17:04:23Z</time>
      </trkpt>
      <trkpt lat="47.25794" lon="-1.65792">
        <ele>59.1</ele>
        <time>2013-08-07T17:04:26Z</time>
      </trkpt>
      <trkpt lat="47.25801" lon="-1.65777">
        <ele>59.3</ele>
        <time>2013-08-07T17:04:29Z</time>
      </trkpt>
      <trkpt lat="47.25807" lon="-1.65764">
        <ele>60</ele>
        <time>2013-08-07T17:04:32Z</time>
      </trkpt>
      <trkpt lat="47.25811" lon="-1.65751">
        <ele>60.1</ele>
        <time>2013-08-07T17:04:35Z</time>
      </trkpt>
      <trkpt lat="47.25817" lon="-1.65736">
        <ele>60.5</ele>
        <time>2013-08-07T17:04:39Z</time>
      </trkpt>
      <trkpt lat="47.25824" lon="-1.65725">
        <ele>60.9</ele>
        <time>2013-08-07T17:04:42Z</time>
      </trkpt>
      <trkpt lat="47.25831" lon="-1.65713">
        <ele>61.2</ele>
        <time>2013-08-07T17:04:45Z</time>
      </trkpt>
      <trkpt lat="47.25836" lon="-1.65702">
        <ele>61.5</ele>
        <time>2013-08-07T17:04:48Z</time>
      </trkpt>
      <trkpt lat="47.25842" lon="-1.6569">
        <ele>61.6</ele>
        <time>2013-08-07T17:04:51Z</time>
      </trkpt>
      <trkpt lat="47.25847" lon="-1.65677">
        <ele>61.8</ele>
        <time>2013-08-07T17:04:54Z</time>
      </trkpt>
      <trkpt lat="47.25854" lon="-1.65664">
        <ele>61.9</ele>
        <time>2013-08-07T17:04:57Z</time>
      </trkpt>
      <trkpt lat="47.25858" lon="-1.65653">
        <ele>62</ele>
        <time>2013-08-07T17:05:00Z</time>
      </trkpt>
      <trkpt lat="47.25862" lon="-1.6564">
        <ele>62.1</ele>
        <time>2013-08-07T17:05:03Z</time>
      </trkpt>
      <trkpt lat="47.25867" lon="-1.65625">
        <ele>62.4</ele>
        <time>2013-08-07T17:05:07Z</time>
      </trkpt>
      <trkpt lat="47.25876" lon="-1.65612">
        <ele>62.4</ele>
        <time>2013-08-07T17:05:10Z</time>
      </trkpt>
      <trkpt lat="47.25882" lon="-1.65598">
        <ele>62.5</ele>
        <time>2013-08-07T17:05:13Z</time>
      </trkpt>
      <trkpt lat="47.2589" lon="-1.65584">
        <ele>62.7</ele>
        <time>2013-08-07T17:05:16Z</time>
      </trkpt>
      <trkpt lat="47.25898" lon="-1.65574">
        <ele>62.8</ele>
        <time>2013-08-07T17:05:18Z</time>
      </trkpt>
      <trkpt lat="47.25906" lon="-1.65561">
        <ele>62.7</ele>
        <time>2013-08-07T17:05:21Z</time>
      </trkpt>
      <trkpt lat="47.25911" lon="-1.65548">
        <ele>62.9</ele>
        <time>2013-08-07T17:05:24Z</time>
      </trkpt>
      <trkpt lat="47.25919" lon="-1.65537">
        <ele>63.1</ele>
        <time>2013-08-07T17:05:27Z</time>
      </trkpt>
      <trkpt lat="47.25926" lon="-1.65526">
        <ele>63.4</ele>
        <time>2013-08-07T17:05:30Z</time>
      </trkpt>
      <trkpt lat="47.25933" lon="-1.65515">
        <ele>63.8</ele>
        <time>2013-08-07T17:05:34Z</time>
      </trkpt>
      <trkpt lat="47.25938" lon="-1.65503">
        <ele>64</ele>
        <time>2013-08-07T17:06:01Z</time>
      </trkpt>
      <trkpt lat="47.25942" lon="-1.6549">
        <ele>64.4</ele>
        <time>2013-08-07T17:06:06Z</time>
      </trkpt>
      <trkpt lat="47.25947" lon="-1.65479">
        <ele>64.8</ele>
        <time>2013-08-07T17:06:11Z</time>
      </trkpt>
      <trkpt lat="47.25958" lon="-1.65483">
        <ele>65.2</ele>
        <time>2013-08-07T17:06:17Z</time>
      </trkpt>
      <trkpt lat="47.25961" lon="-1.6547">
        <ele>65.5</ele>
        <time>2013-08-07T17:06:23Z</time>
      </trkpt>
      <trkpt lat="47.25961" lon="-1.65455">
        <ele>65.7</ele>
        <time>2013-08-07T17:06:28Z</time>
      </trkpt>
      <trkpt lat="47.25971" lon="-1.6545">
        <ele>65.6</ele>
        <time>2013-08-07T17:06:39Z</time>
      </trkpt>
      <trkpt lat="47.2598" lon="-1.6545">
        <ele>65.8</ele>
        <time>2013-08-07T17:06:42Z</time>
      </trkpt>
      <trkpt lat="47.25991" lon="-1.6545">
        <ele>66.1</ele>
        <time>2013-08-07T17:06:46Z</time>
      </trkpt>
      <trkpt lat="47.26" lon="-1.65452">
        <ele>66.7</ele>
        <time>2013-08-07T17:06:50Z</time>
      </trkpt>
      <trkpt lat="47.26013" lon="-1.65453">
        <ele>67.2</ele>
        <time>2013-08-07T17:06:54Z</time>
      </trkpt>
      <trkpt lat="47.26022" lon="-1.65453">
        <ele>67.4</ele>
        <time>2013-08-07T17:06:57Z</time>
      </trkpt>
      <trkpt lat="47.26032" lon="-1.65454">
        <ele>67.7</ele>
        <time>2013-08-07T17:07:00Z</time>
      </trkpt>
      <trkpt lat="47.26044" lon="-1.65453">
        <ele>67.9</ele>
        <time>2013-08-07T17:07:04Z</time>
      </trkpt>
      <trkpt lat="47.26054" lon="-1.65452">
        <ele>67.9</ele>
        <time>2013-08-07T17:07:07Z</time>
      </trkpt>
      <trkpt lat="47.26063" lon="-1.6545">
        <ele>67.8</ele>
        <time>2013-08-07T17:07:10Z</time>
      </trkpt>
      <trkpt lat="47.26073" lon="-1.65447">
        <ele>67.7</ele>
        <time>2013-08-07T17:07:13Z</time>
      </trkpt>
      <trkpt lat="47.26082" lon="-1.65439">
        <ele>67.8</ele>
        <time>2013-08-07T17:07:16Z</time>
      </trkpt>
      <trkpt lat="47.26091" lon="-1.65435">
        <ele>67.8</ele>
        <time>2013-08-07T17:07:19Z</time>
      </trkpt>
      <trkpt lat="47.26102" lon="-1.65432">
        <ele>67.7</ele>
        <time>2013-08-07T17:07:22Z</time>
      </trkpt>
      <trkpt lat="47.26114" lon="-1.65429">
        <ele>67.4</ele>
        <time>2013-08-07T17:07:25Z</time>
      </trkpt>
      <trkpt lat="47.26127" lon="-1.65426">
        <ele>67.7</ele>
        <time>2013-08-07T17:07:28Z</time>
      </trkpt>
      <trkpt lat="47.26136" lon="-1.65426">
        <ele>68</ele>
        <time>2013-08-07T17:07:30Z</time>
      </trkpt>
      <trkpt lat="47.26145" lon="-1.65425">
        <ele>68.9</ele>
        <time>2013-08-07T17:07:32Z</time>
      </trkpt>
      <trkpt lat="47.26155" lon="-1.65425">
        <ele>69.2</ele>
        <time>2013-08-07T17:07:34Z</time>
      </trkpt>
      <trkpt lat="47.26168" lon="-1.65424">
        <ele>69.4</ele>
        <time>2013-08-07T17:07:37Z</time>
      </trkpt>
      <trkpt lat="47.2618" lon="-1.65424">
        <ele>68.6</ele>
        <time>2013-08-07T17:07:40Z</time>
      </trkpt>
      <trkpt lat="47.26189" lon="-1.65423">
        <ele>68.3</ele>
        <time>2013-08-07T17:07:42Z</time>
      </trkpt>
      <trkpt lat="47.26198" lon="-1.65424">
        <ele>68.1</ele>
        <time>2013-08-07T17:07:44Z</time>
      </trkpt>
      <trkpt lat="47.26208" lon="-1.65426">
        <ele>68.2</ele>
        <time>2013-08-07T17:07:46Z</time>
      </trkpt>
      <trkpt lat="47.26218" lon="-1.65426">
        <ele>67.9</ele>
        <time>2013-08-07T17:07:48Z</time>
      </trkpt>
      <trkpt lat="47.26228" lon="-1.65426">
        <ele>67.8</ele>
        <time>2013-08-07T17:07:50Z</time>
      </trkpt>
      <trkpt lat="47.26239" lon="-1.65425">
        <ele>67.7</ele>
        <time>2013-08-07T17:07:52Z</time>
      </trkpt>
      <trkpt lat="47.26251" lon="-1.65425">
        <ele>66.8</ele>
        <time>2013-08-07T17:07:54Z</time>
      </trkpt>
      <trkpt lat="47.26264" lon="-1.65426">
        <ele>66.4</ele>
        <time>2013-08-07T17:07:56Z</time>
      </trkpt>
      <trkpt lat="47.26276" lon="-1.65427">
        <ele>65.9</ele>
        <time>2013-08-07T17:07:58Z</time>
      </trkpt>
      <trkpt lat="47.26288" lon="-1.65427">
        <ele>65.5</ele>
        <time>2013-08-07T17:08:00Z</time>
      </trkpt>
      <trkpt lat="47.26302" lon="-1.65429">
        <ele>65.5</ele>
        <time>2013-08-07T17:08:02Z</time>
      </trkpt>
      <trkpt lat="47.26318" lon="-1.6543">
        <ele>64.7</ele>
        <time>2013-08-07T17:08:04Z</time>
      </trkpt>
      <trkpt lat="47.26335" lon="-1.65432">
        <ele>63.9</ele>
        <time>2013-08-07T17:08:06Z</time>
      </trkpt>
      <trkpt lat="47.26352" lon="-1.65434">
        <ele>62.7</ele>
        <time>2013-08-07T17:08:08Z</time>
      </trkpt>
      <trkpt lat="47.26361" lon="-1.65435">
        <ele>62.3</ele>
        <time>2013-08-07T17:08:09Z</time>
      </trkpt>
      <trkpt lat="47.26378" lon="-1.65437">
        <ele>60.6</ele>
        <time>2013-08-07T17:08:11Z</time>
      </trkpt>
      <trkpt lat="47.26395" lon="-1.65441">
        <ele>58.7</ele>
        <time>2013-08-07T17:08:13Z</time>
      </trkpt>
      <trkpt lat="47.26412" lon="-1.65446">
        <ele>57.4</ele>
        <time>2013-08-07T17:08:15Z</time>
      </trkpt>
      <trkpt lat="47.26423" lon="-1.6545">
        <ele>56.5</ele>
        <time>2013-08-07T17:08:16Z</time>
      </trkpt>
      <trkpt lat="47.26431" lon="-1.65454">
        <ele>55.9</ele>
        <time>2013-08-07T17:08:17Z</time>
      </trkpt>
      <trkpt lat="47.26448" lon="-1.65463">
        <ele>54.6</ele>
        <time>2013-08-07T17:08:19Z</time>
      </trkpt>
      <trkpt lat="47.26464" lon="-1.65473">
        <ele>53.3</ele>
        <time>2013-08-07T17:08:21Z</time>
      </trkpt>
      <trkpt lat="47.26472" lon="-1.65479">
        <ele>53.2</ele>
        <time>2013-08-07T17:08:22Z</time>
      </trkpt>
      <trkpt lat="47.2648" lon="-1.65486">
        <ele>52.9</ele>
        <time>2013-08-07T17:08:23Z</time>
      </trkpt>
      <trkpt lat="47.26495" lon="-1.65499">
        <ele>52</ele>
        <time>2013-08-07T17:08:25Z</time>
      </trkpt>
      <trkpt lat="47.26503" lon="-1.65506">
        <ele>51.4</ele>
        <time>2013-08-07T17:08:26Z</time>
      </trkpt>
      <trkpt lat="47.26511" lon="-1.65513">
        <ele>51.3</ele>
        <time>2013-08-07T17:08:27Z</time>
      </trkpt>
      <trkpt lat="47.26526" lon="-1.65525">
        <ele>51.3</ele>
        <time>2013-08-07T17:08:29Z</time>
      </trkpt>
      <trkpt lat="47.26542" lon="-1.65528">
        <ele>51.3</ele>
        <time>2013-08-07T17:08:31Z</time>
      </trkpt>
      <trkpt lat="47.26559" lon="-1.65527">
        <ele>51.2</ele>
        <time>2013-08-07T17:08:33Z</time>
      </trkpt>
      <trkpt lat="47.26573" lon="-1.65526">
        <ele>51.3</ele>
        <time>2013-08-07T17:08:35Z</time>
      </trkpt>
      <trkpt lat="47.26589" lon="-1.65524">
        <ele>50.9</ele>
        <time>2013-08-07T17:08:37Z</time>
      </trkpt>
      <trkpt lat="47.26606" lon="-1.65521">
        <ele>49.7</ele>
        <time>2013-08-07T17:08:39Z</time>
      </trkpt>
      <trkpt lat="47.26621" lon="-1.65521">
        <ele>48.6</ele>
        <time>2013-08-07T17:08:41Z</time>
      </trkpt>
      <trkpt lat="47.26634" lon="-1.65528">
        <ele>48.5</ele>
        <time>2013-08-07T17:08:43Z</time>
      </trkpt>
      <trkpt lat="47.26644" lon="-1.65534">
        <ele>47.8</ele>
        <time>2013-08-07T17:08:45Z</time>
      </trkpt>
      <trkpt lat="47.26654" lon="-1.65543">
        <ele>47.7</ele>
        <time>2013-08-07T17:08:49Z</time>
      </trkpt>
      <trkpt lat="47.26665" lon="-1.65555">
        <ele>47.3</ele>
        <time>2013-08-07T17:08:58Z</time>
      </trkpt>
      <trkpt lat="47.26674" lon="-1.65555">
        <ele>47.2</ele>
        <time>2013-08-07T17:09:02Z</time>
      </trkpt>
      <trkpt lat="47.26684" lon="-1.65562">
        <ele>47.1</ele>
        <time>2013-08-07T17:09:06Z</time>
      </trkpt>
      <trkpt lat="47.26695" lon="-1.65569">
        <ele>46.1</ele>
        <time>2013-08-07T17:09:09Z</time>
      </trkpt>
      <trkpt lat="47.26707" lon="-1.65576">
        <ele>44.9</ele>
        <time>2013-08-07T17:09:12Z</time>
      </trkpt>
      <trkpt lat="47.26715" lon="-1.65581">
        <ele>43.5</ele>
        <time>2013-08-07T17:09:14Z</time>
      </trkpt>
      <trkpt lat="47.26728" lon="-1.65582">
        <ele>42.4</ele>
        <time>2013-08-07T17:09:17Z</time>
      </trkpt>
      <trkpt lat="47.26738" lon="-1.65576">
        <ele>42.1</ele>
        <time>2013-08-07T17:09:19Z</time>
      </trkpt>
      <trkpt lat="47.26748" lon="-1.65567">
        <ele>41</ele>
        <time>2013-08-07T17:09:21Z</time>
      </trkpt>
      <trkpt lat="47.26757" lon="-1.65556">
        <ele>39.6</ele>
        <time>2013-08-07T17:09:23Z</time>
      </trkpt>
      <trkpt lat="47.26765" lon="-1.65543">
        <ele>38.3</ele>
        <time>2013-08-07T17:09:25Z</time>
      </trkpt>
      <trkpt lat="47.26773" lon="-1.65535">
        <ele>37.8</ele>
        <time>2013-08-07T17:09:28Z</time>
      </trkpt>
      <trkpt lat="47.26783" lon="-1.65542">
        <ele>36.9</ele>
        <time>2013-08-07T17:11:13Z</time>
      </trkpt>
      <trkpt lat="47.26796" lon="-1.6554">
        <ele>35.3</ele>
        <time>2013-08-07T17:11:16Z</time>
      </trkpt>
      <trkpt lat="47.26807" lon="-1.65538">
        <ele>33.6</ele>
        <time>2013-08-07T17:11:18Z</time>
      </trkpt>
      <trkpt lat="47.26818" lon="-1.65535">
        <ele>31.7</ele>
        <time>2013-08-07T17:11:20Z</time>
      </trkpt>
      <trkpt lat="47.26828" lon="-1.65532">
        <ele>29.5</ele>
        <time>2013-08-07T17:11:22Z</time>
      </trkpt>
      <trkpt lat="47.26833" lon="-1.65544">
        <ele>28.1</ele>
        <time>2013-08-07T17:11:58Z</time>
      </trkpt>
      <trkpt lat="47.26833" lon="-1.65559">
        <ele>26.9</ele>
        <time>2013-08-07T17:12:03Z</time>
      </trkpt>
      <trkpt lat="47.26834" lon="-1.65574">
        <ele>26.8</ele>
        <time>2013-08-07T17:12:06Z</time>
      </trkpt>
      <trkpt lat="47.26839" lon="-1.65588">
        <ele>26.3</ele>
        <time>2013-08-07T17:12:11Z</time>
      </trkpt>
      <trkpt lat="47.26843" lon="-1.65604">
        <ele>24.9</ele>
        <time>2013-08-07T17:12:14Z</time>
      </trkpt>
      <trkpt lat="47.26852" lon="-1.65613">
        <ele>24.8</ele>
        <time>2013-08-07T17:12:23Z</time>
      </trkpt>
      <trkpt lat="47.2686" lon="-1.65626">
        <ele>27.1</ele>
        <time>2013-08-07T17:12:40Z</time>
      </trkpt>
      <trkpt lat="47.26868" lon="-1.65635">
        <ele>27.7</ele>
        <time>2013-08-07T17:12:45Z</time>
      </trkpt>
      <trkpt lat="47.26873" lon="-1.65648">
        <ele>28.4</ele>
        <time>2013-08-07T17:12:52Z</time>
      </trkpt>
      <trkpt lat="47.26871" lon="-1.65663">
        <ele>28.7</ele>
        <time>2013-08-07T17:12:55Z</time>
      </trkpt>
      <trkpt lat="47.26867" lon="-1.65681">
        <ele>28.7</ele>
        <time>2013-08-07T17:13:00Z</time>
      </trkpt>
      <trkpt lat="47.26861" lon="-1.65694">
        <ele>28.5</ele>
        <time>2013-08-07T17:13:03Z</time>
      </trkpt>
      <trkpt lat="47.26855" lon="-1.65704">
        <ele>28.5</ele>
        <time>2013-08-07T17:13:06Z</time>
      </trkpt>
      <trkpt lat="47.2685" lon="-1.65716">
        <ele>28.2</ele>
        <time>2013-08-07T17:13:10Z</time>
      </trkpt>
      <trkpt lat="47.26844" lon="-1.65731">
        <ele>27.5</ele>
        <time>2013-08-07T17:13:16Z</time>
      </trkpt>
      <trkpt lat="47.2684" lon="-1.6575">
        <ele>26.4</ele>
        <time>2013-08-07T17:13:24Z</time>
      </trkpt>
      <trkpt lat="47.2683" lon="-1.65759">
        <ele>26.4</ele>
        <time>2013-08-07T17:13:28Z</time>
      </trkpt>
      <trkpt lat="47.2682" lon="-1.65763">
        <ele>26.2</ele>
        <time>2013-08-07T17:13:32Z</time>
      </trkpt>
      <trkpt lat="47.26812" lon="-1.65769">
        <ele>26.2</ele>
        <time>2013-08-07T17:13:35Z</time>
      </trkpt>
      <trkpt lat="47.26803" lon="-1.65777">
        <ele>26.1</ele>
        <time>2013-08-07T17:13:38Z</time>
      </trkpt>
      <trkpt lat="47.26795" lon="-1.65785">
        <ele>25.9</ele>
        <time>2013-08-07T17:13:41Z</time>
      </trkpt>
      <trkpt lat="47.26788" lon="-1.65795">
        <ele>24.9</ele>
        <time>2013-08-07T17:13:46Z</time>
      </trkpt>
      <trkpt lat="47.2678" lon="-1.65807">
        <ele>23.7</ele>
        <time>2013-08-07T17:13:50Z</time>
      </trkpt>
      <trkpt lat="47.26772" lon="-1.65819">
        <ele>22.4</ele>
        <time>2013-08-07T17:13:55Z</time>
      </trkpt>
      <trkpt lat="47.26764" lon="-1.65827">
        <ele>20.8</ele>
        <time>2013-08-07T17:14:04Z</time>
      </trkpt>
      <trkpt lat="47.26753" lon="-1.65833">
        <ele>20.3</ele>
        <time>2013-08-07T17:14:07Z</time>
      </trkpt>
      <trkpt lat="47.26744" lon="-1.65843">
        <ele>19.9</ele>
        <time>2013-08-07T17:14:10Z</time>
      </trkpt>
      <trkpt lat="47.26734" lon="-1.65849">
        <ele>19.6</ele>
        <time>2013-08-07T17:14:14Z</time>
      </trkpt>
      <trkpt lat="47.26724" lon="-1.65853">
        <ele>19.7</ele>
        <time>2013-08-07T17:14:19Z</time>
      </trkpt>
      <trkpt lat="47.26716" lon="-1.65861">
        <ele>19.9</ele>
        <time>2013-08-07T17:14:23Z</time>
      </trkpt>
      <trkpt lat="47.26705" lon="-1.65868">
        <ele>20.2</ele>
        <time>2013-08-07T17:14:27Z</time>
      </trkpt>
      <trkpt lat="47.26696" lon="-1.65873">
        <ele>20.4</ele>
        <time>2013-08-07T17:14:31Z</time>
      </trkpt>
      <trkpt lat="47.26684" lon="-1.65877">
        <ele>20.4</ele>
        <time>2013-08-07T17:14:35Z</time>
      </trkpt>
      <trkpt lat="47.26671" lon="-1.6588">
        <ele>20.2</ele>
        <time>2013-08-07T17:14:39Z</time>
      </trkpt>
      <trkpt lat="47.26661" lon="-1.65879">
        <ele>19.8</ele>
        <time>2013-08-07T17:14:44Z</time>
      </trkpt>
      <trkpt lat="47.26651" lon="-1.6588">
        <ele>20.3</ele>
        <time>2013-08-07T17:14:49Z</time>
      </trkpt>
      <trkpt lat="47.26641" lon="-1.6588">
        <ele>20.9</ele>
        <time>2013-08-07T17:14:53Z</time>
      </trkpt>
      <trkpt lat="47.26632" lon="-1.65871">
        <ele>21.1</ele>
        <time>2013-08-07T17:14:57Z</time>
      </trkpt>
      <trkpt lat="47.26622" lon="-1.65869">
        <ele>21.2</ele>
        <time>2013-08-07T17:15:00Z</time>
      </trkpt>
      <trkpt lat="47.26613" lon="-1.65865">
        <ele>21.1</ele>
        <time>2013-08-07T17:15:04Z</time>
      </trkpt>
      <trkpt lat="47.26603" lon="-1.65863">
        <ele>20.6</ele>
        <time>2013-08-07T17:15:08Z</time>
      </trkpt>
      <trkpt lat="47.26592" lon="-1.65859">
        <ele>20.1</ele>
        <time>2013-08-07T17:15:13Z</time>
      </trkpt>
      <trkpt lat="47.26583" lon="-1.65862">
        <ele>19.3</ele>
        <time>2013-08-07T17:15:22Z</time>
      </trkpt>
      <trkpt lat="47.2658" lon="-1.65876">
        <ele>18.3</ele>
        <time>2013-08-07T17:15:31Z</time>
      </trkpt>
      <trkpt lat="47.26573" lon="-1.65888">
        <ele>17.3</ele>
        <time>2013-08-07T17:15:39Z</time>
      </trkpt>
      <trkpt lat="47.26562" lon="-1.65899">
        <ele>17</ele>
        <time>2013-08-07T17:15:42Z</time>
      </trkpt>
      <trkpt lat="47.26554" lon="-1.65904">
        <ele>16.8</ele>
        <time>2013-08-07T17:15:44Z</time>
      </trkpt>
      <trkpt lat="47.26542" lon="-1.65908">
        <ele>16.4</ele>
        <time>2013-08-07T17:15:48Z</time>
      </trkpt>
      <trkpt lat="47.26535" lon="-1.65919">
        <ele>15.5</ele>
        <time>2013-08-07T17:15:55Z</time>
      </trkpt>
      <trkpt lat="47.26534" lon="-1.65934">
        <ele>14.9</ele>
        <time>2013-08-07T17:16:02Z</time>
      </trkpt>
      <trkpt lat="47.26535" lon="-1.65947">
        <ele>15.1</ele>
        <time>2013-08-07T17:16:06Z</time>
      </trkpt>
      <trkpt lat="47.26534" lon="-1.65965">
        <ele>15.5</ele>
        <time>2013-08-07T17:16:10Z</time>
      </trkpt>
      <trkpt lat="47.26536" lon="-1.65983">
        <ele>15.6</ele>
        <time>2013-08-07T17:16:15Z</time>
      </trkpt>
      <trkpt lat="47.26536" lon="-1.65998">
        <ele>15.5</ele>
        <time>2013-08-07T17:16:19Z</time>
      </trkpt>
      <trkpt lat="47.26537" lon="-1.66012">
        <ele>15.6</ele>
        <time>2013-08-07T17:16:23Z</time>
      </trkpt>
      <trkpt lat="47.26546" lon="-1.66024">
        <ele>15.9</ele>
        <time>2013-08-07T17:16:27Z</time>
      </trkpt>
      <trkpt lat="47.26555" lon="-1.6603">
        <ele>16.4</ele>
        <time>2013-08-07T17:16:30Z</time>
      </trkpt>
      <trkpt lat="47.26565" lon="-1.66032">
        <ele>17.2</ele>
        <time>2013-08-07T17:16:34Z</time>
      </trkpt>
      <trkpt lat="47.26575" lon="-1.6604">
        <ele>19.3</ele>
        <time>2013-08-07T17:16:40Z</time>
      </trkpt>
      <trkpt lat="47.26582" lon="-1.66048">
        <ele>20.4</ele>
        <time>2013-08-07T17:16:43Z</time>
      </trkpt>
      <trkpt lat="47.26593" lon="-1.66055">
        <ele>21.8</ele>
        <time>2013-08-07T17:16:48Z</time>
      </trkpt>
      <trkpt lat="47.26602" lon="-1.66061">
        <ele>23</ele>
        <time>2013-08-07T17:16:52Z</time>
      </trkpt>
      <trkpt lat="47.26611" lon="-1.66069">
        <ele>23.8</ele>
        <time>2013-08-07T17:16:56Z</time>
      </trkpt>
      <trkpt lat="47.26621" lon="-1.66075">
        <ele>24.8</ele>
        <time>2013-08-07T17:16:59Z</time>
      </trkpt>
      <trkpt lat="47.2663" lon="-1.66083">
        <ele>25.5</ele>
        <time>2013-08-07T17:17:01Z</time>
      </trkpt>
      <trkpt lat="47.26637" lon="-1.66093">
        <ele>26.1</ele>
        <time>2013-08-07T17:17:03Z</time>
      </trkpt>
      <trkpt lat="47.26643" lon="-1.66112">
        <ele>26.7</ele>
        <time>2013-08-07T17:17:06Z</time>
      </trkpt>
      <trkpt lat="47.26645" lon="-1.66127">
        <ele>27</ele>
        <time>2013-08-07T17:17:10Z</time>
      </trkpt>
      <trkpt lat="47.26646" lon="-1.66143">
        <ele>27.4</ele>
        <time>2013-08-07T17:17:14Z</time>
      </trkpt>
      <trkpt lat="47.26647" lon="-1.66157">
        <ele>28</ele>
        <time>2013-08-07T17:17:20Z</time>
      </trkpt>
      <trkpt lat="47.26657" lon="-1.66157">
        <ele>33.5</ele>
        <time>2013-08-07T17:19:40Z</time>
      </trkpt>
      <trkpt lat="47.26664" lon="-1.66165">
        <ele>36.8</ele>
        <time>2013-08-07T17:19:50Z</time>
      </trkpt>
      <trkpt lat="47.26667" lon="-1.66181">
        <ele>38.4</ele>
        <time>2013-08-07T17:19:57Z</time>
      </trkpt>
      <trkpt lat="47.2667" lon="-1.66195">
        <ele>39.5</ele>
        <time>2013-08-07T17:20:02Z</time>
      </trkpt>
      <trkpt lat="47.26673" lon="-1.66209">
        <ele>40.5</ele>
        <time>2013-08-07T17:20:07Z</time>
      </trkpt>
      <trkpt lat="47.26675" lon="-1.66223">
        <ele>41.3</ele>
        <time>2013-08-07T17:20:11Z</time>
      </trkpt>
      <trkpt lat="47.26678" lon="-1.66237">
        <ele>42.4</ele>
        <time>2013-08-07T17:20:17Z</time>
      </trkpt>
      <trkpt lat="47.26681" lon="-1.66251">
        <ele>43.7</ele>
        <time>2013-08-07T17:20:24Z</time>
      </trkpt>
      <trkpt lat="47.26689" lon="-1.66259">
        <ele>45</ele>
        <time>2013-08-07T17:20:31Z</time>
      </trkpt>
      <trkpt lat="47.26698" lon="-1.66264">
        <ele>45.8</ele>
        <time>2013-08-07T17:20:39Z</time>
      </trkpt>
      <trkpt lat="47.26707" lon="-1.66267">
        <ele>46.6</ele>
        <time>2013-08-07T17:20:48Z</time>
      </trkpt>
      <trkpt lat="47.26716" lon="-1.66272">
        <ele>48.5</ele>
        <time>2013-08-07T17:20:56Z</time>
      </trkpt>
      <trkpt lat="47.26725" lon="-1.66277">
        <ele>50.1</ele>
        <time>2013-08-07T17:21:04Z</time>
      </trkpt>
      <trkpt lat="47.26732" lon="-1.66289">
        <ele>50.4</ele>
        <time>2013-08-07T17:21:11Z</time>
      </trkpt>
      <trkpt lat="47.26737" lon="-1.66301">
        <ele>50.4</ele>
        <time>2013-08-07T17:21:17Z</time>
      </trkpt>
      <trkpt lat="47.26741" lon="-1.66315">
        <ele>50</ele>
        <time>2013-08-07T17:21:23Z</time>
      </trkpt>
      <trkpt lat="47.26748" lon="-1.66324">
        <ele>49.8</ele>
        <time>2013-08-07T17:21:27Z</time>
      </trkpt>
      <trkpt lat="47.26758" lon="-1.66327">
        <ele>49.5</ele>
        <time>2013-08-07T17:21:32Z</time>
      </trkpt>
      <trkpt lat="47.26769" lon="-1.66332">
        <ele>50.1</ele>
        <time>2013-08-07T17:21:37Z</time>
      </trkpt>
      <trkpt lat="47.26776" lon="-1.66343">
        <ele>50.7</ele>
        <time>2013-08-07T17:21:42Z</time>
      </trkpt>
      <trkpt lat="47.26786" lon="-1.66346">
        <ele>50.8</ele>
        <time>2013-08-07T17:21:46Z</time>
      </trkpt>
      <trkpt lat="47.26794" lon="-1.6635">
        <ele>50.8</ele>
        <time>2013-08-07T17:21:51Z</time>
      </trkpt>
      <trkpt lat="47.26805" lon="-1.66354">
        <ele>51</ele>
        <time>2013-08-07T17:21:56Z</time>
      </trkpt>
      <trkpt lat="47.26815" lon="-1.66356">
        <ele>51.3</ele>
        <time>2013-08-07T17:21:59Z</time>
      </trkpt>
      <trkpt lat="47.26824" lon="-1.6636">
        <ele>51.8</ele>
        <time>2013-08-07T17:22:04Z</time>
      </trkpt>
      <trkpt lat="47.26834" lon="-1.66363">
        <ele>51.8</ele>
        <time>2013-08-07T17:22:09Z</time>
      </trkpt>
      <trkpt lat="47.26843" lon="-1.66366">
        <ele>51.9</ele>
        <time>2013-08-07T17:22:13Z</time>
      </trkpt>
      <trkpt lat="47.26852" lon="-1.66369">
        <ele>51.9</ele>
        <time>2013-08-07T17:22:18Z</time>
      </trkpt>
      <trkpt lat="47.26862" lon="-1.66373">
        <ele>52</ele>
        <time>2013-08-07T17:22:22Z</time>
      </trkpt>
      <trkpt lat="47.26873" lon="-1.66378">
        <ele>51.9</ele>
        <time>2013-08-07T17:22:26Z</time>
      </trkpt>
      <trkpt lat="47.26884" lon="-1.66378">
        <ele>52.1</ele>
        <time>2013-08-07T17:22:30Z</time>
      </trkpt>
      <trkpt lat="47.26895" lon="-1.66379">
        <ele>52.3</ele>
        <time>2013-08-07T17:22:35Z</time>
      </trkpt>
      <trkpt lat="47.26906" lon="-1.66382">
        <ele>52.9</ele>
        <time>2013-08-07T17:22:40Z</time>
      </trkpt>
      <trkpt lat="47.26917" lon="-1.66384">
        <ele>53.2</ele>
        <time>2013-08-07T17:22:44Z</time>
      </trkpt>
      <trkpt lat="47.26928" lon="-1.66389">
        <ele>53.6</ele>
        <time>2013-08-07T17:22:48Z</time>
      </trkpt>
      <trkpt lat="47.26939" lon="-1.66391">
        <ele>53.8</ele>
        <time>2013-08-07T17:22:52Z</time>
      </trkpt>
      <trkpt lat="47.26948" lon="-1.66393">
        <ele>54.1</ele>
        <time>2013-08-07T17:22:57Z</time>
      </trkpt>
      <trkpt lat="47.26958" lon="-1.66396">
        <ele>54.4</ele>
        <time>2013-08-07T17:23:02Z</time>
      </trkpt>
      <trkpt lat="47.26967" lon="-1.66396">
        <ele>55</ele>
        <time>2013-08-07T17:23:08Z</time>
      </trkpt>
      <trkpt lat="47.26958" lon="-1.66396">
        <ele>55.9</ele>
        <time>2013-08-07T17:23:30Z</time>
      </trkpt>
      <trkpt lat="47.26948" lon="-1.66394">
        <ele>56.5</ele>
        <time>2013-08-07T17:23:35Z</time>
      </trkpt>
      <trkpt lat="47.26937" lon="-1.66391">
        <ele>56.9</ele>
        <time>2013-08-07T17:23:40Z</time>
      </trkpt>
      <trkpt lat="47.26926" lon="-1.66388">
        <ele>57.1</ele>
        <time>2013-08-07T17:23:45Z</time>
      </trkpt>
      <trkpt lat="47.26915" lon="-1.66384">
        <ele>57.7</ele>
        <time>2013-08-07T17:23:50Z</time>
      </trkpt>
      <trkpt lat="47.26906" lon="-1.66383">
        <ele>58.1</ele>
        <time>2013-08-07T17:23:56Z</time>
      </trkpt>
      <trkpt lat="47.26897" lon="-1.66379">
        <ele>58.4</ele>
        <time>2013-08-07T17:24:02Z</time>
      </trkpt>
      <trkpt lat="47.26888" lon="-1.66375">
        <ele>56.5</ele>
        <time>2013-08-07T17:25:19Z</time>
      </trkpt>
      <trkpt lat="47.26886" lon="-1.66389">
        <ele>56.1</ele>
        <time>2013-08-07T17:25:25Z</time>
      </trkpt>
      <trkpt lat="47.26893" lon="-1.66401">
        <ele>55.6</ele>
        <time>2013-08-07T17:25:31Z</time>
      </trkpt>
      <trkpt lat="47.26898" lon="-1.66413">
        <ele>55.5</ele>
        <time>2013-08-07T17:25:35Z</time>
      </trkpt>
      <trkpt lat="47.269" lon="-1.66427">
        <ele>55.3</ele>
        <time>2013-08-07T17:25:39Z</time>
      </trkpt>
      <trkpt lat="47.26903" lon="-1.66443">
        <ele>55.1</ele>
        <time>2013-08-07T17:25:43Z</time>
      </trkpt>
      <trkpt lat="47.26904" lon="-1.66459">
        <ele>54.8</ele>
        <time>2013-08-07T17:25:47Z</time>
      </trkpt>
      <trkpt lat="47.26905" lon="-1.66473">
        <ele>54.6</ele>
        <time>2013-08-07T17:25:50Z</time>
      </trkpt>
      <trkpt lat="47.26908" lon="-1.66487">
        <ele>54.5</ele>
        <time>2013-08-07T17:25:53Z</time>
      </trkpt>
      <trkpt lat="47.26915" lon="-1.66502">
        <ele>54.1</ele>
        <time>2013-08-07T17:25:56Z</time>
      </trkpt>
      <trkpt lat="47.26924" lon="-1.66508">
        <ele>53.6</ele>
        <time>2013-08-07T17:26:00Z</time>
      </trkpt>
      <trkpt lat="47.26933" lon="-1.6651">
        <ele>52.7</ele>
        <time>2013-08-07T17:26:04Z</time>
      </trkpt>
      <trkpt lat="47.26945" lon="-1.66511">
        <ele>53</ele>
        <time>2013-08-07T17:26:08Z</time>
      </trkpt>
      <trkpt lat="47.26955" lon="-1.66512">
        <ele>53.2</ele>
        <time>2013-08-07T17:26:11Z</time>
      </trkpt>
      <trkpt lat="47.26966" lon="-1.66512">
        <ele>53.4</ele>
        <time>2013-08-07T17:26:15Z</time>
      </trkpt>
      <trkpt lat="47.26978" lon="-1.66512">
        <ele>53.5</ele>
        <time>2013-08-07T17:26:19Z</time>
      </trkpt>
      <trkpt lat="47.26989" lon="-1.6651">
        <ele>53.6</ele>
        <time>2013-08-07T17:26:22Z</time>
      </trkpt>
      <trkpt lat="47.26999" lon="-1.6651">
        <ele>53.7</ele>
        <time>2013-08-07T17:26:25Z</time>
      </trkpt>
      <trkpt lat="47.27009" lon="-1.66509">
        <ele>54</ele>
        <time>2013-08-07T17:26:29Z</time>
      </trkpt>
      <trkpt lat="47.2702" lon="-1.6651">
        <ele>54</ele>
        <time>2013-08-07T17:26:34Z</time>
      </trkpt>
      <trkpt lat="47.27029" lon="-1.66513">
        <ele>53.5</ele>
        <time>2013-08-07T17:26:59Z</time>
      </trkpt>
      <trkpt lat="47.27039" lon="-1.66517">
        <ele>53.4</ele>
        <time>2013-08-07T17:27:06Z</time>
      </trkpt>
      <trkpt lat="47.27049" lon="-1.66523">
        <ele>53.6</ele>
        <time>2013-08-07T17:27:11Z</time>
      </trkpt>
      <trkpt lat="47.27059" lon="-1.66529">
        <ele>53.7</ele>
        <time>2013-08-07T17:27:15Z</time>
      </trkpt>
      <trkpt lat="47.27069" lon="-1.66533">
        <ele>53.6</ele>
        <time>2013-08-07T17:27:18Z</time>
      </trkpt>
      <trkpt lat="47.27077" lon="-1.66538">
        <ele>53.6</ele>
        <time>2013-08-07T17:27:21Z</time>
      </trkpt>
      <trkpt lat="47.27086" lon="-1.66543">
        <ele>53.8</ele>
        <time>2013-08-07T17:27:25Z</time>
      </trkpt>
      <trkpt lat="47.27096" lon="-1.6655">
        <ele>54.2</ele>
        <time>2013-08-07T17:27:30Z</time>
      </trkpt>
      <trkpt lat="47.27107" lon="-1.66556">
        <ele>54.5</ele>
        <time>2013-08-07T17:27:34Z</time>
      </trkpt>
      <trkpt lat="47.27117" lon="-1.66562">
        <ele>54.5</ele>
        <time>2013-08-07T17:27:38Z</time>
      </trkpt>
      <trkpt lat="47.27125" lon="-1.66569">
        <ele>54.4</ele>
        <time>2013-08-07T17:27:41Z</time>
      </trkpt>
      <trkpt lat="47.27133" lon="-1.66576">
        <ele>54.5</ele>
        <time>2013-08-07T17:27:44Z</time>
      </trkpt>
      <trkpt lat="47.27141" lon="-1.66584">
        <ele>54.8</ele>
        <time>2013-08-07T17:27:47Z</time>
      </trkpt>
      <trkpt lat="47.2715" lon="-1.66592">
        <ele>55</ele>
        <time>2013-08-07T17:27:51Z</time>
      </trkpt>
      <trkpt lat="47.27159" lon="-1.66599">
        <ele>55.2</ele>
        <time>2013-08-07T17:27:55Z</time>
      </trkpt>
      <trkpt lat="47.27168" lon="-1.66606">
        <ele>55.4</ele>
        <time>2013-08-07T17:27:59Z</time>
      </trkpt>
      <trkpt lat="47.27179" lon="-1.66613">
        <ele>55.3</ele>
        <time>2013-08-07T17:28:03Z</time>
      </trkpt>
      <trkpt lat="47.2719" lon="-1.66618">
        <ele>55.2</ele>
        <time>2013-08-07T17:28:07Z</time>
      </trkpt>
      <trkpt lat="47.272" lon="-1.66621">
        <ele>55.2</ele>
        <time>2013-08-07T17:28:11Z</time>
      </trkpt>
      <trkpt lat="47.2721" lon="-1.66623">
        <ele>55.3</ele>
        <time>2013-08-07T17:28:14Z</time>
      </trkpt>
      <trkpt lat="47.27221" lon="-1.66626">
        <ele>55.4</ele>
        <time>2013-08-07T17:28:17Z</time>
      </trkpt>
      <trkpt lat="47.27233" lon="-1.66629">
        <ele>55.5</ele>
        <time>2013-08-07T17:28:21Z</time>
      </trkpt>
      <trkpt lat="47.27242" lon="-1.66631">
        <ele>55.5</ele>
        <time>2013-08-07T17:28:24Z</time>
      </trkpt>
      <trkpt lat="47.27253" lon="-1.66634">
        <ele>55.5</ele>
        <time>2013-08-07T17:28:28Z</time>
      </trkpt>
      <trkpt lat="47.27262" lon="-1.66636">
        <ele>55.7</ele>
        <time>2013-08-07T17:28:31Z</time>
      </trkpt>
      <trkpt lat="47.27272" lon="-1.66636">
        <ele>55.8</ele>
        <time>2013-08-07T17:28:34Z</time>
      </trkpt>
      <trkpt lat="47.27281" lon="-1.66639">
        <ele>55.8</ele>
        <time>2013-08-07T17:28:38Z</time>
      </trkpt>
      <trkpt lat="47.27292" lon="-1.66641">
        <ele>56.3</ele>
        <time>2013-08-07T17:28:42Z</time>
      </trkpt>
      <trkpt lat="47.27303" lon="-1.66641">
        <ele>56.9</ele>
        <time>2013-08-07T17:28:46Z</time>
      </trkpt>
      <trkpt lat="47.27313" lon="-1.66637">
        <ele>57.5</ele>
        <time>2013-08-07T17:29:09Z</time>
      </trkpt>
      <trkpt lat="47.27323" lon="-1.66643">
        <ele>58.2</ele>
        <time>2013-08-07T17:29:15Z</time>
      </trkpt>
      <trkpt lat="47.27334" lon="-1.66645">
        <ele>58.5</ele>
        <time>2013-08-07T17:29:18Z</time>
      </trkpt>
      <trkpt lat="47.27347" lon="-1.66647">
        <ele>58.7</ele>
        <time>2013-08-07T17:29:21Z</time>
      </trkpt>
      <trkpt lat="47.27356" lon="-1.66648">
        <ele>59.2</ele>
        <time>2013-08-07T17:29:23Z</time>
      </trkpt>
      <trkpt lat="47.27365" lon="-1.66648">
        <ele>59</ele>
        <time>2013-08-07T17:29:25Z</time>
      </trkpt>
      <trkpt lat="47.27374" lon="-1.66648">
        <ele>58.9</ele>
        <time>2013-08-07T17:29:27Z</time>
      </trkpt>
      <trkpt lat="47.27385" lon="-1.66649">
        <ele>59.3</ele>
        <time>2013-08-07T17:29:29Z</time>
      </trkpt>
      <trkpt lat="47.27395" lon="-1.66649">
        <ele>59.8</ele>
        <time>2013-08-07T17:29:31Z</time>
      </trkpt>
      <trkpt lat="47.27406" lon="-1.6665">
        <ele>60.2</ele>
        <time>2013-08-07T17:29:33Z</time>
      </trkpt>
      <trkpt lat="47.27417" lon="-1.66651">
        <ele>60.3</ele>
        <time>2013-08-07T17:29:36Z</time>
      </trkpt>
      <trkpt lat="47.27422" lon="-1.66636">
        <ele>61.2</ele>
        <time>2013-08-07T17:30:11Z</time>
      </trkpt>
      <trkpt lat="47.27433" lon="-1.66621">
        <ele>62.3</ele>
        <time>2013-08-07T17:30:15Z</time>
      </trkpt>
      <trkpt lat="47.27442" lon="-1.6661">
        <ele>62.1</ele>
        <time>2013-08-07T17:30:18Z</time>
      </trkpt>
      <trkpt lat="47.27449" lon="-1.666">
        <ele>62.6</ele>
        <time>2013-08-07T17:30:20Z</time>
      </trkpt>
      <trkpt lat="47.27454" lon="-1.66588">
        <ele>63.9</ele>
        <time>2013-08-07T17:30:22Z</time>
      </trkpt>
      <trkpt lat="47.27461" lon="-1.6658">
        <ele>63.6</ele>
        <time>2013-08-07T17:30:24Z</time>
      </trkpt>
      <trkpt lat="47.27471" lon="-1.6657">
        <ele>62.9</ele>
        <time>2013-08-07T17:30:27Z</time>
      </trkpt>
      <trkpt lat="47.2748" lon="-1.66562">
        <ele>62.7</ele>
        <time>2013-08-07T17:30:31Z</time>
      </trkpt>
      <trkpt lat="47.27489" lon="-1.66558">
        <ele>62.7</ele>
        <time>2013-08-07T17:30:35Z</time>
      </trkpt>
      <trkpt lat="47.27503" lon="-1.66565">
        <ele>63</ele>
        <time>2013-08-07T17:30:49Z</time>
      </trkpt>
      <trkpt lat="47.27493" lon="-1.66574">
        <ele>63.8</ele>
        <time>2013-08-07T17:30:57Z</time>
      </trkpt>
      <trkpt lat="47.27486" lon="-1.66584">
        <ele>64.2</ele>
        <time>2013-08-07T17:31:01Z</time>
      </trkpt>
      <trkpt lat="47.27477" lon="-1.66593">
        <ele>64.7</ele>
        <time>2013-08-07T17:31:04Z</time>
      </trkpt>
      <trkpt lat="47.2747" lon="-1.66602">
        <ele>64.7</ele>
        <time>2013-08-07T17:31:07Z</time>
      </trkpt>
      <trkpt lat="47.27461" lon="-1.66611">
        <ele>64.8</ele>
        <time>2013-08-07T17:31:10Z</time>
      </trkpt>
      <trkpt lat="47.27453" lon="-1.6662">
        <ele>65.3</ele>
        <time>2013-08-07T17:31:13Z</time>
      </trkpt>
      <trkpt lat="47.27446" lon="-1.66629">
        <ele>65.7</ele>
        <time>2013-08-07T17:31:16Z</time>
      </trkpt>
      <trkpt lat="47.27438" lon="-1.66638">
        <ele>66.2</ele>
        <time>2013-08-07T17:31:19Z</time>
      </trkpt>
      <trkpt lat="47.27431" lon="-1.66648">
        <ele>66.4</ele>
        <time>2013-08-07T17:31:22Z</time>
      </trkpt>
      <trkpt lat="47.2743" lon="-1.66662">
        <ele>66.4</ele>
        <time>2013-08-07T17:31:25Z</time>
      </trkpt>
      <trkpt lat="47.27435" lon="-1.66674">
        <ele>66.5</ele>
        <time>2013-08-07T17:31:28Z</time>
      </trkpt>
      <trkpt lat="47.27444" lon="-1.66685">
        <ele>66.3</ele>
        <time>2013-08-07T17:31:32Z</time>
      </trkpt>
      <trkpt lat="47.27453" lon="-1.66687">
        <ele>64.5</ele>
        <time>2013-08-07T17:31:35Z</time>
      </trkpt>
      <trkpt lat="47.27464" lon="-1.66688">
        <ele>63.5</ele>
        <time>2013-08-07T17:31:38Z</time>
      </trkpt>
      <trkpt lat="47.27474" lon="-1.66689">
        <ele>64</ele>
        <time>2013-08-07T17:31:41Z</time>
      </trkpt>
      <trkpt lat="47.27485" lon="-1.6669">
        <ele>63.8</ele>
        <time>2013-08-07T17:31:44Z</time>
      </trkpt>
      <trkpt lat="47.27496" lon="-1.6669">
        <ele>62.6</ele>
        <time>2013-08-07T17:31:47Z</time>
      </trkpt>
      <trkpt lat="47.27507" lon="-1.66688">
        <ele>62.6</ele>
        <time>2013-08-07T17:31:50Z</time>
      </trkpt>
      <trkpt lat="47.27518" lon="-1.66689">
        <ele>62.6</ele>
        <time>2013-08-07T17:31:53Z</time>
      </trkpt>
      <trkpt lat="47.27529" lon="-1.66689">
        <ele>62.5</ele>
        <time>2013-08-07T17:31:56Z</time>
      </trkpt>
      <trkpt lat="47.27541" lon="-1.6669">
        <ele>62.4</ele>
        <time>2013-08-07T17:31:59Z</time>
      </trkpt>
      <trkpt lat="47.27553" lon="-1.66691">
        <ele>62.3</ele>
        <time>2013-08-07T17:32:02Z</time>
      </trkpt>
      <trkpt lat="47.27565" lon="-1.66692">
        <ele>62.2</ele>
        <time>2013-08-07T17:32:05Z</time>
      </trkpt>
      <trkpt lat="47.27576" lon="-1.66692">
        <ele>62.4</ele>
        <time>2013-08-07T17:32:08Z</time>
      </trkpt>
      <trkpt lat="47.27587" lon="-1.6669">
        <ele>63</ele>
        <time>2013-08-07T17:32:11Z</time>
      </trkpt>
      <trkpt lat="47.27599" lon="-1.66689">
        <ele>63.4</ele>
        <time>2013-08-07T17:32:14Z</time>
      </trkpt>
      <trkpt lat="47.2761" lon="-1.66687">
        <ele>64.4</ele>
        <time>2013-08-07T17:32:17Z</time>
      </trkpt>
      <trkpt lat="47.27623" lon="-1.66684">
        <ele>64.3</ele>
        <time>2013-08-07T17:32:20Z</time>
      </trkpt>
      <trkpt lat="47.27635" lon="-1.66679">
        <ele>64.4</ele>
        <time>2013-08-07T17:32:23Z</time>
      </trkpt>
      <trkpt lat="47.27647" lon="-1.66675">
        <ele>64.6</ele>
        <time>2013-08-07T17:32:26Z</time>
      </trkpt>
      <trkpt lat="47.27659" lon="-1.6667">
        <ele>64.7</ele>
        <time>2013-08-07T17:32:29Z</time>
      </trkpt>
      <trkpt lat="47.2767" lon="-1.66667">
        <ele>65.5</ele>
        <time>2013-08-07T17:32:31Z</time>
      </trkpt>
      <trkpt lat="47.27679" lon="-1.66665">
        <ele>66</ele>
        <time>2013-08-07T17:32:33Z</time>
      </trkpt>
      <trkpt lat="47.27689" lon="-1.66663">
        <ele>65.9</ele>
        <time>2013-08-07T17:32:35Z</time>
      </trkpt>
      <trkpt lat="47.27698" lon="-1.6666">
        <ele>66.8</ele>
        <time>2013-08-07T17:32:37Z</time>
      </trkpt>
      <trkpt lat="47.27709" lon="-1.66652">
        <ele>69.4</ele>
        <time>2013-08-07T17:32:40Z</time>
      </trkpt>
      <trkpt lat="47.27717" lon="-1.66644">
        <ele>69.9</ele>
        <time>2013-08-07T17:32:42Z</time>
      </trkpt>
      <trkpt lat="47.27729" lon="-1.66634">
        <ele>70.6</ele>
        <time>2013-08-07T17:32:44Z</time>
      </trkpt>
      <trkpt lat="47.2774" lon="-1.66625">
        <ele>69.8</ele>
        <time>2013-08-07T17:32:46Z</time>
      </trkpt>
      <trkpt lat="47.2775" lon="-1.66618">
        <ele>69</ele>
        <time>2013-08-07T17:32:48Z</time>
      </trkpt>
      <trkpt lat="47.27761" lon="-1.6661">
        <ele>68.1</ele>
        <time>2013-08-07T17:32:50Z</time>
      </trkpt>
      <trkpt lat="47.27771" lon="-1.66602">
        <ele>68.1</ele>
        <time>2013-08-07T17:32:52Z</time>
      </trkpt>
      <trkpt lat="47.27781" lon="-1.66593">
        <ele>68.3</ele>
        <time>2013-08-07T17:32:54Z</time>
      </trkpt>
      <trkpt lat="47.27791" lon="-1.66585">
        <ele>68.1</ele>
        <time>2013-08-07T17:32:56Z</time>
      </trkpt>
      <trkpt lat="47.27802" lon="-1.66577">
        <ele>67.9</ele>
        <time>2013-08-07T17:32:58Z</time>
      </trkpt>
      <trkpt lat="47.27812" lon="-1.66569">
        <ele>67.7</ele>
        <time>2013-08-07T17:33:00Z</time>
      </trkpt>
      <trkpt lat="47.27823" lon="-1.66562">
        <ele>67.7</ele>
        <time>2013-08-07T17:33:02Z</time>
      </trkpt>
      <trkpt lat="47.27835" lon="-1.66557">
        <ele>67.4</ele>
        <time>2013-08-07T17:33:04Z</time>
      </trkpt>
      <trkpt lat="47.27847" lon="-1.66551">
        <ele>67.2</ele>
        <time>2013-08-07T17:33:06Z</time>
      </trkpt>
      <trkpt lat="47.27859" lon="-1.66546">
        <ele>67</ele>
        <time>2013-08-07T17:33:08Z</time>
      </trkpt>
      <trkpt lat="47.27871" lon="-1.66541">
        <ele>66.7</ele>
        <time>2013-08-07T17:33:10Z</time>
      </trkpt>
      <trkpt lat="47.27885" lon="-1.66535">
        <ele>65.8</ele>
        <time>2013-08-07T17:33:12Z</time>
      </trkpt>
      <trkpt lat="47.27896" lon="-1.66529">
        <ele>65.3</ele>
        <time>2013-08-07T17:33:14Z</time>
      </trkpt>
      <trkpt lat="47.27907" lon="-1.66523">
        <ele>66.4</ele>
        <time>2013-08-07T17:33:16Z</time>
      </trkpt>
      <trkpt lat="47.27918" lon="-1.66517">
        <ele>66.6</ele>
        <time>2013-08-07T17:33:18Z</time>
      </trkpt>
      <trkpt lat="47.2793" lon="-1.66511">
        <ele>65.5</ele>
        <time>2013-08-07T17:33:20Z</time>
      </trkpt>
      <trkpt lat="47.27942" lon="-1.66504">
        <ele>64.5</ele>
        <time>2013-08-07T17:33:22Z</time>
      </trkpt>
      <trkpt lat="47.27956" lon="-1.66498">
        <ele>63.5</ele>
        <time>2013-08-07T17:33:24Z</time>
      </trkpt>
      <trkpt lat="47.2797" lon="-1.66493">
        <ele>62.3</ele>
        <time>2013-08-07T17:33:26Z</time>
      </trkpt>
      <trkpt lat="47.27984" lon="-1.66487">
        <ele>60.9</ele>
        <time>2013-08-07T17:33:28Z</time>
      </trkpt>
      <trkpt lat="47.28" lon="-1.66481">
        <ele>60.8</ele>
        <time>2013-08-07T17:33:30Z</time>
      </trkpt>
      <trkpt lat="47.28014" lon="-1.66473">
        <ele>61.3</ele>
        <time>2013-08-07T17:33:32Z</time>
      </trkpt>
      <trkpt lat="47.28029" lon="-1.66465">
        <ele>62.2</ele>
        <time>2013-08-07T17:33:34Z</time>
      </trkpt>
      <trkpt lat="47.28043" lon="-1.66459">
        <ele>61.4</ele>
        <time>2013-08-07T17:33:36Z</time>
      </trkpt>
      <trkpt lat="47.28057" lon="-1.66452">
        <ele>60.3</ele>
        <time>2013-08-07T17:33:38Z</time>
      </trkpt>
      <trkpt lat="47.28071" lon="-1.66445">
        <ele>59</ele>
        <time>2013-08-07T17:33:40Z</time>
      </trkpt>
      <trkpt lat="47.28084" lon="-1.66439">
        <ele>59.7</ele>
        <time>2013-08-07T17:33:42Z</time>
      </trkpt>
      <trkpt lat="47.28097" lon="-1.66431">
        <ele>60.9</ele>
        <time>2013-08-07T17:33:44Z</time>
      </trkpt>
      <trkpt lat="47.2811" lon="-1.66422">
        <ele>61.6</ele>
        <time>2013-08-07T17:33:46Z</time>
      </trkpt>
      <trkpt lat="47.28123" lon="-1.66413">
        <ele>62.2</ele>
        <time>2013-08-07T17:33:48Z</time>
      </trkpt>
      <trkpt lat="47.28135" lon="-1.66404">
        <ele>63.1</ele>
        <time>2013-08-07T17:33:50Z</time>
      </trkpt>
      <trkpt lat="47.28146" lon="-1.66396">
        <ele>62.9</ele>
        <time>2013-08-07T17:33:52Z</time>
      </trkpt>
      <trkpt lat="47.28157" lon="-1.66389">
        <ele>63</ele>
        <time>2013-08-07T17:33:54Z</time>
      </trkpt>
      <trkpt lat="47.28166" lon="-1.6638">
        <ele>62.3</ele>
        <time>2013-08-07T17:33:56Z</time>
      </trkpt>
      <trkpt lat="47.28175" lon="-1.66373">
        <ele>62.1</ele>
        <time>2013-08-07T17:33:58Z</time>
      </trkpt>
      <trkpt lat="47.28181" lon="-1.66357">
        <ele>63.3</ele>
        <time>2013-08-07T17:34:01Z</time>
      </trkpt>
      <trkpt lat="47.2818" lon="-1.66337">
        <ele>65.1</ele>
        <time>2013-08-07T17:34:04Z</time>
      </trkpt>
      <trkpt lat="47.28176" lon="-1.66323">
        <ele>66</ele>
        <time>2013-08-07T17:34:06Z</time>
      </trkpt>
      <trkpt lat="47.28172" lon="-1.66306">
        <ele>66.4</ele>
        <time>2013-08-07T17:34:08Z</time>
      </trkpt>
      <trkpt lat="47.28168" lon="-1.66292">
        <ele>66.5</ele>
        <time>2013-08-07T17:34:10Z</time>
      </trkpt>
      <trkpt lat="47.28165" lon="-1.66279">
        <ele>66.5</ele>
        <time>2013-08-07T17:34:12Z</time>
      </trkpt>
      <trkpt lat="47.28162" lon="-1.66265">
        <ele>66.4</ele>
        <time>2013-08-07T17:34:14Z</time>
      </trkpt>
      <trkpt lat="47.28159" lon="-1.66251">
        <ele>66.3</ele>
        <time>2013-08-07T17:34:16Z</time>
      </trkpt>
      <trkpt lat="47.28156" lon="-1.66236">
        <ele>66.1</ele>
        <time>2013-08-07T17:34:18Z</time>
      </trkpt>
      <trkpt lat="47.28153" lon="-1.66222">
        <ele>65.3</ele>
        <time>2013-08-07T17:34:20Z</time>
      </trkpt>
      <trkpt lat="47.28149" lon="-1.66206">
        <ele>63.8</ele>
        <time>2013-08-07T17:34:22Z</time>
      </trkpt>
      <trkpt lat="47.28145" lon="-1.6619">
        <ele>62.9</ele>
        <time>2013-08-07T17:34:24Z</time>
      </trkpt>
      <trkpt lat="47.28141" lon="-1.66175">
        <ele>62.4</ele>
        <time>2013-08-07T17:34:26Z</time>
      </trkpt>
      <trkpt lat="47.28138" lon="-1.66159">
        <ele>62.5</ele>
        <time>2013-08-07T17:34:28Z</time>
      </trkpt>
      <trkpt lat="47.28134" lon="-1.66145">
        <ele>62.8</ele>
        <time>2013-08-07T17:34:30Z</time>
      </trkpt>
      <trkpt lat="47.28131" lon="-1.6613">
        <ele>62.5</ele>
        <time>2013-08-07T17:34:32Z</time>
      </trkpt>
      <trkpt lat="47.28127" lon="-1.66115">
        <ele>62</ele>
        <time>2013-08-07T17:34:34Z</time>
      </trkpt>
      <trkpt lat="47.28123" lon="-1.66099">
        <ele>62.3</ele>
        <time>2013-08-07T17:34:37Z</time>
      </trkpt>
      <trkpt lat="47.28117" lon="-1.66088">
        <ele>62.5</ele>
        <time>2013-08-07T17:34:40Z</time>
      </trkpt>
      <trkpt lat="47.28107" lon="-1.66084">
        <ele>62.2</ele>
        <time>2013-08-07T17:34:44Z</time>
      </trkpt>
      <trkpt lat="47.28096" lon="-1.66085">
        <ele>62</ele>
        <time>2013-08-07T17:34:48Z</time>
      </trkpt>
      <trkpt lat="47.28087" lon="-1.66086">
        <ele>62</ele>
        <time>2013-08-07T17:34:51Z</time>
      </trkpt>
      <trkpt lat="47.28077" lon="-1.66087">
        <ele>62.2</ele>
        <time>2013-08-07T17:34:54Z</time>
      </trkpt>
      <trkpt lat="47.28067" lon="-1.66087">
        <ele>62.5</ele>
        <time>2013-08-07T17:34:57Z</time>
      </trkpt>
      <trkpt lat="47.28056" lon="-1.66088">
        <ele>62.7</ele>
        <time>2013-08-07T17:35:00Z</time>
      </trkpt>
      <trkpt lat="47.28046" lon="-1.66088">
        <ele>62.8</ele>
        <time>2013-08-07T17:35:04Z</time>
      </trkpt>
      <trkpt lat="47.28036" lon="-1.66088">
        <ele>62.6</ele>
        <time>2013-08-07T17:35:08Z</time>
      </trkpt>
      <trkpt lat="47.28027" lon="-1.66089">
        <ele>62.7</ele>
        <time>2013-08-07T17:35:11Z</time>
      </trkpt>
      <trkpt lat="47.28018" lon="-1.66089">
        <ele>63.1</ele>
        <time>2013-08-07T17:35:15Z</time>
      </trkpt>
      <trkpt lat="47.28006" lon="-1.66089">
        <ele>63.4</ele>
        <time>2013-08-07T17:35:18Z</time>
      </trkpt>
      <trkpt lat="47.27995" lon="-1.6609">
        <ele>63.7</ele>
        <time>2013-08-07T17:35:21Z</time>
      </trkpt>
      <trkpt lat="47.27984" lon="-1.6609">
        <ele>64</ele>
        <time>2013-08-07T17:35:24Z</time>
      </trkpt>
      <trkpt lat="47.27972" lon="-1.66091">
        <ele>64.2</ele>
        <time>2013-08-07T17:35:27Z</time>
      </trkpt>
      <trkpt lat="47.27961" lon="-1.66092">
        <ele>64.5</ele>
        <time>2013-08-07T17:35:30Z</time>
      </trkpt>
      <trkpt lat="47.27951" lon="-1.66091">
        <ele>64.8</ele>
        <time>2013-08-07T17:35:33Z</time>
      </trkpt>
      <trkpt lat="47.27942" lon="-1.66081">
        <ele>65.1</ele>
        <time>2013-08-07T17:35:36Z</time>
      </trkpt>
      <trkpt lat="47.27936" lon="-1.66065">
        <ele>66.7</ele>
        <time>2013-08-07T17:35:39Z</time>
      </trkpt>
      <trkpt lat="47.27933" lon="-1.66053">
        <ele>68.9</ele>
        <time>2013-08-07T17:35:41Z</time>
      </trkpt>
      <trkpt lat="47.27929" lon="-1.66033">
        <ele>71</ele>
        <time>2013-08-07T17:35:44Z</time>
      </trkpt>
      <trkpt lat="47.27926" lon="-1.66017">
        <ele>70.6</ele>
        <time>2013-08-07T17:35:46Z</time>
      </trkpt>
      <trkpt lat="47.27925" lon="-1.65999">
        <ele>69.7</ele>
        <time>2013-08-07T17:35:48Z</time>
      </trkpt>
      <trkpt lat="47.27924" lon="-1.65979">
        <ele>69.2</ele>
        <time>2013-08-07T17:35:50Z</time>
      </trkpt>
      <trkpt lat="47.27923" lon="-1.65961">
        <ele>68.9</ele>
        <time>2013-08-07T17:35:52Z</time>
      </trkpt>
      <trkpt lat="47.27922" lon="-1.65943">
        <ele>68.4</ele>
        <time>2013-08-07T17:35:54Z</time>
      </trkpt>
      <trkpt lat="47.27921" lon="-1.65923">
        <ele>68.3</ele>
        <time>2013-08-07T17:35:56Z</time>
      </trkpt>
      <trkpt lat="47.27919" lon="-1.65905">
        <ele>68</ele>
        <time>2013-08-07T17:35:58Z</time>
      </trkpt>
      <trkpt lat="47.27916" lon="-1.65887">
        <ele>68</ele>
        <time>2013-08-07T17:36:00Z</time>
      </trkpt>
      <trkpt lat="47.27914" lon="-1.65865">
        <ele>67.2</ele>
        <time>2013-08-07T17:36:02Z</time>
      </trkpt>
      <trkpt lat="47.27913" lon="-1.65846">
        <ele>66.1</ele>
        <time>2013-08-07T17:36:04Z</time>
      </trkpt>
      <trkpt lat="47.27913" lon="-1.65826">
        <ele>65.6</ele>
        <time>2013-08-07T17:36:06Z</time>
      </trkpt>
      <trkpt lat="47.27914" lon="-1.65804">
        <ele>65.3</ele>
        <time>2013-08-07T17:36:08Z</time>
      </trkpt>
      <trkpt lat="47.27914" lon="-1.65783">
        <ele>65.3</ele>
        <time>2013-08-07T17:36:10Z</time>
      </trkpt>
      <trkpt lat="47.27915" lon="-1.65762">
        <ele>65.3</ele>
        <time>2013-08-07T17:36:12Z</time>
      </trkpt>
      <trkpt lat="47.27914" lon="-1.6574">
        <ele>65.1</ele>
        <time>2013-08-07T17:36:14Z</time>
      </trkpt>
      <trkpt lat="47.27913" lon="-1.65719">
        <ele>64.8</ele>
        <time>2013-08-07T17:36:16Z</time>
      </trkpt>
      <trkpt lat="47.27914" lon="-1.65698">
        <ele>64.8</ele>
        <time>2013-08-07T17:36:18Z</time>
      </trkpt>
      <trkpt lat="47.27915" lon="-1.65677">
        <ele>66.3</ele>
        <time>2013-08-07T17:36:20Z</time>
      </trkpt>
      <trkpt lat="47.27916" lon="-1.65657">
        <ele>67.8</ele>
        <time>2013-08-07T17:36:22Z</time>
      </trkpt>
      <trkpt lat="47.27915" lon="-1.65636">
        <ele>67.9</ele>
        <time>2013-08-07T17:36:24Z</time>
      </trkpt>
      <trkpt lat="47.27912" lon="-1.65615">
        <ele>66.6</ele>
        <time>2013-08-07T17:36:26Z</time>
      </trkpt>
      <trkpt lat="47.27909" lon="-1.65595">
        <ele>65.3</ele>
        <time>2013-08-07T17:36:28Z</time>
      </trkpt>
      <trkpt lat="47.27907" lon="-1.65577">
        <ele>64.2</ele>
        <time>2013-08-07T17:36:30Z</time>
      </trkpt>
      <trkpt lat="47.27904" lon="-1.65558">
        <ele>63.5</ele>
        <time>2013-08-07T17:36:32Z</time>
      </trkpt>
      <trkpt lat="47.27903" lon="-1.6554">
        <ele>63.4</ele>
        <time>2013-08-07T17:36:34Z</time>
      </trkpt>
      <trkpt lat="47.279" lon="-1.65523">
        <ele>63</ele>
        <time>2013-08-07T17:36:36Z</time>
      </trkpt>
      <trkpt lat="47.27895" lon="-1.65508">
        <ele>62.1</ele>
        <time>2013-08-07T17:36:38Z</time>
      </trkpt>
      <trkpt lat="47.27888" lon="-1.65494">
        <ele>61.6</ele>
        <time>2013-08-07T17:36:40Z</time>
      </trkpt>
      <trkpt lat="47.27879" lon="-1.6548">
        <ele>62.1</ele>
        <time>2013-08-07T17:36:42Z</time>
      </trkpt>
      <trkpt lat="47.27868" lon="-1.65473">
        <ele>62.6</ele>
        <time>2013-08-07T17:36:44Z</time>
      </trkpt>
      <trkpt lat="47.27857" lon="-1.65467">
        <ele>61.6</ele>
        <time>2013-08-07T17:36:46Z</time>
      </trkpt>
      <trkpt lat="47.27845" lon="-1.65464">
        <ele>60.3</ele>
        <time>2013-08-07T17:36:48Z</time>
      </trkpt>
      <trkpt lat="47.27833" lon="-1.65461">
        <ele>59.6</ele>
        <time>2013-08-07T17:36:50Z</time>
      </trkpt>
      <trkpt lat="47.2782" lon="-1.65459">
        <ele>59.3</ele>
        <time>2013-08-07T17:36:52Z</time>
      </trkpt>
      <trkpt lat="47.27811" lon="-1.65458">
        <ele>60.1</ele>
        <time>2013-08-07T17:36:54Z</time>
      </trkpt>
      <trkpt lat="47.27799" lon="-1.65457">
        <ele>61.5</ele>
        <time>2013-08-07T17:36:57Z</time>
      </trkpt>
      <trkpt lat="47.27786" lon="-1.65455">
        <ele>61.5</ele>
        <time>2013-08-07T17:37:00Z</time>
      </trkpt>
      <trkpt lat="47.27774" lon="-1.65452">
        <ele>61.6</ele>
        <time>2013-08-07T17:37:03Z</time>
      </trkpt>
      <trkpt lat="47.27763" lon="-1.65448">
        <ele>61.6</ele>
        <time>2013-08-07T17:37:07Z</time>
      </trkpt>
      <trkpt lat="47.27753" lon="-1.65445">
        <ele>61.7</ele>
        <time>2013-08-07T17:37:10Z</time>
      </trkpt>
      <trkpt lat="47.27746" lon="-1.65436">
        <ele>62.8</ele>
        <time>2013-08-07T17:41:00Z</time>
      </trkpt>
      <trkpt lat="47.27737" lon="-1.6544">
        <ele>62.3</ele>
        <time>2013-08-07T17:42:37Z</time>
      </trkpt>
      <trkpt lat="47.27737" lon="-1.65424">
        <ele>61.3</ele>
        <time>2013-08-07T17:43:13Z</time>
      </trkpt>
      <trkpt lat="47.27743" lon="-1.65414">
        <ele>60.5</ele>
        <time>2013-08-07T17:43:19Z</time>
      </trkpt>
      <trkpt lat="47.2775" lon="-1.65402">
        <ele>59.9</ele>
        <time>2013-08-07T17:43:28Z</time>
      </trkpt>
      <trkpt lat="47.27746" lon="-1.65418">
        <ele>61.1</ele>
        <time>2013-08-07T17:43:38Z</time>
      </trkpt>
      <trkpt lat="47.27748" lon="-1.65432">
        <ele>61.6</ele>
        <time>2013-08-07T17:43:44Z</time>
      </trkpt>
      <trkpt lat="47.27756" lon="-1.65441">
        <ele>62.3</ele>
        <time>2013-08-07T17:43:55Z</time>
      </trkpt>
      <trkpt lat="47.27746" lon="-1.65443">
        <ele>61.3</ele>
        <time>2013-08-07T17:50:15Z</time>
      </trkpt>
      <trkpt lat="47.27735" lon="-1.65447">
        <ele>61.3</ele>
        <time>2013-08-07T17:50:20Z</time>
      </trkpt>
      <trkpt lat="47.27725" lon="-1.65445">
        <ele>61.5</ele>
        <time>2013-08-07T17:50:24Z</time>
      </trkpt>
      <trkpt lat="47.27715" lon="-1.65437">
        <ele>61.5</ele>
        <time>2013-08-07T17:50:28Z</time>
      </trkpt>
      <trkpt lat="47.27706" lon="-1.65428">
        <ele>61.5</ele>
        <time>2013-08-07T17:50:31Z</time>
      </trkpt>
      <trkpt lat="47.27703" lon="-1.65413">
        <ele>61.4</ele>
        <time>2013-08-07T17:50:34Z</time>
      </trkpt>
      <trkpt lat="47.27699" lon="-1.65396">
        <ele>60.6</ele>
        <time>2013-08-07T17:50:37Z</time>
      </trkpt>
      <trkpt lat="47.27694" lon="-1.65379">
        <ele>60</ele>
        <time>2013-08-07T17:50:40Z</time>
      </trkpt>
      <trkpt lat="47.27689" lon="-1.65366">
        <ele>59.8</ele>
        <time>2013-08-07T17:50:44Z</time>
      </trkpt>
      <trkpt lat="47.27683" lon="-1.65354">
        <ele>59.4</ele>
        <time>2013-08-07T17:50:47Z</time>
      </trkpt>
      <trkpt lat="47.27674" lon="-1.65352">
        <ele>59.1</ele>
        <time>2013-08-07T17:50:51Z</time>
      </trkpt>
      <trkpt lat="47.27664" lon="-1.65348">
        <ele>58.7</ele>
        <time>2013-08-07T17:50:55Z</time>
      </trkpt>
      <trkpt lat="47.27655" lon="-1.65343">
        <ele>58.1</ele>
        <time>2013-08-07T17:50:59Z</time>
      </trkpt>
      <trkpt lat="47.27649" lon="-1.65332">
        <ele>57.8</ele>
        <time>2013-08-07T17:51:03Z</time>
      </trkpt>
      <trkpt lat="47.27642" lon="-1.65319">
        <ele>57.9</ele>
        <time>2013-08-07T17:51:08Z</time>
      </trkpt>
      <trkpt lat="47.27639" lon="-1.65306">
        <ele>58.1</ele>
        <time>2013-08-07T17:51:12Z</time>
      </trkpt>
      <trkpt lat="47.27638" lon="-1.6529">
        <ele>58.4</ele>
        <time>2013-08-07T17:51:16Z</time>
      </trkpt>
      <trkpt lat="47.27634" lon="-1.65276">
        <ele>58.3</ele>
        <time>2013-08-07T17:51:20Z</time>
      </trkpt>
      <trkpt lat="47.27629" lon="-1.65262">
        <ele>58.8</ele>
        <time>2013-08-07T17:51:25Z</time>
      </trkpt>
      <trkpt lat="47.27622" lon="-1.65254">
        <ele>59.2</ele>
        <time>2013-08-07T17:51:29Z</time>
      </trkpt>
      <trkpt lat="47.27614" lon="-1.65244">
        <ele>60.1</ele>
        <time>2013-08-07T17:51:34Z</time>
      </trkpt>
      <trkpt lat="47.27607" lon="-1.65234">
        <ele>60.6</ele>
        <time>2013-08-07T17:51:37Z</time>
      </trkpt>
      <trkpt lat="47.27601" lon="-1.65223">
        <ele>60.9</ele>
        <time>2013-08-07T17:51:42Z</time>
      </trkpt>
      <trkpt lat="47.27595" lon="-1.65213">
        <ele>60.9</ele>
        <time>2013-08-07T17:51:47Z</time>
      </trkpt>
      <trkpt lat="47.27589" lon="-1.652">
        <ele>61.1</ele>
        <time>2013-08-07T17:51:51Z</time>
      </trkpt>
      <trkpt lat="47.27584" lon="-1.65188">
        <ele>61.3</ele>
        <time>2013-08-07T17:51:56Z</time>
      </trkpt>
      <trkpt lat="47.2758" lon="-1.65174">
        <ele>61.3</ele>
        <time>2013-08-07T17:52:01Z</time>
      </trkpt>
      <trkpt lat="47.27575" lon="-1.6516">
        <ele>60.9</ele>
        <time>2013-08-07T17:52:07Z</time>
      </trkpt>
      <trkpt lat="47.2757" lon="-1.65146">
        <ele>60.3</ele>
        <time>2013-08-07T17:52:12Z</time>
      </trkpt>
      <trkpt lat="47.27564" lon="-1.65132">
        <ele>60.1</ele>
        <time>2013-08-07T17:52:16Z</time>
      </trkpt>
      <trkpt lat="47.27557" lon="-1.65115">
        <ele>59.8</ele>
        <time>2013-08-07T17:52:19Z</time>
      </trkpt>
      <trkpt lat="47.27553" lon="-1.65103">
        <ele>59.8</ele>
        <time>2013-08-07T17:52:21Z</time>
      </trkpt>
      <trkpt lat="47.27549" lon="-1.65085">
        <ele>59.8</ele>
        <time>2013-08-07T17:52:24Z</time>
      </trkpt>
      <trkpt lat="47.27546" lon="-1.65069">
        <ele>59.8</ele>
        <time>2013-08-07T17:52:27Z</time>
      </trkpt>
      <trkpt lat="47.27544" lon="-1.65055">
        <ele>59.6</ele>
        <time>2013-08-07T17:52:30Z</time>
      </trkpt>
      <trkpt lat="47.27541" lon="-1.65036">
        <ele>59</ele>
        <time>2013-08-07T17:52:33Z</time>
      </trkpt>
      <trkpt lat="47.27537" lon="-1.65022">
        <ele>60.4</ele>
        <time>2013-08-07T17:52:35Z</time>
      </trkpt>
      <trkpt lat="47.27533" lon="-1.65009">
        <ele>62.1</ele>
        <time>2013-08-07T17:52:37Z</time>
      </trkpt>
      <trkpt lat="47.2753" lon="-1.64994">
        <ele>63.3</ele>
        <time>2013-08-07T17:52:39Z</time>
      </trkpt>
      <trkpt lat="47.27528" lon="-1.64979">
        <ele>64.6</ele>
        <time>2013-08-07T17:52:41Z</time>
      </trkpt>
      <trkpt lat="47.27528" lon="-1.64963">
        <ele>65</ele>
        <time>2013-08-07T17:52:43Z</time>
      </trkpt>
      <trkpt lat="47.27529" lon="-1.64944">
        <ele>64.3</ele>
        <time>2013-08-07T17:52:46Z</time>
      </trkpt>
      <trkpt lat="47.27529" lon="-1.64927">
        <ele>64.3</ele>
        <time>2013-08-07T17:52:49Z</time>
      </trkpt>
      <trkpt lat="47.27529" lon="-1.64907">
        <ele>64.6</ele>
        <time>2013-08-07T17:52:52Z</time>
      </trkpt>
      <trkpt lat="47.27527" lon="-1.64893">
        <ele>65</ele>
        <time>2013-08-07T17:52:54Z</time>
      </trkpt>
      <trkpt lat="47.27524" lon="-1.64875">
        <ele>64.5</ele>
        <time>2013-08-07T17:52:57Z</time>
      </trkpt>
      <trkpt lat="47.27523" lon="-1.6486">
        <ele>63.4</ele>
        <time>2013-08-07T17:52:59Z</time>
      </trkpt>
      <trkpt lat="47.27521" lon="-1.64845">
        <ele>62.3</ele>
        <time>2013-08-07T17:53:01Z</time>
      </trkpt>
      <trkpt lat="47.2752" lon="-1.6483">
        <ele>62</ele>
        <time>2013-08-07T17:53:03Z</time>
      </trkpt>
      <trkpt lat="47.27522" lon="-1.64816">
        <ele>61.4</ele>
        <time>2013-08-07T17:53:05Z</time>
      </trkpt>
      <trkpt lat="47.27526" lon="-1.64801">
        <ele>60.7</ele>
        <time>2013-08-07T17:53:07Z</time>
      </trkpt>
      <trkpt lat="47.27529" lon="-1.64786">
        <ele>60.7</ele>
        <time>2013-08-07T17:53:09Z</time>
      </trkpt>
      <trkpt lat="47.27534" lon="-1.64771">
        <ele>60.5</ele>
        <time>2013-08-07T17:53:11Z</time>
      </trkpt>
      <trkpt lat="47.27538" lon="-1.64755">
        <ele>60.4</ele>
        <time>2013-08-07T17:53:13Z</time>
      </trkpt>
      <trkpt lat="47.2754" lon="-1.64739">
        <ele>60.1</ele>
        <time>2013-08-07T17:53:15Z</time>
      </trkpt>
      <trkpt lat="47.27542" lon="-1.64723">
        <ele>60.4</ele>
        <time>2013-08-07T17:53:17Z</time>
      </trkpt>
      <trkpt lat="47.27542" lon="-1.64707">
        <ele>60.9</ele>
        <time>2013-08-07T17:53:19Z</time>
      </trkpt>
      <trkpt lat="47.27544" lon="-1.64689">
        <ele>60.6</ele>
        <time>2013-08-07T17:53:21Z</time>
      </trkpt>
      <trkpt lat="47.27544" lon="-1.64673">
        <ele>60</ele>
        <time>2013-08-07T17:53:23Z</time>
      </trkpt>
      <trkpt lat="47.27546" lon="-1.64655">
        <ele>60.1</ele>
        <time>2013-08-07T17:53:25Z</time>
      </trkpt>
      <trkpt lat="47.27549" lon="-1.64635">
        <ele>59.9</ele>
        <time>2013-08-07T17:53:27Z</time>
      </trkpt>
      <trkpt lat="47.27554" lon="-1.64613">
        <ele>59.7</ele>
        <time>2013-08-07T17:53:29Z</time>
      </trkpt>
      <trkpt lat="47.27559" lon="-1.64589">
        <ele>59.5</ele>
        <time>2013-08-07T17:53:31Z</time>
      </trkpt>
      <trkpt lat="47.27562" lon="-1.64565">
        <ele>58.8</ele>
        <time>2013-08-07T17:53:33Z</time>
      </trkpt>
      <trkpt lat="47.27563" lon="-1.64544">
        <ele>57.8</ele>
        <time>2013-08-07T17:53:35Z</time>
      </trkpt>
      <trkpt lat="47.27563" lon="-1.64528">
        <ele>56.8</ele>
        <time>2013-08-07T17:53:37Z</time>
      </trkpt>
      <trkpt lat="47.27562" lon="-1.64511">
        <ele>55.9</ele>
        <time>2013-08-07T17:53:40Z</time>
      </trkpt>
      <trkpt lat="47.27561" lon="-1.64498">
        <ele>56</ele>
        <time>2013-08-07T17:53:43Z</time>
      </trkpt>
      <trkpt lat="47.27559" lon="-1.64484">
        <ele>56</ele>
        <time>2013-08-07T17:53:46Z</time>
      </trkpt>
      <trkpt lat="47.27557" lon="-1.64468">
        <ele>56.2</ele>
        <time>2013-08-07T17:53:51Z</time>
      </trkpt>
      <trkpt lat="47.27552" lon="-1.64457">
        <ele>56.6</ele>
        <time>2013-08-07T17:53:56Z</time>
      </trkpt>
      <trkpt lat="47.27543" lon="-1.6446">
        <ele>56.5</ele>
        <time>2013-08-07T17:53:59Z</time>
      </trkpt>
      <trkpt lat="47.2753" lon="-1.64465">
        <ele>54.5</ele>
        <time>2013-08-07T17:54:02Z</time>
      </trkpt>
      <trkpt lat="47.27518" lon="-1.6447">
        <ele>52.6</ele>
        <time>2013-08-07T17:54:04Z</time>
      </trkpt>
      <trkpt lat="47.27508" lon="-1.64476">
        <ele>52.3</ele>
        <time>2013-08-07T17:54:06Z</time>
      </trkpt>
      <trkpt lat="47.27498" lon="-1.64482">
        <ele>51.6</ele>
        <time>2013-08-07T17:54:08Z</time>
      </trkpt>
      <trkpt lat="47.27486" lon="-1.64489">
        <ele>49.6</ele>
        <time>2013-08-07T17:54:11Z</time>
      </trkpt>
      <trkpt lat="47.27477" lon="-1.64493">
        <ele>49.5</ele>
        <time>2013-08-07T17:54:13Z</time>
      </trkpt>
      <trkpt lat="47.27464" lon="-1.64496">
        <ele>52</ele>
        <time>2013-08-07T17:54:16Z</time>
      </trkpt>
      <trkpt lat="47.27454" lon="-1.64497">
        <ele>53.8</ele>
        <time>2013-08-07T17:54:18Z</time>
      </trkpt>
      <trkpt lat="47.27445" lon="-1.64497">
        <ele>54.5</ele>
        <time>2013-08-07T17:54:20Z</time>
      </trkpt>
      <trkpt lat="47.27436" lon="-1.64497">
        <ele>55.6</ele>
        <time>2013-08-07T17:54:22Z</time>
      </trkpt>
      <trkpt lat="47.27423" lon="-1.64497">
        <ele>55.7</ele>
        <time>2013-08-07T17:54:25Z</time>
      </trkpt>
      <trkpt lat="47.27414" lon="-1.64495">
        <ele>55.8</ele>
        <time>2013-08-07T17:54:28Z</time>
      </trkpt>
      <trkpt lat="47.27405" lon="-1.64489">
        <ele>55.8</ele>
        <time>2013-08-07T17:54:31Z</time>
      </trkpt>
      <trkpt lat="47.27396" lon="-1.64483">
        <ele>55.7</ele>
        <time>2013-08-07T17:54:35Z</time>
      </trkpt>
      <trkpt lat="47.27387" lon="-1.64473">
        <ele>55.4</ele>
        <time>2013-08-07T17:54:38Z</time>
      </trkpt>
      <trkpt lat="47.27378" lon="-1.64464">
        <ele>55.1</ele>
        <time>2013-08-07T17:54:41Z</time>
      </trkpt>
      <trkpt lat="47.27373" lon="-1.64452">
        <ele>55</ele>
        <time>2013-08-07T17:54:47Z</time>
      </trkpt>
      <trkpt lat="47.27365" lon="-1.64445">
        <ele>55</ele>
        <time>2013-08-07T17:54:51Z</time>
      </trkpt>
      <trkpt lat="47.27356" lon="-1.64435">
        <ele>54.7</ele>
        <time>2013-08-07T17:54:54Z</time>
      </trkpt>
      <trkpt lat="47.27345" lon="-1.64426">
        <ele>54.4</ele>
        <time>2013-08-07T17:54:57Z</time>
      </trkpt>
      <trkpt lat="47.27336" lon="-1.64415">
        <ele>54.1</ele>
        <time>2013-08-07T17:55:00Z</time>
      </trkpt>
      <trkpt lat="47.27326" lon="-1.64405">
        <ele>53.5</ele>
        <time>2013-08-07T17:55:04Z</time>
      </trkpt>
      <trkpt lat="47.27319" lon="-1.64396">
        <ele>53.1</ele>
        <time>2013-08-07T17:55:07Z</time>
      </trkpt>
      <trkpt lat="47.27311" lon="-1.64385">
        <ele>52.8</ele>
        <time>2013-08-07T17:55:10Z</time>
      </trkpt>
      <trkpt lat="47.27305" lon="-1.64375">
        <ele>52.4</ele>
        <time>2013-08-07T17:55:13Z</time>
      </trkpt>
      <trkpt lat="47.27298" lon="-1.64364">
        <ele>51.9</ele>
        <time>2013-08-07T17:55:16Z</time>
      </trkpt>
      <trkpt lat="47.27292" lon="-1.64351">
        <ele>51.6</ele>
        <time>2013-08-07T17:55:19Z</time>
      </trkpt>
      <trkpt lat="47.27286" lon="-1.64339">
        <ele>51.2</ele>
        <time>2013-08-07T17:55:22Z</time>
      </trkpt>
      <trkpt lat="47.27278" lon="-1.64326">
        <ele>50.8</ele>
        <time>2013-08-07T17:55:26Z</time>
      </trkpt>
      <trkpt lat="47.27272" lon="-1.64316">
        <ele>50.8</ele>
        <time>2013-08-07T17:55:29Z</time>
      </trkpt>
      <trkpt lat="47.27265" lon="-1.64306">
        <ele>51</ele>
        <time>2013-08-07T17:55:32Z</time>
      </trkpt>
      <trkpt lat="47.27258" lon="-1.64296">
        <ele>51.1</ele>
        <time>2013-08-07T17:55:35Z</time>
      </trkpt>
      <trkpt lat="47.27249" lon="-1.64285">
        <ele>50.9</ele>
        <time>2013-08-07T17:55:39Z</time>
      </trkpt>
      <trkpt lat="47.27243" lon="-1.64272">
        <ele>49.9</ele>
        <time>2013-08-07T17:55:44Z</time>
      </trkpt>
      <trkpt lat="47.27239" lon="-1.6426">
        <ele>49.6</ele>
        <time>2013-08-07T17:55:47Z</time>
      </trkpt>
      <trkpt lat="47.27234" lon="-1.64247">
        <ele>49.4</ele>
        <time>2013-08-07T17:55:48Z</time>
      </trkpt>
      <trkpt lat="47.27228" lon="-1.64226">
        <ele>49.2</ele>
        <time>2013-08-07T17:55:50Z</time>
      </trkpt>
      <trkpt lat="47.27224" lon="-1.64212">
        <ele>49</ele>
        <time>2013-08-07T17:55:52Z</time>
      </trkpt>
      <trkpt lat="47.27217" lon="-1.64194">
        <ele>48.8</ele>
        <time>2013-08-07T17:55:55Z</time>
      </trkpt>
      <trkpt lat="47.27213" lon="-1.64182">
        <ele>48.7</ele>
        <time>2013-08-07T17:55:57Z</time>
      </trkpt>
      <trkpt lat="47.27209" lon="-1.64169">
        <ele>48.6</ele>
        <time>2013-08-07T17:55:59Z</time>
      </trkpt>
      <trkpt lat="47.27202" lon="-1.64152">
        <ele>48.4</ele>
        <time>2013-08-07T17:56:02Z</time>
      </trkpt>
      <trkpt lat="47.27195" lon="-1.64139">
        <ele>48.2</ele>
        <time>2013-08-07T17:56:05Z</time>
      </trkpt>
      <trkpt lat="47.27189" lon="-1.64125">
        <ele>48.2</ele>
        <time>2013-08-07T17:56:08Z</time>
      </trkpt>
      <trkpt lat="47.27184" lon="-1.64111">
        <ele>48.2</ele>
        <time>2013-08-07T17:56:11Z</time>
      </trkpt>
      <trkpt lat="47.27179" lon="-1.64098">
        <ele>48.2</ele>
        <time>2013-08-07T17:56:14Z</time>
      </trkpt>
      <trkpt lat="47.27174" lon="-1.64086">
        <ele>48.4</ele>
        <time>2013-08-07T17:56:17Z</time>
      </trkpt>
      <trkpt lat="47.27169" lon="-1.64075">
        <ele>48.6</ele>
        <time>2013-08-07T17:56:20Z</time>
      </trkpt>
      <trkpt lat="47.27161" lon="-1.64062">
        <ele>48.8</ele>
        <time>2013-08-07T17:56:23Z</time>
      </trkpt>
      <trkpt lat="47.27152" lon="-1.64048">
        <ele>49</ele>
        <time>2013-08-07T17:56:27Z</time>
      </trkpt>
      <trkpt lat="47.27146" lon="-1.64034">
        <ele>48.8</ele>
        <time>2013-08-07T17:56:30Z</time>
      </trkpt>
      <trkpt lat="47.27139" lon="-1.64019">
        <ele>49</ele>
        <time>2013-08-07T17:56:33Z</time>
      </trkpt>
      <trkpt lat="47.27131" lon="-1.64007">
        <ele>49.1</ele>
        <time>2013-08-07T17:56:36Z</time>
      </trkpt>
      <trkpt lat="47.27124" lon="-1.63997">
        <ele>49.1</ele>
        <time>2013-08-07T17:56:39Z</time>
      </trkpt>
      <trkpt lat="47.27118" lon="-1.63986">
        <ele>49.3</ele>
        <time>2013-08-07T17:56:42Z</time>
      </trkpt>
      <trkpt lat="47.27112" lon="-1.63977">
        <ele>49.4</ele>
        <time>2013-08-07T17:56:45Z</time>
      </trkpt>
      <trkpt lat="47.27103" lon="-1.63964">
        <ele>49.5</ele>
        <time>2013-08-07T17:56:49Z</time>
      </trkpt>
      <trkpt lat="47.27097" lon="-1.63954">
        <ele>49.5</ele>
        <time>2013-08-07T17:56:52Z</time>
      </trkpt>
      <trkpt lat="47.27091" lon="-1.6394">
        <ele>50</ele>
        <time>2013-08-07T17:56:57Z</time>
      </trkpt>
      <trkpt lat="47.27085" lon="-1.63927">
        <ele>50.4</ele>
        <time>2013-08-07T17:57:01Z</time>
      </trkpt>
      <trkpt lat="47.27077" lon="-1.63918">
        <ele>50.3</ele>
        <time>2013-08-07T17:57:04Z</time>
      </trkpt>
      <trkpt lat="47.27068" lon="-1.6392">
        <ele>50.5</ele>
        <time>2013-08-07T17:57:07Z</time>
      </trkpt>
      <trkpt lat="47.27058" lon="-1.63921">
        <ele>50.7</ele>
        <time>2013-08-07T17:57:10Z</time>
      </trkpt>
      <trkpt lat="47.27047" lon="-1.63914">
        <ele>50.8</ele>
        <time>2013-08-07T17:57:15Z</time>
      </trkpt>
      <trkpt lat="47.27038" lon="-1.63907">
        <ele>50.8</ele>
        <time>2013-08-07T17:57:18Z</time>
      </trkpt>
      <trkpt lat="47.27029" lon="-1.63898">
        <ele>50.8</ele>
        <time>2013-08-07T17:57:21Z</time>
      </trkpt>
      <trkpt lat="47.27019" lon="-1.63893">
        <ele>51.5</ele>
        <time>2013-08-07T17:57:23Z</time>
      </trkpt>
      <trkpt lat="47.27003" lon="-1.63892">
        <ele>51.2</ele>
        <time>2013-08-07T17:57:25Z</time>
      </trkpt>
      <trkpt lat="47.26989" lon="-1.63892">
        <ele>51.5</ele>
        <time>2013-08-07T17:57:27Z</time>
      </trkpt>
      <trkpt lat="47.26974" lon="-1.63894">
        <ele>50.4</ele>
        <time>2013-08-07T17:57:29Z</time>
      </trkpt>
      <trkpt lat="47.26961" lon="-1.63895">
        <ele>47.8</ele>
        <time>2013-08-07T17:57:31Z</time>
      </trkpt>
      <trkpt lat="47.26949" lon="-1.63897">
        <ele>45.8</ele>
        <time>2013-08-07T17:57:33Z</time>
      </trkpt>
      <trkpt lat="47.26938" lon="-1.63899">
        <ele>44.4</ele>
        <time>2013-08-07T17:57:35Z</time>
      </trkpt>
      <trkpt lat="47.26927" lon="-1.63902">
        <ele>43.3</ele>
        <time>2013-08-07T17:57:37Z</time>
      </trkpt>
      <trkpt lat="47.26918" lon="-1.63905">
        <ele>43.1</ele>
        <time>2013-08-07T17:57:39Z</time>
      </trkpt>
      <trkpt lat="47.26907" lon="-1.63907">
        <ele>43</ele>
        <time>2013-08-07T17:57:43Z</time>
      </trkpt>
      <trkpt lat="47.26899" lon="-1.63901">
        <ele>43.1</ele>
        <time>2013-08-07T17:57:46Z</time>
      </trkpt>
      <trkpt lat="47.26891" lon="-1.63882">
        <ele>43.2</ele>
        <time>2013-08-07T17:57:49Z</time>
      </trkpt>
      <trkpt lat="47.26887" lon="-1.63867">
        <ele>43.4</ele>
        <time>2013-08-07T17:57:51Z</time>
      </trkpt>
      <trkpt lat="47.26883" lon="-1.63855">
        <ele>43.5</ele>
        <time>2013-08-07T17:57:53Z</time>
      </trkpt>
      <trkpt lat="47.26873" lon="-1.63849">
        <ele>43.7</ele>
        <time>2013-08-07T17:58:00Z</time>
      </trkpt>
      <trkpt lat="47.26865" lon="-1.63856">
        <ele>43.9</ele>
        <time>2013-08-07T17:58:03Z</time>
      </trkpt>
      <trkpt lat="47.26857" lon="-1.63867">
        <ele>44</ele>
        <time>2013-08-07T17:58:07Z</time>
      </trkpt>
      <trkpt lat="47.26851" lon="-1.6388">
        <ele>43.6</ele>
        <time>2013-08-07T17:58:11Z</time>
      </trkpt>
      <trkpt lat="47.26844" lon="-1.6389">
        <ele>42.8</ele>
        <time>2013-08-07T17:58:15Z</time>
      </trkpt>
      <trkpt lat="47.26833" lon="-1.639">
        <ele>42</ele>
        <time>2013-08-07T17:58:19Z</time>
      </trkpt>
      <trkpt lat="47.26825" lon="-1.6391">
        <ele>41.3</ele>
        <time>2013-08-07T17:58:22Z</time>
      </trkpt>
      <trkpt lat="47.26817" lon="-1.63918">
        <ele>40.3</ele>
        <time>2013-08-07T17:58:25Z</time>
      </trkpt>
      <trkpt lat="47.26803" lon="-1.63924">
        <ele>34.9</ele>
        <time>2013-08-07T17:58:28Z</time>
      </trkpt>
      <trkpt lat="47.26792" lon="-1.63925">
        <ele>34.5</ele>
        <time>2013-08-07T17:58:30Z</time>
      </trkpt>
      <trkpt lat="47.26783" lon="-1.63925">
        <ele>34.2</ele>
        <time>2013-08-07T17:58:32Z</time>
      </trkpt>
      <trkpt lat="47.26772" lon="-1.63922">
        <ele>33.5</ele>
        <time>2013-08-07T17:58:35Z</time>
      </trkpt>
      <trkpt lat="47.26761" lon="-1.63916">
        <ele>32.9</ele>
        <time>2013-08-07T17:58:38Z</time>
      </trkpt>
      <trkpt lat="47.26748" lon="-1.63908">
        <ele>32.5</ele>
        <time>2013-08-07T17:58:41Z</time>
      </trkpt>
      <trkpt lat="47.26738" lon="-1.63903">
        <ele>32.1</ele>
        <time>2013-08-07T17:58:43Z</time>
      </trkpt>
      <trkpt lat="47.26733" lon="-1.63891">
        <ele>31.7</ele>
        <time>2013-08-07T17:58:47Z</time>
      </trkpt>
      <trkpt lat="47.2673" lon="-1.63877">
        <ele>31.3</ele>
        <time>2013-08-07T17:58:51Z</time>
      </trkpt>
      <trkpt lat="47.26728" lon="-1.63862">
        <ele>32</ele>
        <time>2013-08-07T17:59:11Z</time>
      </trkpt>
      <trkpt lat="47.26731" lon="-1.63848">
        <ele>32.1</ele>
        <time>2013-08-07T17:59:15Z</time>
      </trkpt>
      <trkpt lat="47.26731" lon="-1.63827">
        <ele>32.1</ele>
        <time>2013-08-07T17:59:19Z</time>
      </trkpt>
      <trkpt lat="47.26731" lon="-1.63808">
        <ele>32.5</ele>
        <time>2013-08-07T17:59:22Z</time>
      </trkpt>
      <trkpt lat="47.26732" lon="-1.63794">
        <ele>32.1</ele>
        <time>2013-08-07T17:59:24Z</time>
      </trkpt>
      <trkpt lat="47.26733" lon="-1.63778">
        <ele>32.2</ele>
        <time>2013-08-07T17:59:26Z</time>
      </trkpt>
      <trkpt lat="47.26734" lon="-1.63763">
        <ele>33</ele>
        <time>2013-08-07T17:59:28Z</time>
      </trkpt>
      <trkpt lat="47.26736" lon="-1.63746">
        <ele>33.3</ele>
        <time>2013-08-07T17:59:30Z</time>
      </trkpt>
      <trkpt lat="47.26738" lon="-1.63728">
        <ele>33.1</ele>
        <time>2013-08-07T17:59:32Z</time>
      </trkpt>
      <trkpt lat="47.26742" lon="-1.63713">
        <ele>33.7</ele>
        <time>2013-08-07T17:59:34Z</time>
      </trkpt>
      <trkpt lat="47.26749" lon="-1.637">
        <ele>34.7</ele>
        <time>2013-08-07T17:59:36Z</time>
      </trkpt>
      <trkpt lat="47.26755" lon="-1.63688">
        <ele>35.2</ele>
        <time>2013-08-07T17:59:38Z</time>
      </trkpt>
      <trkpt lat="47.26759" lon="-1.63676">
        <ele>35.3</ele>
        <time>2013-08-07T17:59:41Z</time>
      </trkpt>
      <trkpt lat="47.26763" lon="-1.63659">
        <ele>35.3</ele>
        <time>2013-08-07T17:59:46Z</time>
      </trkpt>
      <trkpt lat="47.26766" lon="-1.63645">
        <ele>35.4</ele>
        <time>2013-08-07T17:59:49Z</time>
      </trkpt>
      <trkpt lat="47.26771" lon="-1.63634">
        <ele>35.3</ele>
        <time>2013-08-07T17:59:52Z</time>
      </trkpt>
      <trkpt lat="47.26779" lon="-1.63623">
        <ele>34.9</ele>
        <time>2013-08-07T17:59:55Z</time>
      </trkpt>
      <trkpt lat="47.26787" lon="-1.63615">
        <ele>32.2</ele>
        <time>2013-08-07T17:59:57Z</time>
      </trkpt>
      <trkpt lat="47.26798" lon="-1.63605">
        <ele>31.1</ele>
        <time>2013-08-07T18:00:00Z</time>
      </trkpt>
      <trkpt lat="47.26806" lon="-1.63596">
        <ele>31.1</ele>
        <time>2013-08-07T18:00:03Z</time>
      </trkpt>
      <trkpt lat="47.26813" lon="-1.63582">
        <ele>31.4</ele>
        <time>2013-08-07T18:00:06Z</time>
      </trkpt>
      <trkpt lat="47.26819" lon="-1.63572">
        <ele>30.5</ele>
        <time>2013-08-07T18:00:08Z</time>
      </trkpt>
      <trkpt lat="47.26824" lon="-1.63559">
        <ele>29.5</ele>
        <time>2013-08-07T18:00:10Z</time>
      </trkpt>
      <trkpt lat="47.26831" lon="-1.63544">
        <ele>28.4</ele>
        <time>2013-08-07T18:00:12Z</time>
      </trkpt>
      <trkpt lat="47.26838" lon="-1.63528">
        <ele>26.5</ele>
        <time>2013-08-07T18:00:14Z</time>
      </trkpt>
      <trkpt lat="47.26845" lon="-1.63511">
        <ele>25.9</ele>
        <time>2013-08-07T18:00:16Z</time>
      </trkpt>
      <trkpt lat="47.26851" lon="-1.63496">
        <ele>24.6</ele>
        <time>2013-08-07T18:00:18Z</time>
      </trkpt>
      <trkpt lat="47.26856" lon="-1.63483">
        <ele>24.2</ele>
        <time>2013-08-07T18:00:20Z</time>
      </trkpt>
      <trkpt lat="47.26861" lon="-1.63468">
        <ele>24.6</ele>
        <time>2013-08-07T18:00:22Z</time>
      </trkpt>
      <trkpt lat="47.26864" lon="-1.63452">
        <ele>24.7</ele>
        <time>2013-08-07T18:00:24Z</time>
      </trkpt>
      <trkpt lat="47.26868" lon="-1.63438">
        <ele>25.7</ele>
        <time>2013-08-07T18:00:26Z</time>
      </trkpt>
      <trkpt lat="47.26872" lon="-1.63423">
        <ele>27.4</ele>
        <time>2013-08-07T18:00:28Z</time>
      </trkpt>
      <trkpt lat="47.26875" lon="-1.63407">
        <ele>28.3</ele>
        <time>2013-08-07T18:00:30Z</time>
      </trkpt>
      <trkpt lat="47.26874" lon="-1.6339">
        <ele>29.3</ele>
        <time>2013-08-07T18:00:32Z</time>
      </trkpt>
      <trkpt lat="47.26874" lon="-1.63373">
        <ele>29.1</ele>
        <time>2013-08-07T18:00:34Z</time>
      </trkpt>
      <trkpt lat="47.26883" lon="-1.63361">
        <ele>29.1</ele>
        <time>2013-08-07T18:00:37Z</time>
      </trkpt>
      <trkpt lat="47.26887" lon="-1.63349">
        <ele>28.7</ele>
        <time>2013-08-07T18:00:41Z</time>
      </trkpt>
      <trkpt lat="47.26886" lon="-1.63332">
        <ele>28.5</ele>
        <time>2013-08-07T18:00:45Z</time>
      </trkpt>
      <trkpt lat="47.26889" lon="-1.63316">
        <ele>26.2</ele>
        <time>2013-08-07T18:00:48Z</time>
      </trkpt>
      <trkpt lat="47.26892" lon="-1.63297">
        <ele>24.1</ele>
        <time>2013-08-07T18:00:51Z</time>
      </trkpt>
      <trkpt lat="47.26892" lon="-1.63278">
        <ele>22.9</ele>
        <time>2013-08-07T18:00:53Z</time>
      </trkpt>
      <trkpt lat="47.26891" lon="-1.63263">
        <ele>22.9</ele>
        <time>2013-08-07T18:00:55Z</time>
      </trkpt>
      <trkpt lat="47.26889" lon="-1.63248">
        <ele>22.5</ele>
        <time>2013-08-07T18:00:59Z</time>
      </trkpt>
      <trkpt lat="47.26888" lon="-1.63234">
        <ele>22.2</ele>
        <time>2013-08-07T18:01:03Z</time>
      </trkpt>
      <trkpt lat="47.26881" lon="-1.63224">
        <ele>22.2</ele>
        <time>2013-08-07T18:01:06Z</time>
      </trkpt>
      <trkpt lat="47.26872" lon="-1.63216">
        <ele>22</ele>
        <time>2013-08-07T18:01:11Z</time>
      </trkpt>
      <trkpt lat="47.26863" lon="-1.63205">
        <ele>22</ele>
        <time>2013-08-07T18:01:20Z</time>
      </trkpt>
      <trkpt lat="47.26867" lon="-1.63191">
        <ele>21.5</ele>
        <time>2013-08-07T18:01:42Z</time>
      </trkpt>
      <trkpt lat="47.26861" lon="-1.63179">
        <ele>21.5</ele>
        <time>2013-08-07T18:01:49Z</time>
      </trkpt>
      <trkpt lat="47.26855" lon="-1.63165">
        <ele>21.6</ele>
        <time>2013-08-07T18:01:54Z</time>
      </trkpt>
      <trkpt lat="47.2685" lon="-1.63153">
        <ele>21.8</ele>
        <time>2013-08-07T18:01:57Z</time>
      </trkpt>
      <trkpt lat="47.26843" lon="-1.63142">
        <ele>22</ele>
        <time>2013-08-07T18:02:00Z</time>
      </trkpt>
      <trkpt lat="47.26838" lon="-1.6313">
        <ele>22.1</ele>
        <time>2013-08-07T18:02:04Z</time>
      </trkpt>
      <trkpt lat="47.26834" lon="-1.63116">
        <ele>22.1</ele>
        <time>2013-08-07T18:02:07Z</time>
      </trkpt>
      <trkpt lat="47.26834" lon="-1.63099">
        <ele>21.7</ele>
        <time>2013-08-07T18:02:13Z</time>
      </trkpt>
      <trkpt lat="47.26829" lon="-1.63088">
        <ele>21.6</ele>
        <time>2013-08-07T18:02:23Z</time>
      </trkpt>
      <trkpt lat="47.26822" lon="-1.63074">
        <ele>21.9</ele>
        <time>2013-08-07T18:02:30Z</time>
      </trkpt>
      <trkpt lat="47.26811" lon="-1.63075">
        <ele>21.3</ele>
        <time>2013-08-07T18:02:35Z</time>
      </trkpt>
      <trkpt lat="47.26801" lon="-1.6307">
        <ele>21.2</ele>
        <time>2013-08-07T18:02:39Z</time>
      </trkpt>
      <trkpt lat="47.26791" lon="-1.63071">
        <ele>21.3</ele>
        <time>2013-08-07T18:02:43Z</time>
      </trkpt>
      <trkpt lat="47.26782" lon="-1.63074">
        <ele>21.4</ele>
        <time>2013-08-07T18:02:46Z</time>
      </trkpt>
      <trkpt lat="47.26771" lon="-1.63072">
        <ele>21.4</ele>
        <time>2013-08-07T18:02:50Z</time>
      </trkpt>
      <trkpt lat="47.26761" lon="-1.63069">
        <ele>21.5</ele>
        <time>2013-08-07T18:02:53Z</time>
      </trkpt>
      <trkpt lat="47.26752" lon="-1.63064">
        <ele>21.4</ele>
        <time>2013-08-07T18:02:55Z</time>
      </trkpt>
      <trkpt lat="47.26743" lon="-1.63059">
        <ele>20.9</ele>
        <time>2013-08-07T18:02:59Z</time>
      </trkpt>
      <trkpt lat="47.26738" lon="-1.63045">
        <ele>20.1</ele>
        <time>2013-08-07T18:03:04Z</time>
      </trkpt>
      <trkpt lat="47.26736" lon="-1.63028">
        <ele>18.8</ele>
        <time>2013-08-07T18:03:08Z</time>
      </trkpt>
      <trkpt lat="47.26738" lon="-1.63011">
        <ele>18.3</ele>
        <time>2013-08-07T18:03:10Z</time>
      </trkpt>
      <trkpt lat="47.26738" lon="-1.62994">
        <ele>17.8</ele>
        <time>2013-08-07T18:03:12Z</time>
      </trkpt>
      <trkpt lat="47.26736" lon="-1.62981">
        <ele>17.3</ele>
        <time>2013-08-07T18:03:14Z</time>
      </trkpt>
      <trkpt lat="47.26736" lon="-1.62966">
        <ele>16.8</ele>
        <time>2013-08-07T18:03:17Z</time>
      </trkpt>
      <trkpt lat="47.26738" lon="-1.62951">
        <ele>13.5</ele>
        <time>2013-08-07T18:03:42Z</time>
      </trkpt>
      <trkpt lat="47.26741" lon="-1.62933">
        <ele>12.5</ele>
        <time>2013-08-07T18:03:45Z</time>
      </trkpt>
      <trkpt lat="47.26745" lon="-1.62915">
        <ele>11.9</ele>
        <time>2013-08-07T18:03:48Z</time>
      </trkpt>
      <trkpt lat="47.26746" lon="-1.62899">
        <ele>11.7</ele>
        <time>2013-08-07T18:03:51Z</time>
      </trkpt>
      <trkpt lat="47.26748" lon="-1.62877">
        <ele>11.8</ele>
        <time>2013-08-07T18:03:54Z</time>
      </trkpt>
      <trkpt lat="47.26749" lon="-1.62863">
        <ele>12</ele>
        <time>2013-08-07T18:03:56Z</time>
      </trkpt>
      <trkpt lat="47.26744" lon="-1.62848">
        <ele>12.2</ele>
        <time>2013-08-07T18:03:59Z</time>
      </trkpt>
      <trkpt lat="47.26743" lon="-1.62834">
        <ele>12.3</ele>
        <time>2013-08-07T18:04:02Z</time>
      </trkpt>
      <trkpt lat="47.26741" lon="-1.62818">
        <ele>12</ele>
        <time>2013-08-07T18:04:05Z</time>
      </trkpt>
      <trkpt lat="47.26741" lon="-1.62802">
        <ele>11.6</ele>
        <time>2013-08-07T18:04:08Z</time>
      </trkpt>
      <trkpt lat="47.26739" lon="-1.62788">
        <ele>11</ele>
        <time>2013-08-07T18:04:11Z</time>
      </trkpt>
      <trkpt lat="47.26741" lon="-1.62772">
        <ele>10.3</ele>
        <time>2013-08-07T18:04:14Z</time>
      </trkpt>
      <trkpt lat="47.26739" lon="-1.62754">
        <ele>10.1</ele>
        <time>2013-08-07T18:04:17Z</time>
      </trkpt>
      <trkpt lat="47.26736" lon="-1.6274">
        <ele>9.9</ele>
        <time>2013-08-07T18:04:19Z</time>
      </trkpt>
      <trkpt lat="47.26734" lon="-1.62725">
        <ele>10</ele>
        <time>2013-08-07T18:04:22Z</time>
      </trkpt>
      <trkpt lat="47.26735" lon="-1.62711">
        <ele>9.9</ele>
        <time>2013-08-07T18:04:25Z</time>
      </trkpt>
      <trkpt lat="47.26736" lon="-1.62696">
        <ele>9.7</ele>
        <time>2013-08-07T18:04:28Z</time>
      </trkpt>
      <trkpt lat="47.26737" lon="-1.62679">
        <ele>9.6</ele>
        <time>2013-08-07T18:04:30Z</time>
      </trkpt>
      <trkpt lat="47.26737" lon="-1.62664">
        <ele>9.7</ele>
        <time>2013-08-07T18:04:33Z</time>
      </trkpt>
      <trkpt lat="47.26734" lon="-1.62647">
        <ele>9.6</ele>
        <time>2013-08-07T18:04:37Z</time>
      </trkpt>
      <trkpt lat="47.26735" lon="-1.62631">
        <ele>9.8</ele>
        <time>2013-08-07T18:04:40Z</time>
      </trkpt>
      <trkpt lat="47.26737" lon="-1.62616">
        <ele>10</ele>
        <time>2013-08-07T18:04:42Z</time>
      </trkpt>
      <trkpt lat="47.26739" lon="-1.62594">
        <ele>10</ele>
        <time>2013-08-07T18:04:44Z</time>
      </trkpt>
      <trkpt lat="47.26738" lon="-1.62578">
        <ele>10.4</ele>
        <time>2013-08-07T18:04:47Z</time>
      </trkpt>
      <trkpt lat="47.26736" lon="-1.62563">
        <ele>10.7</ele>
        <time>2013-08-07T18:04:49Z</time>
      </trkpt>
      <trkpt lat="47.26734" lon="-1.62545">
        <ele>10.8</ele>
        <time>2013-08-07T18:04:52Z</time>
      </trkpt>
      <trkpt lat="47.26733" lon="-1.62527">
        <ele>11.1</ele>
        <time>2013-08-07T18:04:55Z</time>
      </trkpt>
      <trkpt lat="47.26732" lon="-1.62503">
        <ele>11.4</ele>
        <time>2013-08-07T18:04:58Z</time>
      </trkpt>
      <trkpt lat="47.26732" lon="-1.6249">
        <ele>11.6</ele>
        <time>2013-08-07T18:05:00Z</time>
      </trkpt>
      <trkpt lat="47.26735" lon="-1.62475">
        <ele>11.8</ele>
        <time>2013-08-07T18:05:04Z</time>
      </trkpt>
      <trkpt lat="47.26739" lon="-1.62459">
        <ele>12</ele>
        <time>2013-08-07T18:05:07Z</time>
      </trkpt>
      <trkpt lat="47.26742" lon="-1.62446">
        <ele>12.4</ele>
        <time>2013-08-07T18:05:10Z</time>
      </trkpt>
      <trkpt lat="47.26744" lon="-1.62428">
        <ele>12.8</ele>
        <time>2013-08-07T18:05:13Z</time>
      </trkpt>
      <trkpt lat="47.26745" lon="-1.62412">
        <ele>13</ele>
        <time>2013-08-07T18:05:17Z</time>
      </trkpt>
      <trkpt lat="47.26745" lon="-1.62397">
        <ele>13.3</ele>
        <time>2013-08-07T18:05:21Z</time>
      </trkpt>
      <trkpt lat="47.26742" lon="-1.62383">
        <ele>14</ele>
        <time>2013-08-07T18:05:26Z</time>
      </trkpt>
      <trkpt lat="47.26742" lon="-1.62369">
        <ele>12.8</ele>
        <time>2013-08-07T18:05:47Z</time>
      </trkpt>
      <trkpt lat="47.26742" lon="-1.62355">
        <ele>23.3</ele>
        <time>2013-08-07T18:07:40Z</time>
      </trkpt>
      <trkpt lat="47.26744" lon="-1.62342">
        <ele>24.8</ele>
        <time>2013-08-07T18:08:08Z</time>
      </trkpt>
      <trkpt lat="47.26751" lon="-1.62333">
        <ele>23.6</ele>
        <time>2013-08-07T18:08:46Z</time>
      </trkpt>
      <trkpt lat="47.26759" lon="-1.62329">
        <ele>22.5</ele>
        <time>2013-08-07T18:09:06Z</time>
      </trkpt>
      <trkpt lat="47.26757" lon="-1.62315">
        <ele>21.8</ele>
        <time>2013-08-07T18:09:32Z</time>
      </trkpt>
      <trkpt lat="47.26759" lon="-1.62301">
        <ele>21.8</ele>
        <time>2013-08-07T18:09:39Z</time>
      </trkpt>
      <trkpt lat="47.26764" lon="-1.6229">
        <ele>22.1</ele>
        <time>2013-08-07T18:09:44Z</time>
      </trkpt>
      <trkpt lat="47.26769" lon="-1.62275">
        <ele>22.3</ele>
        <time>2013-08-07T18:09:48Z</time>
      </trkpt>
      <trkpt lat="47.26775" lon="-1.62262">
        <ele>22.4</ele>
        <time>2013-08-07T18:09:55Z</time>
      </trkpt>
      <trkpt lat="47.26782" lon="-1.62252">
        <ele>22.8</ele>
        <time>2013-08-07T18:09:59Z</time>
      </trkpt>
      <trkpt lat="47.26789" lon="-1.62244">
        <ele>22.9</ele>
        <time>2013-08-07T18:10:02Z</time>
      </trkpt>
      <trkpt lat="47.26797" lon="-1.62237">
        <ele>22.8</ele>
        <time>2013-08-07T18:10:05Z</time>
      </trkpt>
      <trkpt lat="47.26807" lon="-1.6223">
        <ele>22.3</ele>
        <time>2013-08-07T18:10:10Z</time>
      </trkpt>
      <trkpt lat="47.26817" lon="-1.62227">
        <ele>22.8</ele>
        <time>2013-08-07T18:10:15Z</time>
      </trkpt>
      <trkpt lat="47.26823" lon="-1.62215">
        <ele>23.5</ele>
        <time>2013-08-07T18:10:20Z</time>
      </trkpt>
      <trkpt lat="47.26827" lon="-1.62203">
        <ele>23.7</ele>
        <time>2013-08-07T18:10:23Z</time>
      </trkpt>
      <trkpt lat="47.2683" lon="-1.6219">
        <ele>23.6</ele>
        <time>2013-08-07T18:10:27Z</time>
      </trkpt>
      <trkpt lat="47.26832" lon="-1.62174">
        <ele>23.4</ele>
        <time>2013-08-07T18:10:31Z</time>
      </trkpt>
      <trkpt lat="47.26834" lon="-1.62159">
        <ele>23.5</ele>
        <time>2013-08-07T18:10:35Z</time>
      </trkpt>
      <trkpt lat="47.26836" lon="-1.62144">
        <ele>23.9</ele>
        <time>2013-08-07T18:10:39Z</time>
      </trkpt>
      <trkpt lat="47.26834" lon="-1.62131">
        <ele>24.1</ele>
        <time>2013-08-07T18:10:43Z</time>
      </trkpt>
      <trkpt lat="47.26831" lon="-1.62117">
        <ele>24.2</ele>
        <time>2013-08-07T18:10:49Z</time>
      </trkpt>
      <trkpt lat="47.26839" lon="-1.62108">
        <ele>23.7</ele>
        <time>2013-08-07T18:10:57Z</time>
      </trkpt>
      <trkpt lat="47.26849" lon="-1.62106">
        <ele>24.1</ele>
        <time>2013-08-07T18:11:03Z</time>
      </trkpt>
      <trkpt lat="47.26858" lon="-1.62099">
        <ele>24</ele>
        <time>2013-08-07T18:11:08Z</time>
      </trkpt>
      <trkpt lat="47.26867" lon="-1.62089">
        <ele>23.9</ele>
        <time>2013-08-07T18:11:13Z</time>
      </trkpt>
      <trkpt lat="47.26876" lon="-1.62084">
        <ele>24</ele>
        <time>2013-08-07T18:11:17Z</time>
      </trkpt>
      <trkpt lat="47.26875" lon="-1.62071">
        <ele>23.9</ele>
        <time>2013-08-07T18:11:23Z</time>
      </trkpt>
      <trkpt lat="47.26875" lon="-1.62055">
        <ele>24.3</ele>
        <time>2013-08-07T18:11:28Z</time>
      </trkpt>
      <trkpt lat="47.26878" lon="-1.6204">
        <ele>24.7</ele>
        <time>2013-08-07T18:11:34Z</time>
      </trkpt>
      <trkpt lat="47.26885" lon="-1.62028">
        <ele>25.1</ele>
        <time>2013-08-07T18:11:40Z</time>
      </trkpt>
      <trkpt lat="47.26892" lon="-1.62018">
        <ele>25.2</ele>
        <time>2013-08-07T18:11:45Z</time>
      </trkpt>
      <trkpt lat="47.26901" lon="-1.62009">
        <ele>25.3</ele>
        <time>2013-08-07T18:11:49Z</time>
      </trkpt>
      <trkpt lat="47.26911" lon="-1.62004">
        <ele>25.3</ele>
        <time>2013-08-07T18:11:53Z</time>
      </trkpt>
      <trkpt lat="47.2692" lon="-1.61997">
        <ele>25.3</ele>
        <time>2013-08-07T18:11:59Z</time>
      </trkpt>
      <trkpt lat="47.26928" lon="-1.61989">
        <ele>25.4</ele>
        <time>2013-08-07T18:12:02Z</time>
      </trkpt>
      <trkpt lat="47.26932" lon="-1.61975">
        <ele>25.1</ele>
        <time>2013-08-07T18:12:10Z</time>
      </trkpt>
      <trkpt lat="47.26929" lon="-1.61961">
        <ele>25.3</ele>
        <time>2013-08-07T18:12:18Z</time>
      </trkpt>
      <trkpt lat="47.26921" lon="-1.61953">
        <ele>27</ele>
        <time>2013-08-07T18:12:28Z</time>
      </trkpt>
      <trkpt lat="47.26912" lon="-1.6195">
        <ele>28.1</ele>
        <time>2013-08-07T18:12:34Z</time>
      </trkpt>
      <trkpt lat="47.26902" lon="-1.61949">
        <ele>29.6</ele>
        <time>2013-08-07T18:12:41Z</time>
      </trkpt>
      <trkpt lat="47.26893" lon="-1.61946">
        <ele>31</ele>
        <time>2013-08-07T18:12:46Z</time>
      </trkpt>
      <trkpt lat="47.26884" lon="-1.61944">
        <ele>33.2</ele>
        <time>2013-08-07T18:12:53Z</time>
      </trkpt>
      <trkpt lat="47.26876" lon="-1.61936">
        <ele>34.9</ele>
        <time>2013-08-07T18:13:01Z</time>
      </trkpt>
      <trkpt lat="47.26867" lon="-1.61937">
        <ele>36.2</ele>
        <time>2013-08-07T18:13:08Z</time>
      </trkpt>
      <trkpt lat="47.26858" lon="-1.6194">
        <ele>36.8</ele>
        <time>2013-08-07T18:13:13Z</time>
      </trkpt>
      <trkpt lat="47.26851" lon="-1.61929">
        <ele>37.4</ele>
        <time>2013-08-07T18:13:20Z</time>
      </trkpt>
      <trkpt lat="47.26853" lon="-1.61916">
        <ele>37.8</ele>
        <time>2013-08-07T18:13:28Z</time>
      </trkpt>
      <trkpt lat="47.26854" lon="-1.61899">
        <ele>38.3</ele>
        <time>2013-08-07T18:13:35Z</time>
      </trkpt>
      <trkpt lat="47.26856" lon="-1.61884">
        <ele>37.9</ele>
        <time>2013-08-07T18:13:40Z</time>
      </trkpt>
      <trkpt lat="47.26858" lon="-1.6187">
        <ele>37.1</ele>
        <time>2013-08-07T18:13:45Z</time>
      </trkpt>
      <trkpt lat="47.26863" lon="-1.61856">
        <ele>36.3</ele>
        <time>2013-08-07T18:13:50Z</time>
      </trkpt>
      <trkpt lat="47.26866" lon="-1.61843">
        <ele>35.9</ele>
        <time>2013-08-07T18:13:57Z</time>
      </trkpt>
      <trkpt lat="47.26868" lon="-1.61828">
        <ele>35.5</ele>
        <time>2013-08-07T18:14:06Z</time>
      </trkpt>
      <trkpt lat="47.26866" lon="-1.61815">
        <ele>35.1</ele>
        <time>2013-08-07T18:14:15Z</time>
      </trkpt>
      <trkpt lat="47.26861" lon="-1.61801">
        <ele>35.2</ele>
        <time>2013-08-07T18:14:20Z</time>
      </trkpt>
      <trkpt lat="47.26854" lon="-1.61788">
        <ele>36.2</ele>
        <time>2013-08-07T18:14:24Z</time>
      </trkpt>
      <trkpt lat="47.26847" lon="-1.61777">
        <ele>37.1</ele>
        <time>2013-08-07T18:14:28Z</time>
      </trkpt>
      <trkpt lat="47.26837" lon="-1.61768">
        <ele>37.9</ele>
        <time>2013-08-07T18:14:32Z</time>
      </trkpt>
      <trkpt lat="47.26829" lon="-1.61758">
        <ele>38.6</ele>
        <time>2013-08-07T18:14:39Z</time>
      </trkpt>
      <trkpt lat="47.26822" lon="-1.61746">
        <ele>39.4</ele>
        <time>2013-08-07T18:14:44Z</time>
      </trkpt>
      <trkpt lat="47.26818" lon="-1.61734">
        <ele>40.5</ele>
        <time>2013-08-07T18:14:49Z</time>
      </trkpt>
      <trkpt lat="47.26815" lon="-1.61721">
        <ele>42.4</ele>
        <time>2013-08-07T18:14:55Z</time>
      </trkpt>
      <trkpt lat="47.26808" lon="-1.61709">
        <ele>43.5</ele>
        <time>2013-08-07T18:15:00Z</time>
      </trkpt>
      <trkpt lat="47.268" lon="-1.61701">
        <ele>44.1</ele>
        <time>2013-08-07T18:15:04Z</time>
      </trkpt>
      <trkpt lat="47.26795" lon="-1.61713">
        <ele>44.5</ele>
        <time>2013-08-07T18:15:09Z</time>
      </trkpt>
      <trkpt lat="47.26786" lon="-1.61718">
        <ele>44.7</ele>
        <time>2013-08-07T18:15:14Z</time>
      </trkpt>
      <trkpt lat="47.26775" lon="-1.61719">
        <ele>44.8</ele>
        <time>2013-08-07T18:15:18Z</time>
      </trkpt>
      <trkpt lat="47.26769" lon="-1.61707">
        <ele>44.7</ele>
        <time>2013-08-07T18:15:23Z</time>
      </trkpt>
      <trkpt lat="47.26758" lon="-1.61701">
        <ele>44.1</ele>
        <time>2013-08-07T18:15:28Z</time>
      </trkpt>
      <trkpt lat="47.26748" lon="-1.61698">
        <ele>43.8</ele>
        <time>2013-08-07T18:15:32Z</time>
      </trkpt>
      <trkpt lat="47.26738" lon="-1.61698">
        <ele>43.5</ele>
        <time>2013-08-07T18:15:35Z</time>
      </trkpt>
      <trkpt lat="47.26727" lon="-1.61695">
        <ele>43.2</ele>
        <time>2013-08-07T18:15:38Z</time>
      </trkpt>
      <trkpt lat="47.26718" lon="-1.6169">
        <ele>42.9</ele>
        <time>2013-08-07T18:15:40Z</time>
      </trkpt>
      <trkpt lat="47.26707" lon="-1.6168">
        <ele>42.5</ele>
        <time>2013-08-07T18:15:42Z</time>
      </trkpt>
      <trkpt lat="47.26697" lon="-1.61673">
        <ele>42.1</ele>
        <time>2013-08-07T18:15:44Z</time>
      </trkpt>
      <trkpt lat="47.26687" lon="-1.61672">
        <ele>41.8</ele>
        <time>2013-08-07T18:15:47Z</time>
      </trkpt>
      <trkpt lat="47.26678" lon="-1.61669">
        <ele>41.5</ele>
        <time>2013-08-07T18:15:50Z</time>
      </trkpt>
      <trkpt lat="47.26669" lon="-1.61662">
        <ele>41.2</ele>
        <time>2013-08-07T18:15:53Z</time>
      </trkpt>
      <trkpt lat="47.26658" lon="-1.61653">
        <ele>40.9</ele>
        <time>2013-08-07T18:15:56Z</time>
      </trkpt>
      <trkpt lat="47.26655" lon="-1.61639">
        <ele>40.5</ele>
        <time>2013-08-07T18:16:00Z</time>
      </trkpt>
      <trkpt lat="47.26651" lon="-1.61626">
        <ele>39.8</ele>
        <time>2013-08-07T18:16:07Z</time>
      </trkpt>
      <trkpt lat="47.26643" lon="-1.61616">
        <ele>39.7</ele>
        <time>2013-08-07T18:16:11Z</time>
      </trkpt>
      <trkpt lat="47.26642" lon="-1.61603">
        <ele>39.8</ele>
        <time>2013-08-07T18:16:15Z</time>
      </trkpt>
      <trkpt lat="47.26638" lon="-1.61589">
        <ele>39.8</ele>
        <time>2013-08-07T18:16:21Z</time>
      </trkpt>
      <trkpt lat="47.26632" lon="-1.61578">
        <ele>40.1</ele>
        <time>2013-08-07T18:16:25Z</time>
      </trkpt>
      <trkpt lat="47.26626" lon="-1.61563">
        <ele>39.9</ele>
        <time>2013-08-07T18:16:29Z</time>
      </trkpt>
      <trkpt lat="47.26622" lon="-1.61548">
        <ele>39.5</ele>
        <time>2013-08-07T18:16:33Z</time>
      </trkpt>
      <trkpt lat="47.26621" lon="-1.61535">
        <ele>39.4</ele>
        <time>2013-08-07T18:16:38Z</time>
      </trkpt>
      <trkpt lat="47.26612" lon="-1.6153">
        <ele>39.4</ele>
        <time>2013-08-07T18:16:44Z</time>
      </trkpt>
      <trkpt lat="47.26601" lon="-1.61527">
        <ele>39.3</ele>
        <time>2013-08-07T18:16:48Z</time>
      </trkpt>
      <trkpt lat="47.26592" lon="-1.61526">
        <ele>39</ele>
        <time>2013-08-07T18:16:52Z</time>
      </trkpt>
      <trkpt lat="47.26581" lon="-1.6152">
        <ele>39.1</ele>
        <time>2013-08-07T18:16:56Z</time>
      </trkpt>
      <trkpt lat="47.26572" lon="-1.61516">
        <ele>39.1</ele>
        <time>2013-08-07T18:16:59Z</time>
      </trkpt>
      <trkpt lat="47.26563" lon="-1.61518">
        <ele>39.3</ele>
        <time>2013-08-07T18:17:04Z</time>
      </trkpt>
      <trkpt lat="47.26554" lon="-1.61522">
        <ele>38.8</ele>
        <time>2013-08-07T18:17:56Z</time>
      </trkpt>
      <trkpt lat="47.26549" lon="-1.61509">
        <ele>39</ele>
        <time>2013-08-07T18:18:03Z</time>
      </trkpt>
      <trkpt lat="47.26544" lon="-1.61498">
        <ele>39</ele>
        <time>2013-08-07T18:18:09Z</time>
      </trkpt>
      <trkpt lat="47.26536" lon="-1.6149">
        <ele>39</ele>
        <time>2013-08-07T18:18:16Z</time>
      </trkpt>
      <trkpt lat="47.26527" lon="-1.61485">
        <ele>38.9</ele>
        <time>2013-08-07T18:18:29Z</time>
      </trkpt>
      <trkpt lat="47.26522" lon="-1.61498">
        <ele>38.7</ele>
        <time>2013-08-07T18:18:42Z</time>
      </trkpt>
      <trkpt lat="47.26513" lon="-1.61495">
        <ele>37.7</ele>
        <time>2013-08-07T18:18:49Z</time>
      </trkpt>
      <trkpt lat="47.26506" lon="-1.61487">
        <ele>37.1</ele>
        <time>2013-08-07T18:18:53Z</time>
      </trkpt>
      <trkpt lat="47.26496" lon="-1.61483">
        <ele>36.7</ele>
        <time>2013-08-07T18:18:57Z</time>
      </trkpt>
      <trkpt lat="47.26485" lon="-1.61476">
        <ele>36.4</ele>
        <time>2013-08-07T18:19:00Z</time>
      </trkpt>
      <trkpt lat="47.26477" lon="-1.61467">
        <ele>35.9</ele>
        <time>2013-08-07T18:19:02Z</time>
      </trkpt>
      <trkpt lat="47.26466" lon="-1.61462">
        <ele>35.1</ele>
        <time>2013-08-07T18:19:06Z</time>
      </trkpt>
      <trkpt lat="47.26457" lon="-1.61458">
        <ele>34.5</ele>
        <time>2013-08-07T18:19:09Z</time>
      </trkpt>
      <trkpt lat="47.26447" lon="-1.61458">
        <ele>33.8</ele>
        <time>2013-08-07T18:19:12Z</time>
      </trkpt>
      <trkpt lat="47.26436" lon="-1.61452">
        <ele>33.3</ele>
        <time>2013-08-07T18:19:15Z</time>
      </trkpt>
      <trkpt lat="47.26428" lon="-1.61445">
        <ele>32.9</ele>
        <time>2013-08-07T18:19:17Z</time>
      </trkpt>
      <trkpt lat="47.26419" lon="-1.61434">
        <ele>32.3</ele>
        <time>2013-08-07T18:19:20Z</time>
      </trkpt>
      <trkpt lat="47.26408" lon="-1.61432">
        <ele>31</ele>
        <time>2013-08-07T18:19:25Z</time>
      </trkpt>
      <trkpt lat="47.26398" lon="-1.61425">
        <ele>30.4</ele>
        <time>2013-08-07T18:19:28Z</time>
      </trkpt>
      <trkpt lat="47.26389" lon="-1.61417">
        <ele>30</ele>
        <time>2013-08-07T18:19:30Z</time>
      </trkpt>
      <trkpt lat="47.26381" lon="-1.61406">
        <ele>29.6</ele>
        <time>2013-08-07T18:19:33Z</time>
      </trkpt>
      <trkpt lat="47.26375" lon="-1.61395">
        <ele>28.8</ele>
        <time>2013-08-07T18:19:36Z</time>
      </trkpt>
      <trkpt lat="47.26369" lon="-1.61382">
        <ele>27.5</ele>
        <time>2013-08-07T18:19:41Z</time>
      </trkpt>
      <trkpt lat="47.2637" lon="-1.61368">
        <ele>26.6</ele>
        <time>2013-08-07T18:19:44Z</time>
      </trkpt>
      <trkpt lat="47.26371" lon="-1.61352">
        <ele>25.7</ele>
        <time>2013-08-07T18:19:48Z</time>
      </trkpt>
      <trkpt lat="47.26372" lon="-1.61336">
        <ele>24.8</ele>
        <time>2013-08-07T18:19:52Z</time>
      </trkpt>
      <trkpt lat="47.26375" lon="-1.6132">
        <ele>23.9</ele>
        <time>2013-08-07T18:19:56Z</time>
      </trkpt>
      <trkpt lat="47.26379" lon="-1.61304">
        <ele>23</ele>
        <time>2013-08-07T18:20:00Z</time>
      </trkpt>
      <trkpt lat="47.26382" lon="-1.6129">
        <ele>22.5</ele>
        <time>2013-08-07T18:20:03Z</time>
      </trkpt>
      <trkpt lat="47.26385" lon="-1.61275">
        <ele>22</ele>
        <time>2013-08-07T18:20:06Z</time>
      </trkpt>
      <trkpt lat="47.26392" lon="-1.61258">
        <ele>21.2</ele>
        <time>2013-08-07T18:20:10Z</time>
      </trkpt>
      <trkpt lat="47.26401" lon="-1.61247">
        <ele>20.7</ele>
        <time>2013-08-07T18:20:13Z</time>
      </trkpt>
      <trkpt lat="47.26411" lon="-1.61235">
        <ele>20.2</ele>
        <time>2013-08-07T18:20:16Z</time>
      </trkpt>
      <trkpt lat="47.26418" lon="-1.61226">
        <ele>19.8</ele>
        <time>2013-08-07T18:20:19Z</time>
      </trkpt>
      <trkpt lat="47.26426" lon="-1.61217">
        <ele>19.4</ele>
        <time>2013-08-07T18:20:22Z</time>
      </trkpt>
      <trkpt lat="47.26435" lon="-1.61205">
        <ele>19</ele>
        <time>2013-08-07T18:20:25Z</time>
      </trkpt>
      <trkpt lat="47.26444" lon="-1.61193">
        <ele>18.5</ele>
        <time>2013-08-07T18:20:28Z</time>
      </trkpt>
      <trkpt lat="47.26451" lon="-1.61177">
        <ele>17</ele>
        <time>2013-08-07T18:20:31Z</time>
      </trkpt>
      <trkpt lat="47.26457" lon="-1.61162">
        <ele>16.6</ele>
        <time>2013-08-07T18:20:34Z</time>
      </trkpt>
      <trkpt lat="47.26461" lon="-1.6115">
        <ele>16.4</ele>
        <time>2013-08-07T18:20:37Z</time>
      </trkpt>
      <trkpt lat="47.26465" lon="-1.61137">
        <ele>16.3</ele>
        <time>2013-08-07T18:20:40Z</time>
      </trkpt>
      <trkpt lat="47.26469" lon="-1.61125">
        <ele>16.4</ele>
        <time>2013-08-07T18:20:43Z</time>
      </trkpt>
      <trkpt lat="47.26473" lon="-1.61107">
        <ele>16.3</ele>
        <time>2013-08-07T18:20:46Z</time>
      </trkpt>
      <trkpt lat="47.26474" lon="-1.61092">
        <ele>16</ele>
        <time>2013-08-07T18:20:49Z</time>
      </trkpt>
      <trkpt lat="47.26474" lon="-1.61076">
        <ele>15.8</ele>
        <time>2013-08-07T18:20:52Z</time>
      </trkpt>
      <trkpt lat="47.26474" lon="-1.6106">
        <ele>15.6</ele>
        <time>2013-08-07T18:20:55Z</time>
      </trkpt>
      <trkpt lat="47.26473" lon="-1.61043">
        <ele>15.5</ele>
        <time>2013-08-07T18:20:58Z</time>
      </trkpt>
      <trkpt lat="47.26473" lon="-1.61027">
        <ele>15.4</ele>
        <time>2013-08-07T18:21:01Z</time>
      </trkpt>
      <trkpt lat="47.26473" lon="-1.61011">
        <ele>15.4</ele>
        <time>2013-08-07T18:21:04Z</time>
      </trkpt>
      <trkpt lat="47.26472" lon="-1.60997">
        <ele>15.3</ele>
        <time>2013-08-07T18:21:07Z</time>
      </trkpt>
      <trkpt lat="47.26469" lon="-1.60981">
        <ele>15.2</ele>
        <time>2013-08-07T18:21:10Z</time>
      </trkpt>
      <trkpt lat="47.26463" lon="-1.60968">
        <ele>15</ele>
        <time>2013-08-07T18:21:13Z</time>
      </trkpt>
      <trkpt lat="47.26457" lon="-1.60956">
        <ele>14.8</ele>
        <time>2013-08-07T18:21:16Z</time>
      </trkpt>
      <trkpt lat="47.26451" lon="-1.60944">
        <ele>14.6</ele>
        <time>2013-08-07T18:21:19Z</time>
      </trkpt>
      <trkpt lat="47.26443" lon="-1.60931">
        <ele>13.7</ele>
        <time>2013-08-07T18:21:22Z</time>
      </trkpt>
      <trkpt lat="47.26435" lon="-1.60917">
        <ele>12.3</ele>
        <time>2013-08-07T18:21:25Z</time>
      </trkpt>
      <trkpt lat="47.26429" lon="-1.60905">
        <ele>11.4</ele>
        <time>2013-08-07T18:21:28Z</time>
      </trkpt>
      <trkpt lat="47.26421" lon="-1.60891">
        <ele>10.5</ele>
        <time>2013-08-07T18:21:31Z</time>
      </trkpt>
      <trkpt lat="47.26414" lon="-1.60877">
        <ele>10</ele>
        <time>2013-08-07T18:21:34Z</time>
      </trkpt>
      <trkpt lat="47.26407" lon="-1.60865">
        <ele>9.1</ele>
        <time>2013-08-07T18:21:37Z</time>
      </trkpt>
      <trkpt lat="47.26401" lon="-1.60849">
        <ele>9.6</ele>
        <time>2013-08-07T18:21:40Z</time>
      </trkpt>
      <trkpt lat="47.26394" lon="-1.60832">
        <ele>10.9</ele>
        <time>2013-08-07T18:21:43Z</time>
      </trkpt>
      <trkpt lat="47.2639" lon="-1.60815">
        <ele>10.8</ele>
        <time>2013-08-07T18:21:46Z</time>
      </trkpt>
      <trkpt lat="47.26382" lon="-1.60805">
        <ele>10.8</ele>
        <time>2013-08-07T18:21:49Z</time>
      </trkpt>
      <trkpt lat="47.26372" lon="-1.60808">
        <ele>10.9</ele>
        <time>2013-08-07T18:21:52Z</time>
      </trkpt>
      <trkpt lat="47.26364" lon="-1.60815">
        <ele>11</ele>
        <time>2013-08-07T18:21:55Z</time>
      </trkpt>
      <trkpt lat="47.26356" lon="-1.60823">
        <ele>11.4</ele>
        <time>2013-08-07T18:21:59Z</time>
      </trkpt>
      <trkpt lat="47.26348" lon="-1.60832">
        <ele>11.8</ele>
        <time>2013-08-07T18:22:03Z</time>
      </trkpt>
      <trkpt lat="47.2634" lon="-1.60843">
        <ele>12.3</ele>
        <time>2013-08-07T18:22:08Z</time>
      </trkpt>
      <trkpt lat="47.26332" lon="-1.60854">
        <ele>13</ele>
        <time>2013-08-07T18:22:13Z</time>
      </trkpt>
      <trkpt lat="47.26324" lon="-1.60861">
        <ele>13.7</ele>
        <time>2013-08-07T18:22:18Z</time>
      </trkpt>
      <trkpt lat="47.26324" lon="-1.60846">
        <ele>13.7</ele>
        <time>2013-08-07T18:22:22Z</time>
      </trkpt>
      <trkpt lat="47.26331" lon="-1.60832">
        <ele>13.7</ele>
        <time>2013-08-07T18:22:25Z</time>
      </trkpt>
      <trkpt lat="47.26336" lon="-1.60818">
        <ele>13.8</ele>
        <time>2013-08-07T18:22:28Z</time>
      </trkpt>
      <trkpt lat="47.26341" lon="-1.60804">
        <ele>13.8</ele>
        <time>2013-08-07T18:22:31Z</time>
      </trkpt>
      <trkpt lat="47.26345" lon="-1.60789">
        <ele>13.8</ele>
        <time>2013-08-07T18:22:34Z</time>
      </trkpt>
      <trkpt lat="47.26347" lon="-1.60775">
        <ele>13.8</ele>
        <time>2013-08-07T18:22:37Z</time>
      </trkpt>
      <trkpt lat="47.26349" lon="-1.60757">
        <ele>13.8</ele>
        <time>2013-08-07T18:22:40Z</time>
      </trkpt>
      <trkpt lat="47.26353" lon="-1.60741">
        <ele>13.6</ele>
        <time>2013-08-07T18:22:43Z</time>
      </trkpt>
      <trkpt lat="47.26357" lon="-1.60728">
        <ele>13.3</ele>
        <time>2013-08-07T18:22:45Z</time>
      </trkpt>
      <trkpt lat="47.26361" lon="-1.60712">
        <ele>13.9</ele>
        <time>2013-08-07T18:22:48Z</time>
      </trkpt>
      <trkpt lat="47.26363" lon="-1.60694">
        <ele>14</ele>
        <time>2013-08-07T18:22:51Z</time>
      </trkpt>
      <trkpt lat="47.26359" lon="-1.60677">
        <ele>14</ele>
        <time>2013-08-07T18:22:54Z</time>
      </trkpt>
      <trkpt lat="47.26354" lon="-1.60666">
        <ele>13.9</ele>
        <time>2013-08-07T18:22:57Z</time>
      </trkpt>
      <trkpt lat="47.26345" lon="-1.60652">
        <ele>13.7</ele>
        <time>2013-08-07T18:23:00Z</time>
      </trkpt>
      <trkpt lat="47.26338" lon="-1.60642">
        <ele>12.9</ele>
        <time>2013-08-07T18:23:02Z</time>
      </trkpt>
      <trkpt lat="47.26328" lon="-1.60644">
        <ele>11.9</ele>
        <time>2013-08-07T18:23:04Z</time>
      </trkpt>
      <trkpt lat="47.26318" lon="-1.6065">
        <ele>11.8</ele>
        <time>2013-08-07T18:23:07Z</time>
      </trkpt>
      <trkpt lat="47.2631" lon="-1.60639">
        <ele>11.3</ele>
        <time>2013-08-07T18:23:11Z</time>
      </trkpt>
      <trkpt lat="47.26304" lon="-1.60628">
        <ele>11</ele>
        <time>2013-08-07T18:23:14Z</time>
      </trkpt>
      <trkpt lat="47.26298" lon="-1.60616">
        <ele>10.8</ele>
        <time>2013-08-07T18:23:17Z</time>
      </trkpt>
      <trkpt lat="47.26289" lon="-1.60611">
        <ele>10.9</ele>
        <time>2013-08-07T18:23:20Z</time>
      </trkpt>
      <trkpt lat="47.26278" lon="-1.60612">
        <ele>11.8</ele>
        <time>2013-08-07T18:23:23Z</time>
      </trkpt>
      <trkpt lat="47.26277" lon="-1.60626">
        <ele>11.8</ele>
        <time>2013-08-07T18:23:28Z</time>
      </trkpt>
      <trkpt lat="47.26277" lon="-1.60639">
        <ele>11.2</ele>
        <time>2013-08-07T18:23:30Z</time>
      </trkpt>
      <trkpt lat="47.26274" lon="-1.60655">
        <ele>10.6</ele>
        <time>2013-08-07T18:23:32Z</time>
      </trkpt>
      <trkpt lat="47.2627" lon="-1.60671">
        <ele>10.5</ele>
        <time>2013-08-07T18:23:34Z</time>
      </trkpt>
      <trkpt lat="47.26265" lon="-1.6069">
        <ele>9.9</ele>
        <time>2013-08-07T18:23:36Z</time>
      </trkpt>
      <trkpt lat="47.2626" lon="-1.60701">
        <ele>10.8</ele>
        <time>2013-08-07T18:23:38Z</time>
      </trkpt>
      <trkpt lat="47.26253" lon="-1.60712">
        <ele>11.4</ele>
        <time>2013-08-07T18:23:40Z</time>
      </trkpt>
      <trkpt lat="47.26244" lon="-1.60724">
        <ele>12.1</ele>
        <time>2013-08-07T18:23:43Z</time>
      </trkpt>
      <trkpt lat="47.26232" lon="-1.60728">
        <ele>12.2</ele>
        <time>2013-08-07T18:23:46Z</time>
      </trkpt>
      <trkpt lat="47.26222" lon="-1.60726">
        <ele>12.3</ele>
        <time>2013-08-07T18:23:49Z</time>
      </trkpt>
      <trkpt lat="47.26209" lon="-1.60719">
        <ele>12.2</ele>
        <time>2013-08-07T18:23:52Z</time>
      </trkpt>
      <trkpt lat="47.262" lon="-1.60714">
        <ele>12.9</ele>
        <time>2013-08-07T18:23:54Z</time>
      </trkpt>
      <trkpt lat="47.26188" lon="-1.60714">
        <ele>14.2</ele>
        <time>2013-08-07T18:23:57Z</time>
      </trkpt>
      <trkpt lat="47.26178" lon="-1.60716">
        <ele>14.3</ele>
        <time>2013-08-07T18:24:00Z</time>
      </trkpt>
      <trkpt lat="47.26166" lon="-1.60715">
        <ele>14.4</ele>
        <time>2013-08-07T18:24:03Z</time>
      </trkpt>
      <trkpt lat="47.26156" lon="-1.6071">
        <ele>14.3</ele>
        <time>2013-08-07T18:24:06Z</time>
      </trkpt>
      <trkpt lat="47.26145" lon="-1.60706">
        <ele>14.1</ele>
        <time>2013-08-07T18:24:09Z</time>
      </trkpt>
      <trkpt lat="47.26136" lon="-1.60704">
        <ele>14</ele>
        <time>2013-08-07T18:24:12Z</time>
      </trkpt>
      <trkpt lat="47.26126" lon="-1.60707">
        <ele>13.9</ele>
        <time>2013-08-07T18:24:16Z</time>
      </trkpt>
      <trkpt lat="47.26116" lon="-1.60706">
        <ele>14.1</ele>
        <time>2013-08-07T18:24:22Z</time>
      </trkpt>
      <trkpt lat="47.26107" lon="-1.60704">
        <ele>14.6</ele>
        <time>2013-08-07T18:24:29Z</time>
      </trkpt>
      <trkpt lat="47.26097" lon="-1.60707">
        <ele>15.1</ele>
        <time>2013-08-07T18:24:37Z</time>
      </trkpt>
      <trkpt lat="47.26088" lon="-1.60711">
        <ele>15.7</ele>
        <time>2013-08-07T18:24:44Z</time>
      </trkpt>
      <trkpt lat="47.26076" lon="-1.60707">
        <ele>16.8</ele>
        <time>2013-08-07T18:24:53Z</time>
      </trkpt>
      <trkpt lat="47.26067" lon="-1.60704">
        <ele>17.3</ele>
        <time>2013-08-07T18:24:57Z</time>
      </trkpt>
      <trkpt lat="47.26058" lon="-1.60699">
        <ele>17.5</ele>
        <time>2013-08-07T18:25:04Z</time>
      </trkpt>
      <trkpt lat="47.26048" lon="-1.60699">
        <ele>17.1</ele>
        <time>2013-08-07T18:25:11Z</time>
      </trkpt>
      <trkpt lat="47.26038" lon="-1.60699">
        <ele>18.3</ele>
        <time>2013-08-07T18:25:36Z</time>
      </trkpt>
      <trkpt lat="47.26029" lon="-1.60697">
        <ele>18.7</ele>
        <time>2013-08-07T18:25:44Z</time>
      </trkpt>
      <trkpt lat="47.26019" lon="-1.60699">
        <ele>19.1</ele>
        <time>2013-08-07T18:25:53Z</time>
      </trkpt>
      <trkpt lat="47.2601" lon="-1.60697">
        <ele>21.1</ele>
        <time>2013-08-07T18:26:34Z</time>
      </trkpt>
      <trkpt lat="47.26002" lon="-1.60703">
        <ele>21.5</ele>
        <time>2013-08-07T18:26:42Z</time>
      </trkpt>
      <trkpt lat="47.25992" lon="-1.60707">
        <ele>22.7</ele>
        <time>2013-08-07T18:27:27Z</time>
      </trkpt>
      <trkpt lat="47.25982" lon="-1.60706">
        <ele>22.6</ele>
        <time>2013-08-07T18:27:35Z</time>
      </trkpt>
      <trkpt lat="47.25972" lon="-1.60708">
        <ele>22.3</ele>
        <time>2013-08-07T18:27:42Z</time>
      </trkpt>
      <trkpt lat="47.25961" lon="-1.60711">
        <ele>22.2</ele>
        <time>2013-08-07T18:27:50Z</time>
      </trkpt>
      <trkpt lat="47.25952" lon="-1.60716">
        <ele>22.8</ele>
        <time>2013-08-07T18:27:55Z</time>
      </trkpt>
      <trkpt lat="47.25941" lon="-1.6072">
        <ele>23.4</ele>
        <time>2013-08-07T18:28:00Z</time>
      </trkpt>
      <trkpt lat="47.25932" lon="-1.60726">
        <ele>23.8</ele>
        <time>2013-08-07T18:28:03Z</time>
      </trkpt>
      <trkpt lat="47.25922" lon="-1.60736">
        <ele>24.3</ele>
        <time>2013-08-07T18:28:08Z</time>
      </trkpt>
      <trkpt lat="47.25913" lon="-1.6074">
        <ele>24.9</ele>
        <time>2013-08-07T18:28:15Z</time>
      </trkpt>
      <trkpt lat="47.25906" lon="-1.60751">
        <ele>25.4</ele>
        <time>2013-08-07T18:28:24Z</time>
      </trkpt>
      <trkpt lat="47.25898" lon="-1.60758">
        <ele>25.5</ele>
        <time>2013-08-07T18:28:34Z</time>
      </trkpt>
      <trkpt lat="47.2589" lon="-1.60766">
        <ele>25.8</ele>
        <time>2013-08-07T18:28:40Z</time>
      </trkpt>
      <trkpt lat="47.25882" lon="-1.60774">
        <ele>26.1</ele>
        <time>2013-08-07T18:28:47Z</time>
      </trkpt>
      <trkpt lat="47.25875" lon="-1.60783">
        <ele>25.9</ele>
        <time>2013-08-07T18:28:57Z</time>
      </trkpt>
      <trkpt lat="47.25867" lon="-1.6079">
        <ele>25.7</ele>
        <time>2013-08-07T18:29:07Z</time>
      </trkpt>
      <trkpt lat="47.25859" lon="-1.60797">
        <ele>25.2</ele>
        <time>2013-08-07T18:29:15Z</time>
      </trkpt>
      <trkpt lat="47.2585" lon="-1.60792">
        <ele>22.9</ele>
        <time>2013-08-07T18:30:43Z</time>
      </trkpt>
      <trkpt lat="47.25854" lon="-1.60779">
        <ele>22.2</ele>
        <time>2013-08-07T18:30:54Z</time>
      </trkpt>
      <trkpt lat="47.25855" lon="-1.60766">
        <ele>23.5</ele>
        <time>2013-08-07T18:31:03Z</time>
      </trkpt>
      <trkpt lat="47.2585" lon="-1.60754">
        <ele>24.4</ele>
        <time>2013-08-07T18:31:13Z</time>
      </trkpt>
      <trkpt lat="47.25853" lon="-1.6074">
        <ele>23.1</ele>
        <time>2013-08-07T18:31:29Z</time>
      </trkpt>
      <trkpt lat="47.25856" lon="-1.60727">
        <ele>20.2</ele>
        <time>2013-08-07T18:31:41Z</time>
      </trkpt>
      <trkpt lat="47.25852" lon="-1.60712">
        <ele>19.9</ele>
        <time>2013-08-07T18:31:52Z</time>
      </trkpt>
      <trkpt lat="47.25843" lon="-1.60707">
        <ele>21.9</ele>
        <time>2013-08-07T18:31:59Z</time>
      </trkpt>
      <trkpt lat="47.25833" lon="-1.60705">
        <ele>24.7</ele>
        <time>2013-08-07T18:32:06Z</time>
      </trkpt>
      <trkpt lat="47.25824" lon="-1.60705">
        <ele>26.6</ele>
        <time>2013-08-07T18:32:11Z</time>
      </trkpt>
      <trkpt lat="47.25814" lon="-1.60706">
        <ele>27.7</ele>
        <time>2013-08-07T18:32:15Z</time>
      </trkpt>
      <trkpt lat="47.25804" lon="-1.60708">
        <ele>28.6</ele>
        <time>2013-08-07T18:32:19Z</time>
      </trkpt>
      <trkpt lat="47.25795" lon="-1.60709">
        <ele>29.4</ele>
        <time>2013-08-07T18:32:23Z</time>
      </trkpt>
      <trkpt lat="47.25784" lon="-1.60707">
        <ele>30.4</ele>
        <time>2013-08-07T18:32:28Z</time>
      </trkpt>
      <trkpt lat="47.25774" lon="-1.60704">
        <ele>31.4</ele>
        <time>2013-08-07T18:32:33Z</time>
      </trkpt>
      <trkpt lat="47.25764" lon="-1.60703">
        <ele>32</ele>
        <time>2013-08-07T18:32:37Z</time>
      </trkpt>
      <trkpt lat="47.25754" lon="-1.60699">
        <ele>32.8</ele>
        <time>2013-08-07T18:32:41Z</time>
      </trkpt>
      <trkpt lat="47.25744" lon="-1.60696">
        <ele>33.9</ele>
        <time>2013-08-07T18:32:46Z</time>
      </trkpt>
      <trkpt lat="47.25735" lon="-1.60692">
        <ele>34.9</ele>
        <time>2013-08-07T18:32:50Z</time>
      </trkpt>
      <trkpt lat="47.25727" lon="-1.60685">
        <ele>36.1</ele>
        <time>2013-08-07T18:32:54Z</time>
      </trkpt>
      <trkpt lat="47.2572" lon="-1.60677">
        <ele>36.5</ele>
        <time>2013-08-07T18:32:58Z</time>
      </trkpt>
      <trkpt lat="47.25712" lon="-1.60667">
        <ele>36.7</ele>
        <time>2013-08-07T18:33:02Z</time>
      </trkpt>
      <trkpt lat="47.25704" lon="-1.60674">
        <ele>37.2</ele>
        <time>2013-08-07T18:33:09Z</time>
      </trkpt>
      <trkpt lat="47.25703" lon="-1.60688">
        <ele>37.4</ele>
        <time>2013-08-07T18:33:13Z</time>
      </trkpt>
      <trkpt lat="47.25702" lon="-1.60702">
        <ele>37.3</ele>
        <time>2013-08-07T18:33:16Z</time>
      </trkpt>
      <trkpt lat="47.25703" lon="-1.60716">
        <ele>37</ele>
        <time>2013-08-07T18:33:21Z</time>
      </trkpt>
      <trkpt lat="47.25696" lon="-1.60724">
        <ele>36.9</ele>
        <time>2013-08-07T18:33:37Z</time>
      </trkpt>
      <trkpt lat="47.257" lon="-1.60737">
        <ele>36</ele>
        <time>2013-08-07T18:34:18Z</time>
      </trkpt>
      <trkpt lat="47.25702" lon="-1.60751">
        <ele>36.3</ele>
        <time>2013-08-07T18:34:25Z</time>
      </trkpt>
      <trkpt lat="47.25704" lon="-1.60765">
        <ele>36.2</ele>
        <time>2013-08-07T18:34:30Z</time>
      </trkpt>
      <trkpt lat="47.25705" lon="-1.60779">
        <ele>36.2</ele>
        <time>2013-08-07T18:34:35Z</time>
      </trkpt>
      <trkpt lat="47.25707" lon="-1.60795">
        <ele>36.5</ele>
        <time>2013-08-07T18:34:40Z</time>
      </trkpt>
      <trkpt lat="47.25709" lon="-1.60809">
        <ele>36.6</ele>
        <time>2013-08-07T18:34:44Z</time>
      </trkpt>
      <trkpt lat="47.25711" lon="-1.60824">
        <ele>36.5</ele>
        <time>2013-08-07T18:34:48Z</time>
      </trkpt>
      <trkpt lat="47.25713" lon="-1.60837">
        <ele>36.5</ele>
        <time>2013-08-07T18:34:51Z</time>
      </trkpt>
      <trkpt lat="47.25713" lon="-1.60851">
        <ele>36.6</ele>
        <time>2013-08-07T18:34:54Z</time>
      </trkpt>
      <trkpt lat="47.25713" lon="-1.60866">
        <ele>36.7</ele>
        <time>2013-08-07T18:34:57Z</time>
      </trkpt>
      <trkpt lat="47.25716" lon="-1.60879">
        <ele>37</ele>
        <time>2013-08-07T18:35:01Z</time>
      </trkpt>
      <trkpt lat="47.25721" lon="-1.60891">
        <ele>37.4</ele>
        <time>2013-08-07T18:35:06Z</time>
      </trkpt>
      <trkpt lat="47.25715" lon="-1.60901">
        <ele>37.3</ele>
        <time>2013-08-07T18:35:13Z</time>
      </trkpt>
      <trkpt lat="47.25706" lon="-1.60901">
        <ele>37.4</ele>
        <time>2013-08-07T18:35:16Z</time>
      </trkpt>
      <trkpt lat="47.25695" lon="-1.60899">
        <ele>37.7</ele>
        <time>2013-08-07T18:35:20Z</time>
      </trkpt>
      <trkpt lat="47.25684" lon="-1.60896">
        <ele>38</ele>
        <time>2013-08-07T18:35:25Z</time>
      </trkpt>
      <trkpt lat="47.25675" lon="-1.60891">
        <ele>38.1</ele>
        <time>2013-08-07T18:35:29Z</time>
      </trkpt>
      <trkpt lat="47.25666" lon="-1.60883">
        <ele>38.3</ele>
        <time>2013-08-07T18:35:33Z</time>
      </trkpt>
      <trkpt lat="47.25658" lon="-1.60875">
        <ele>38.6</ele>
        <time>2013-08-07T18:35:37Z</time>
      </trkpt>
      <trkpt lat="47.25648" lon="-1.60868">
        <ele>39</ele>
        <time>2013-08-07T18:35:42Z</time>
      </trkpt>
      <trkpt lat="47.25639" lon="-1.60866">
        <ele>39.3</ele>
        <time>2013-08-07T18:35:46Z</time>
      </trkpt>
      <trkpt lat="47.25631" lon="-1.60877">
        <ele>39.7</ele>
        <time>2013-08-07T18:35:50Z</time>
      </trkpt>
      <trkpt lat="47.25631" lon="-1.60892">
        <ele>40.1</ele>
        <time>2013-08-07T18:35:54Z</time>
      </trkpt>
      <trkpt lat="47.25636" lon="-1.60904">
        <ele>40.1</ele>
        <time>2013-08-07T18:36:00Z</time>
      </trkpt>
      <trkpt lat="47.25641" lon="-1.60916">
        <ele>40.1</ele>
        <time>2013-08-07T18:36:04Z</time>
      </trkpt>
      <trkpt lat="47.25644" lon="-1.60928">
        <ele>40.1</ele>
        <time>2013-08-07T18:36:07Z</time>
      </trkpt>
      <trkpt lat="47.2565" lon="-1.60946">
        <ele>40</ele>
        <time>2013-08-07T18:36:10Z</time>
      </trkpt>
      <trkpt lat="47.25659" lon="-1.60961">
        <ele>39.8</ele>
        <time>2013-08-07T18:36:13Z</time>
      </trkpt>
      <trkpt lat="47.25668" lon="-1.60968">
        <ele>39.2</ele>
        <time>2013-08-07T18:36:15Z</time>
      </trkpt>
      <trkpt lat="47.25677" lon="-1.60976">
        <ele>38</ele>
        <time>2013-08-07T18:36:17Z</time>
      </trkpt>
      <trkpt lat="47.25683" lon="-1.60988">
        <ele>37.7</ele>
        <time>2013-08-07T18:36:20Z</time>
      </trkpt>
      <trkpt lat="47.25679" lon="-1.61002">
        <ele>37</ele>
        <time>2013-08-07T18:36:25Z</time>
      </trkpt>
      <trkpt lat="47.25682" lon="-1.61016">
        <ele>37.1</ele>
        <time>2013-08-07T18:36:35Z</time>
      </trkpt>
      <trkpt lat="47.25687" lon="-1.61029">
        <ele>37.1</ele>
        <time>2013-08-07T18:36:40Z</time>
      </trkpt>
      <trkpt lat="47.2569" lon="-1.61043">
        <ele>36.7</ele>
        <time>2013-08-07T18:36:45Z</time>
      </trkpt>
      <trkpt lat="47.25693" lon="-1.61057">
        <ele>36.3</ele>
        <time>2013-08-07T18:36:50Z</time>
      </trkpt>
      <trkpt lat="47.25692" lon="-1.61071">
        <ele>36.5</ele>
        <time>2013-08-07T18:36:54Z</time>
      </trkpt>
      <trkpt lat="47.25688" lon="-1.61084">
        <ele>36.7</ele>
        <time>2013-08-07T18:37:01Z</time>
      </trkpt>
      <trkpt lat="47.25683" lon="-1.61096">
        <ele>36.8</ele>
        <time>2013-08-07T18:37:06Z</time>
      </trkpt>
      <trkpt lat="47.25677" lon="-1.61108">
        <ele>36.6</ele>
        <time>2013-08-07T18:37:11Z</time>
      </trkpt>
      <trkpt lat="47.25668" lon="-1.61117">
        <ele>36.5</ele>
        <time>2013-08-07T18:37:16Z</time>
      </trkpt>
      <trkpt lat="47.2566" lon="-1.61129">
        <ele>36.3</ele>
        <time>2013-08-07T18:37:20Z</time>
      </trkpt>
      <trkpt lat="47.25654" lon="-1.6114">
        <ele>36.2</ele>
        <time>2013-08-07T18:37:24Z</time>
      </trkpt>
      <trkpt lat="47.25648" lon="-1.61151">
        <ele>36.1</ele>
        <time>2013-08-07T18:37:28Z</time>
      </trkpt>
      <trkpt lat="47.25642" lon="-1.61161">
        <ele>36</ele>
        <time>2013-08-07T18:37:32Z</time>
      </trkpt>
      <trkpt lat="47.25634" lon="-1.6117">
        <ele>36.1</ele>
        <time>2013-08-07T18:37:37Z</time>
      </trkpt>
      <trkpt lat="47.25626" lon="-1.61181">
        <ele>36.4</ele>
        <time>2013-08-07T18:37:43Z</time>
      </trkpt>
      <trkpt lat="47.25619" lon="-1.6119">
        <ele>36.6</ele>
        <time>2013-08-07T18:37:47Z</time>
      </trkpt>
      <trkpt lat="47.25612" lon="-1.61201">
        <ele>36.9</ele>
        <time>2013-08-07T18:37:52Z</time>
      </trkpt>
      <trkpt lat="47.25621" lon="-1.61192">
        <ele>36</ele>
        <time>2013-08-07T18:38:09Z</time>
      </trkpt>
      <trkpt lat="47.25629" lon="-1.61184">
        <ele>35.8</ele>
        <time>2013-08-07T18:38:12Z</time>
      </trkpt>
      <trkpt lat="47.25635" lon="-1.61172">
        <ele>35.7</ele>
        <time>2013-08-07T18:38:15Z</time>
      </trkpt>
      <trkpt lat="47.2563" lon="-1.6116">
        <ele>35.4</ele>
        <time>2013-08-07T18:38:20Z</time>
      </trkpt>
      <trkpt lat="47.25616" lon="-1.61153">
        <ele>35.1</ele>
        <time>2013-08-07T18:38:23Z</time>
      </trkpt>
      <trkpt lat="47.25605" lon="-1.61148">
        <ele>34.8</ele>
        <time>2013-08-07T18:38:26Z</time>
      </trkpt>
      <trkpt lat="47.25596" lon="-1.61153">
        <ele>33.9</ele>
        <time>2013-08-07T18:38:32Z</time>
      </trkpt>
      <trkpt lat="47.25594" lon="-1.61168">
        <ele>35.8</ele>
        <time>2013-08-07T18:39:47Z</time>
      </trkpt>
      <trkpt lat="47.2559" lon="-1.61155">
        <ele>36.4</ele>
        <time>2013-08-07T18:40:07Z</time>
      </trkpt>
      <trkpt lat="47.25582" lon="-1.61145">
        <ele>36.3</ele>
        <time>2013-08-07T18:40:41Z</time>
      </trkpt>
      <trkpt lat="47.25573" lon="-1.61147">
        <ele>37.3</ele>
        <time>2013-08-07T18:40:50Z</time>
      </trkpt>
      <trkpt lat="47.25565" lon="-1.61157">
        <ele>37.9</ele>
        <time>2013-08-07T18:40:56Z</time>
      </trkpt>
      <trkpt lat="47.25555" lon="-1.61163">
        <ele>38.9</ele>
        <time>2013-08-07T18:41:02Z</time>
      </trkpt>
      <trkpt lat="47.25547" lon="-1.61168">
        <ele>39.3</ele>
        <time>2013-08-07T18:41:08Z</time>
      </trkpt>
      <trkpt lat="47.25537" lon="-1.61172">
        <ele>39.3</ele>
        <time>2013-08-07T18:41:15Z</time>
      </trkpt>
      <trkpt lat="47.25528" lon="-1.61176">
        <ele>40.1</ele>
        <time>2013-08-07T18:41:24Z</time>
      </trkpt>
      <trkpt lat="47.25525" lon="-1.61188">
        <ele>39.9</ele>
        <time>2013-08-07T18:41:28Z</time>
      </trkpt>
      <trkpt lat="47.2552" lon="-1.61201">
        <ele>39.3</ele>
        <time>2013-08-07T18:41:34Z</time>
      </trkpt>
      <trkpt lat="47.25514" lon="-1.61212">
        <ele>39.1</ele>
        <time>2013-08-07T18:41:39Z</time>
      </trkpt>
      <trkpt lat="47.2551" lon="-1.61228">
        <ele>39.1</ele>
        <time>2013-08-07T18:41:43Z</time>
      </trkpt>
      <trkpt lat="47.25508" lon="-1.61243">
        <ele>39</ele>
        <time>2013-08-07T18:41:46Z</time>
      </trkpt>
      <trkpt lat="47.25506" lon="-1.61257">
        <ele>38.9</ele>
        <time>2013-08-07T18:41:49Z</time>
      </trkpt>
      <trkpt lat="47.25504" lon="-1.61275">
        <ele>38.6</ele>
        <time>2013-08-07T18:41:53Z</time>
      </trkpt>
      <trkpt lat="47.25501" lon="-1.6129">
        <ele>38.4</ele>
        <time>2013-08-07T18:41:56Z</time>
      </trkpt>
      <trkpt lat="47.25497" lon="-1.61305">
        <ele>38.2</ele>
        <time>2013-08-07T18:41:59Z</time>
      </trkpt>
      <trkpt lat="47.25492" lon="-1.61321">
        <ele>38.2</ele>
        <time>2013-08-07T18:42:02Z</time>
      </trkpt>
      <trkpt lat="47.25489" lon="-1.61336">
        <ele>38.1</ele>
        <time>2013-08-07T18:42:05Z</time>
      </trkpt>
      <trkpt lat="47.25485" lon="-1.61351">
        <ele>38.3</ele>
        <time>2013-08-07T18:42:08Z</time>
      </trkpt>
      <trkpt lat="47.25482" lon="-1.61365">
        <ele>38.6</ele>
        <time>2013-08-07T18:42:11Z</time>
      </trkpt>
      <trkpt lat="47.25477" lon="-1.61379">
        <ele>38.7</ele>
        <time>2013-08-07T18:42:14Z</time>
      </trkpt>
      <trkpt lat="47.25473" lon="-1.61393">
        <ele>38.9</ele>
        <time>2013-08-07T18:42:17Z</time>
      </trkpt>
      <trkpt lat="47.25468" lon="-1.61406">
        <ele>39</ele>
        <time>2013-08-07T18:42:20Z</time>
      </trkpt>
      <trkpt lat="47.25463" lon="-1.6142">
        <ele>39.3</ele>
        <time>2013-08-07T18:42:23Z</time>
      </trkpt>
      <trkpt lat="47.25458" lon="-1.61432">
        <ele>39.8</ele>
        <time>2013-08-07T18:42:25Z</time>
      </trkpt>
      <trkpt lat="47.25451" lon="-1.61446">
        <ele>40.3</ele>
        <time>2013-08-07T18:42:28Z</time>
      </trkpt>
      <trkpt lat="47.25444" lon="-1.61459">
        <ele>41</ele>
        <time>2013-08-07T18:42:31Z</time>
      </trkpt>
      <trkpt lat="47.25436" lon="-1.61472">
        <ele>40.8</ele>
        <time>2013-08-07T18:42:34Z</time>
      </trkpt>
      <trkpt lat="47.2543" lon="-1.61487">
        <ele>41.3</ele>
        <time>2013-08-07T18:42:37Z</time>
      </trkpt>
      <trkpt lat="47.25427" lon="-1.61501">
        <ele>41.3</ele>
        <time>2013-08-07T18:42:39Z</time>
      </trkpt>
      <trkpt lat="47.25427" lon="-1.61515">
        <ele>41.4</ele>
        <time>2013-08-07T18:42:51Z</time>
      </trkpt>
      <trkpt lat="47.2542" lon="-1.61526">
        <ele>41.3</ele>
        <time>2013-08-07T18:42:57Z</time>
      </trkpt>
      <trkpt lat="47.25413" lon="-1.61537">
        <ele>41.2</ele>
        <time>2013-08-07T18:43:01Z</time>
      </trkpt>
      <trkpt lat="47.25407" lon="-1.61547">
        <ele>41.3</ele>
        <time>2013-08-07T18:43:05Z</time>
      </trkpt>
      <trkpt lat="47.25397" lon="-1.61554">
        <ele>41.4</ele>
        <time>2013-08-07T18:43:09Z</time>
      </trkpt>
      <trkpt lat="47.25387" lon="-1.61557">
        <ele>41.4</ele>
        <time>2013-08-07T18:43:12Z</time>
      </trkpt>
      <trkpt lat="47.25375" lon="-1.6156">
        <ele>41.6</ele>
        <time>2013-08-07T18:43:16Z</time>
      </trkpt>
      <trkpt lat="47.25366" lon="-1.61563">
        <ele>41.6</ele>
        <time>2013-08-07T18:43:20Z</time>
      </trkpt>
      <trkpt lat="47.25355" lon="-1.61566">
        <ele>42</ele>
        <time>2013-08-07T18:43:24Z</time>
      </trkpt>
      <trkpt lat="47.25344" lon="-1.61571">
        <ele>42.3</ele>
        <time>2013-08-07T18:43:28Z</time>
      </trkpt>
      <trkpt lat="47.25334" lon="-1.61576">
        <ele>42.8</ele>
        <time>2013-08-07T18:43:32Z</time>
      </trkpt>
      <trkpt lat="47.25323" lon="-1.6158">
        <ele>43.2</ele>
        <time>2013-08-07T18:43:36Z</time>
      </trkpt>
      <trkpt lat="47.25311" lon="-1.61585">
        <ele>43.7</ele>
        <time>2013-08-07T18:43:40Z</time>
      </trkpt>
      <trkpt lat="47.253" lon="-1.61587">
        <ele>44.1</ele>
        <time>2013-08-07T18:43:44Z</time>
      </trkpt>
      <trkpt lat="47.25291" lon="-1.6159">
        <ele>44.6</ele>
        <time>2013-08-07T18:43:47Z</time>
      </trkpt>
      <trkpt lat="47.25281" lon="-1.61593">
        <ele>45.2</ele>
        <time>2013-08-07T18:43:51Z</time>
      </trkpt>
      <trkpt lat="47.2527" lon="-1.61598">
        <ele>45.8</ele>
        <time>2013-08-07T18:43:56Z</time>
      </trkpt>
      <trkpt lat="47.2526" lon="-1.61603">
        <ele>47.6</ele>
        <time>2013-08-07T18:43:59Z</time>
      </trkpt>
      <trkpt lat="47.25251" lon="-1.61607">
        <ele>48</ele>
        <time>2013-08-07T18:44:02Z</time>
      </trkpt>
      <trkpt lat="47.2524" lon="-1.61612">
        <ele>48.4</ele>
        <time>2013-08-07T18:44:06Z</time>
      </trkpt>
      <trkpt lat="47.25229" lon="-1.61616">
        <ele>48.9</ele>
        <time>2013-08-07T18:44:10Z</time>
      </trkpt>
      <trkpt lat="47.25218" lon="-1.61624">
        <ele>49.4</ele>
        <time>2013-08-07T18:44:14Z</time>
      </trkpt>
      <trkpt lat="47.25207" lon="-1.61624">
        <ele>49.9</ele>
        <time>2013-08-07T18:44:18Z</time>
      </trkpt>
      <trkpt lat="47.252" lon="-1.61615">
        <ele>50.2</ele>
        <time>2013-08-07T18:44:22Z</time>
      </trkpt>
      <trkpt lat="47.25194" lon="-1.616">
        <ele>50.5</ele>
        <time>2013-08-07T18:44:26Z</time>
      </trkpt>
      <trkpt lat="47.25188" lon="-1.61588">
        <ele>50.9</ele>
        <time>2013-08-07T18:44:29Z</time>
      </trkpt>
      <trkpt lat="47.25182" lon="-1.61575">
        <ele>51.2</ele>
        <time>2013-08-07T18:44:32Z</time>
      </trkpt>
      <trkpt lat="47.25177" lon="-1.61563">
        <ele>51.5</ele>
        <time>2013-08-07T18:44:35Z</time>
      </trkpt>
      <trkpt lat="47.25172" lon="-1.61548">
        <ele>51.7</ele>
        <time>2013-08-07T18:44:38Z</time>
      </trkpt>
      <trkpt lat="47.2517" lon="-1.61532">
        <ele>51.9</ele>
        <time>2013-08-07T18:44:41Z</time>
      </trkpt>
      <trkpt lat="47.25168" lon="-1.61514">
        <ele>52</ele>
        <time>2013-08-07T18:44:44Z</time>
      </trkpt>
      <trkpt lat="47.25166" lon="-1.61501">
        <ele>53</ele>
        <time>2013-08-07T18:44:46Z</time>
      </trkpt>
      <trkpt lat="47.25164" lon="-1.61481">
        <ele>54</ele>
        <time>2013-08-07T18:44:49Z</time>
      </trkpt>
      <trkpt lat="47.25161" lon="-1.61467">
        <ele>54.3</ele>
        <time>2013-08-07T18:44:51Z</time>
      </trkpt>
      <trkpt lat="47.25157" lon="-1.6145">
        <ele>54.5</ele>
        <time>2013-08-07T18:44:54Z</time>
      </trkpt>
      <trkpt lat="47.2515" lon="-1.61435">
        <ele>54.6</ele>
        <time>2013-08-07T18:44:57Z</time>
      </trkpt>
      <trkpt lat="47.25143" lon="-1.61422">
        <ele>54.5</ele>
        <time>2013-08-07T18:45:00Z</time>
      </trkpt>
      <trkpt lat="47.25135" lon="-1.61407">
        <ele>54.5</ele>
        <time>2013-08-07T18:45:03Z</time>
      </trkpt>
      <trkpt lat="47.25126" lon="-1.61393">
        <ele>54.7</ele>
        <time>2013-08-07T18:45:06Z</time>
      </trkpt>
      <trkpt lat="47.2512" lon="-1.61383">
        <ele>54.9</ele>
        <time>2013-08-07T18:45:08Z</time>
      </trkpt>
      <trkpt lat="47.25113" lon="-1.61371">
        <ele>54.5</ele>
        <time>2013-08-07T18:45:11Z</time>
      </trkpt>
      <trkpt lat="47.25104" lon="-1.61366">
        <ele>54.6</ele>
        <time>2013-08-07T18:45:14Z</time>
      </trkpt>
      <trkpt lat="47.25093" lon="-1.61373">
        <ele>55</ele>
        <time>2013-08-07T18:45:18Z</time>
      </trkpt>
      <trkpt lat="47.25085" lon="-1.61383">
        <ele>55.3</ele>
        <time>2013-08-07T18:45:21Z</time>
      </trkpt>
      <trkpt lat="47.25076" lon="-1.61396">
        <ele>56.6</ele>
        <time>2013-08-07T18:45:24Z</time>
      </trkpt>
      <trkpt lat="47.25069" lon="-1.61406">
        <ele>57.1</ele>
        <time>2013-08-07T18:45:26Z</time>
      </trkpt>
      <trkpt lat="47.25061" lon="-1.61416">
        <ele>56.8</ele>
        <time>2013-08-07T18:45:28Z</time>
      </trkpt>
      <trkpt lat="47.25052" lon="-1.61427">
        <ele>56.3</ele>
        <time>2013-08-07T18:45:30Z</time>
      </trkpt>
      <trkpt lat="47.25043" lon="-1.61438">
        <ele>56.2</ele>
        <time>2013-08-07T18:45:32Z</time>
      </trkpt>
      <trkpt lat="47.25034" lon="-1.61449">
        <ele>56.4</ele>
        <time>2013-08-07T18:45:34Z</time>
      </trkpt>
      <trkpt lat="47.25025" lon="-1.61458">
        <ele>57.2</ele>
        <time>2013-08-07T18:45:36Z</time>
      </trkpt>
      <trkpt lat="47.25017" lon="-1.61466">
        <ele>57.9</ele>
        <time>2013-08-07T18:45:38Z</time>
      </trkpt>
      <trkpt lat="47.25007" lon="-1.61476">
        <ele>58.1</ele>
        <time>2013-08-07T18:45:41Z</time>
      </trkpt>
      <trkpt lat="47.24999" lon="-1.61487">
        <ele>58.2</ele>
        <time>2013-08-07T18:45:44Z</time>
      </trkpt>
      <trkpt lat="47.24994" lon="-1.615">
        <ele>58.2</ele>
        <time>2013-08-07T18:45:47Z</time>
      </trkpt>
      <trkpt lat="47.24986" lon="-1.61514">
        <ele>58.4</ele>
        <time>2013-08-07T18:45:51Z</time>
      </trkpt>
      <trkpt lat="47.24977" lon="-1.61513">
        <ele>58.9</ele>
        <time>2013-08-07T18:45:53Z</time>
      </trkpt>
      <trkpt lat="47.24967" lon="-1.61505">
        <ele>59</ele>
        <time>2013-08-07T18:45:56Z</time>
      </trkpt>
      <trkpt lat="47.24961" lon="-1.61494">
        <ele>59.1</ele>
        <time>2013-08-07T18:45:58Z</time>
      </trkpt>
      <trkpt lat="47.24958" lon="-1.61482">
        <ele>59.3</ele>
        <time>2013-08-07T18:46:00Z</time>
      </trkpt>
      <trkpt lat="47.24947" lon="-1.61472">
        <ele>60</ele>
        <time>2013-08-07T18:46:03Z</time>
      </trkpt>
      <trkpt lat="47.24937" lon="-1.61474">
        <ele>60</ele>
        <time>2013-08-07T18:46:05Z</time>
      </trkpt>
      <trkpt lat="47.24929" lon="-1.61479">
        <ele>60.1</ele>
        <time>2013-08-07T18:46:07Z</time>
      </trkpt>
      <trkpt lat="47.24917" lon="-1.61487">
        <ele>60.6</ele>
        <time>2013-08-07T18:46:10Z</time>
      </trkpt>
      <trkpt lat="47.24908" lon="-1.61492">
        <ele>61.1</ele>
        <time>2013-08-07T18:46:12Z</time>
      </trkpt>
      <trkpt lat="47.24896" lon="-1.615">
        <ele>61</ele>
        <time>2013-08-07T18:46:15Z</time>
      </trkpt>
      <trkpt lat="47.24887" lon="-1.61506">
        <ele>60.6</ele>
        <time>2013-08-07T18:46:17Z</time>
      </trkpt>
      <trkpt lat="47.24879" lon="-1.61512">
        <ele>60.1</ele>
        <time>2013-08-07T18:46:19Z</time>
      </trkpt>
      <trkpt lat="47.2487" lon="-1.61518">
        <ele>59.7</ele>
        <time>2013-08-07T18:46:21Z</time>
      </trkpt>
      <trkpt lat="47.2486" lon="-1.61525">
        <ele>59.6</ele>
        <time>2013-08-07T18:46:23Z</time>
      </trkpt>
      <trkpt lat="47.24851" lon="-1.61531">
        <ele>59.5</ele>
        <time>2013-08-07T18:46:25Z</time>
      </trkpt>
      <trkpt lat="47.24842" lon="-1.61538">
        <ele>59.1</ele>
        <time>2013-08-07T18:46:27Z</time>
      </trkpt>
      <trkpt lat="47.24834" lon="-1.61543">
        <ele>58.5</ele>
        <time>2013-08-07T18:46:29Z</time>
      </trkpt>
      <trkpt lat="47.24821" lon="-1.61551">
        <ele>58.3</ele>
        <time>2013-08-07T18:46:32Z</time>
      </trkpt>
      <trkpt lat="47.24813" lon="-1.61556">
        <ele>57.9</ele>
        <time>2013-08-07T18:46:34Z</time>
      </trkpt>
      <trkpt lat="47.24804" lon="-1.61561">
        <ele>57.1</ele>
        <time>2013-08-07T18:46:36Z</time>
      </trkpt>
      <trkpt lat="47.24792" lon="-1.61569">
        <ele>55.8</ele>
        <time>2013-08-07T18:46:39Z</time>
      </trkpt>
      <trkpt lat="47.24784" lon="-1.61575">
        <ele>55.6</ele>
        <time>2013-08-07T18:46:41Z</time>
      </trkpt>
      <trkpt lat="47.24775" lon="-1.61582">
        <ele>55.5</ele>
        <time>2013-08-07T18:46:43Z</time>
      </trkpt>
      <trkpt lat="47.24766" lon="-1.61588">
        <ele>55.2</ele>
        <time>2013-08-07T18:46:45Z</time>
      </trkpt>
      <trkpt lat="47.24756" lon="-1.61593">
        <ele>54.7</ele>
        <time>2013-08-07T18:46:47Z</time>
      </trkpt>
      <trkpt lat="47.24746" lon="-1.616">
        <ele>54.4</ele>
        <time>2013-08-07T18:46:49Z</time>
      </trkpt>
      <trkpt lat="47.24735" lon="-1.61606">
        <ele>54.4</ele>
        <time>2013-08-07T18:46:51Z</time>
      </trkpt>
      <trkpt lat="47.24725" lon="-1.61613">
        <ele>54.2</ele>
        <time>2013-08-07T18:46:53Z</time>
      </trkpt>
      <trkpt lat="47.24714" lon="-1.61619">
        <ele>53.9</ele>
        <time>2013-08-07T18:46:55Z</time>
      </trkpt>
      <trkpt lat="47.24703" lon="-1.61626">
        <ele>53.8</ele>
        <time>2013-08-07T18:46:57Z</time>
      </trkpt>
      <trkpt lat="47.24692" lon="-1.61632">
        <ele>53.4</ele>
        <time>2013-08-07T18:46:59Z</time>
      </trkpt>
      <trkpt lat="47.24682" lon="-1.6164">
        <ele>53.4</ele>
        <time>2013-08-07T18:47:01Z</time>
      </trkpt>
      <trkpt lat="47.24672" lon="-1.61647">
        <ele>53.5</ele>
        <time>2013-08-07T18:47:03Z</time>
      </trkpt>
      <trkpt lat="47.24662" lon="-1.61654">
        <ele>53.9</ele>
        <time>2013-08-07T18:47:05Z</time>
      </trkpt>
      <trkpt lat="47.24653" lon="-1.61661">
        <ele>53.5</ele>
        <time>2013-08-07T18:47:07Z</time>
      </trkpt>
      <trkpt lat="47.24644" lon="-1.61668">
        <ele>52.6</ele>
        <time>2013-08-07T18:47:09Z</time>
      </trkpt>
      <trkpt lat="47.24635" lon="-1.61675">
        <ele>51.7</ele>
        <time>2013-08-07T18:47:11Z</time>
      </trkpt>
      <trkpt lat="47.24626" lon="-1.61685">
        <ele>51.1</ele>
        <time>2013-08-07T18:47:13Z</time>
      </trkpt>
      <trkpt lat="47.24617" lon="-1.61695">
        <ele>51.2</ele>
        <time>2013-08-07T18:47:15Z</time>
      </trkpt>
      <trkpt lat="47.24608" lon="-1.617">
        <ele>51.1</ele>
        <time>2013-08-07T18:47:17Z</time>
      </trkpt>
      <trkpt lat="47.24599" lon="-1.61704">
        <ele>50.5</ele>
        <time>2013-08-07T18:47:19Z</time>
      </trkpt>
      <trkpt lat="47.24589" lon="-1.6171">
        <ele>50.4</ele>
        <time>2013-08-07T18:47:21Z</time>
      </trkpt>
      <trkpt lat="47.2458" lon="-1.61718">
        <ele>50.2</ele>
        <time>2013-08-07T18:47:23Z</time>
      </trkpt>
      <trkpt lat="47.24571" lon="-1.61727">
        <ele>50.2</ele>
        <time>2013-08-07T18:47:25Z</time>
      </trkpt>
      <trkpt lat="47.2456" lon="-1.61737">
        <ele>49.7</ele>
        <time>2013-08-07T18:47:27Z</time>
      </trkpt>
      <trkpt lat="47.2455" lon="-1.61745">
        <ele>49.2</ele>
        <time>2013-08-07T18:47:29Z</time>
      </trkpt>
      <trkpt lat="47.24539" lon="-1.61755">
        <ele>48.9</ele>
        <time>2013-08-07T18:47:31Z</time>
      </trkpt>
      <trkpt lat="47.24527" lon="-1.61765">
        <ele>48.7</ele>
        <time>2013-08-07T18:47:33Z</time>
      </trkpt>
      <trkpt lat="47.24515" lon="-1.61776">
        <ele>48.7</ele>
        <time>2013-08-07T18:47:35Z</time>
      </trkpt>
      <trkpt lat="47.24502" lon="-1.61789">
        <ele>48</ele>
        <time>2013-08-07T18:47:37Z</time>
      </trkpt>
      <trkpt lat="47.24489" lon="-1.61804">
        <ele>47.4</ele>
        <time>2013-08-07T18:47:39Z</time>
      </trkpt>
      <trkpt lat="47.24476" lon="-1.6182">
        <ele>46.7</ele>
        <time>2013-08-07T18:47:41Z</time>
      </trkpt>
      <trkpt lat="47.24465" lon="-1.61835">
        <ele>46.2</ele>
        <time>2013-08-07T18:47:43Z</time>
      </trkpt>
      <trkpt lat="47.24455" lon="-1.61849">
        <ele>46.1</ele>
        <time>2013-08-07T18:47:45Z</time>
      </trkpt>
      <trkpt lat="47.24446" lon="-1.61862">
        <ele>45.7</ele>
        <time>2013-08-07T18:47:47Z</time>
      </trkpt>
      <trkpt lat="47.24438" lon="-1.61873">
        <ele>45.4</ele>
        <time>2013-08-07T18:47:49Z</time>
      </trkpt>
      <trkpt lat="47.24431" lon="-1.61883">
        <ele>45.5</ele>
        <time>2013-08-07T18:47:51Z</time>
      </trkpt>
      <trkpt lat="47.24425" lon="-1.61893">
        <ele>45.8</ele>
        <time>2013-08-07T18:47:53Z</time>
      </trkpt>
      <trkpt lat="47.24416" lon="-1.61906">
        <ele>46.3</ele>
        <time>2013-08-07T18:47:56Z</time>
      </trkpt>
      <trkpt lat="47.24408" lon="-1.61917">
        <ele>46.4</ele>
        <time>2013-08-07T18:47:59Z</time>
      </trkpt>
      <trkpt lat="47.24402" lon="-1.61929">
        <ele>46.5</ele>
        <time>2013-08-07T18:48:02Z</time>
      </trkpt>
      <trkpt lat="47.24398" lon="-1.61943">
        <ele>46.5</ele>
        <time>2013-08-07T18:48:05Z</time>
      </trkpt>
      <trkpt lat="47.244" lon="-1.61959">
        <ele>46.6</ele>
        <time>2013-08-07T18:48:08Z</time>
      </trkpt>
      <trkpt lat="47.24405" lon="-1.61971">
        <ele>46.5</ele>
        <time>2013-08-07T18:48:11Z</time>
      </trkpt>
      <trkpt lat="47.24411" lon="-1.61982">
        <ele>46.3</ele>
        <time>2013-08-07T18:48:14Z</time>
      </trkpt>
      <trkpt lat="47.24418" lon="-1.61997">
        <ele>46.2</ele>
        <time>2013-08-07T18:48:17Z</time>
      </trkpt>
      <trkpt lat="47.24423" lon="-1.62008">
        <ele>46.8</ele>
        <time>2013-08-07T18:48:19Z</time>
      </trkpt>
      <trkpt lat="47.2443" lon="-1.62024">
        <ele>48</ele>
        <time>2013-08-07T18:48:22Z</time>
      </trkpt>
      <trkpt lat="47.24436" lon="-1.62039">
        <ele>49.4</ele>
        <time>2013-08-07T18:48:25Z</time>
      </trkpt>
      <trkpt lat="47.24442" lon="-1.62056">
        <ele>50.9</ele>
        <time>2013-08-07T18:48:28Z</time>
      </trkpt>
      <trkpt lat="47.2445" lon="-1.62072">
        <ele>51.2</ele>
        <time>2013-08-07T18:48:31Z</time>
      </trkpt>
      <trkpt lat="47.24456" lon="-1.62088">
        <ele>50.7</ele>
        <time>2013-08-07T18:48:34Z</time>
      </trkpt>
      <trkpt lat="47.24461" lon="-1.62103">
        <ele>50.5</ele>
        <time>2013-08-07T18:48:37Z</time>
      </trkpt>
      <trkpt lat="47.24465" lon="-1.62117">
        <ele>50.3</ele>
        <time>2013-08-07T18:48:40Z</time>
      </trkpt>
      <trkpt lat="47.2447" lon="-1.62131">
        <ele>50.1</ele>
        <time>2013-08-07T18:48:43Z</time>
      </trkpt>
      <trkpt lat="47.24475" lon="-1.62143">
        <ele>49.8</ele>
        <time>2013-08-07T18:48:46Z</time>
      </trkpt>
      <trkpt lat="47.24481" lon="-1.62157">
        <ele>49.6</ele>
        <time>2013-08-07T18:48:50Z</time>
      </trkpt>
      <trkpt lat="47.24486" lon="-1.6217">
        <ele>49.6</ele>
        <time>2013-08-07T18:48:53Z</time>
      </trkpt>
      <trkpt lat="47.24492" lon="-1.62183">
        <ele>49.5</ele>
        <time>2013-08-07T18:48:56Z</time>
      </trkpt>
      <trkpt lat="47.24496" lon="-1.62196">
        <ele>49.5</ele>
        <time>2013-08-07T18:48:59Z</time>
      </trkpt>
      <trkpt lat="47.24501" lon="-1.6221">
        <ele>49.5</ele>
        <time>2013-08-07T18:49:02Z</time>
      </trkpt>
      <trkpt lat="47.24506" lon="-1.62225">
        <ele>49.5</ele>
        <time>2013-08-07T18:49:05Z</time>
      </trkpt>
      <trkpt lat="47.24511" lon="-1.6224">
        <ele>49.6</ele>
        <time>2013-08-07T18:49:08Z</time>
      </trkpt>
      <trkpt lat="47.24516" lon="-1.62255">
        <ele>49.9</ele>
        <time>2013-08-07T18:49:11Z</time>
      </trkpt>
      <trkpt lat="47.24521" lon="-1.6227">
        <ele>50.1</ele>
        <time>2013-08-07T18:49:14Z</time>
      </trkpt>
      <trkpt lat="47.24525" lon="-1.62282">
        <ele>50.3</ele>
        <time>2013-08-07T18:49:17Z</time>
      </trkpt>
      <trkpt lat="47.24529" lon="-1.62296">
        <ele>50.3</ele>
        <time>2013-08-07T18:49:20Z</time>
      </trkpt>
      <trkpt lat="47.24532" lon="-1.62308">
        <ele>50.4</ele>
        <time>2013-08-07T18:49:22Z</time>
      </trkpt>
      <trkpt lat="47.24536" lon="-1.62322">
        <ele>50.9</ele>
        <time>2013-08-07T18:49:24Z</time>
      </trkpt>
      <trkpt lat="47.24539" lon="-1.62336">
        <ele>50.9</ele>
        <time>2013-08-07T18:49:26Z</time>
      </trkpt>
      <trkpt lat="47.24543" lon="-1.62351">
        <ele>50.8</ele>
        <time>2013-08-07T18:49:28Z</time>
      </trkpt>
      <trkpt lat="47.24547" lon="-1.62364">
        <ele>51</ele>
        <time>2013-08-07T18:49:30Z</time>
      </trkpt>
      <trkpt lat="47.24551" lon="-1.62375">
        <ele>52.3</ele>
        <time>2013-08-07T18:49:32Z</time>
      </trkpt>
      <trkpt lat="47.24556" lon="-1.62388">
        <ele>53.5</ele>
        <time>2013-08-07T18:49:34Z</time>
      </trkpt>
      <trkpt lat="47.2456" lon="-1.624">
        <ele>52.8</ele>
        <time>2013-08-07T18:49:36Z</time>
      </trkpt>
      <trkpt lat="47.24564" lon="-1.62413">
        <ele>52.5</ele>
        <time>2013-08-07T18:49:38Z</time>
      </trkpt>
      <trkpt lat="47.24569" lon="-1.62425">
        <ele>52</ele>
        <time>2013-08-07T18:49:40Z</time>
      </trkpt>
      <trkpt lat="47.24575" lon="-1.62441">
        <ele>51.7</ele>
        <time>2013-08-07T18:49:43Z</time>
      </trkpt>
      <trkpt lat="47.2458" lon="-1.62458">
        <ele>50.3</ele>
        <time>2013-08-07T18:49:46Z</time>
      </trkpt>
      <trkpt lat="47.24585" lon="-1.62475">
        <ele>50</ele>
        <time>2013-08-07T18:49:49Z</time>
      </trkpt>
      <trkpt lat="47.24591" lon="-1.62492">
        <ele>49.5</ele>
        <time>2013-08-07T18:49:52Z</time>
      </trkpt>
      <trkpt lat="47.24597" lon="-1.62506">
        <ele>49.4</ele>
        <time>2013-08-07T18:49:55Z</time>
      </trkpt>
      <trkpt lat="47.24601" lon="-1.62522">
        <ele>49.4</ele>
        <time>2013-08-07T18:49:59Z</time>
      </trkpt>
      <trkpt lat="47.24593" lon="-1.62534">
        <ele>49.6</ele>
        <time>2013-08-07T18:50:02Z</time>
      </trkpt>
      <trkpt lat="47.24581" lon="-1.62538">
        <ele>49.9</ele>
        <time>2013-08-07T18:50:05Z</time>
      </trkpt>
      <trkpt lat="47.2457" lon="-1.62541">
        <ele>50.1</ele>
        <time>2013-08-07T18:50:08Z</time>
      </trkpt>
      <trkpt lat="47.2456" lon="-1.62543">
        <ele>50.4</ele>
        <time>2013-08-07T18:50:11Z</time>
      </trkpt>
      <trkpt lat="47.24549" lon="-1.62547">
        <ele>52.1</ele>
        <time>2013-08-07T18:50:14Z</time>
      </trkpt>
      <trkpt lat="47.24536" lon="-1.62552">
        <ele>53.5</ele>
        <time>2013-08-07T18:50:17Z</time>
      </trkpt>
      <trkpt lat="47.24525" lon="-1.62557">
        <ele>53.6</ele>
        <time>2013-08-07T18:50:20Z</time>
      </trkpt>
      <trkpt lat="47.24513" lon="-1.62563">
        <ele>53.5</ele>
        <time>2013-08-07T18:50:23Z</time>
      </trkpt>
      <trkpt lat="47.24501" lon="-1.62569">
        <ele>53.4</ele>
        <time>2013-08-07T18:50:26Z</time>
      </trkpt>
      <trkpt lat="47.24489" lon="-1.62576">
        <ele>53.2</ele>
        <time>2013-08-07T18:50:29Z</time>
      </trkpt>
      <trkpt lat="47.24478" lon="-1.62584">
        <ele>52.9</ele>
        <time>2013-08-07T18:50:32Z</time>
      </trkpt>
      <trkpt lat="47.24466" lon="-1.62591">
        <ele>52.1</ele>
        <time>2013-08-07T18:50:35Z</time>
      </trkpt>
      <trkpt lat="47.24455" lon="-1.62597">
        <ele>51.2</ele>
        <time>2013-08-07T18:50:38Z</time>
      </trkpt>
      <trkpt lat="47.24443" lon="-1.62603">
        <ele>52.4</ele>
        <time>2013-08-07T18:50:41Z</time>
      </trkpt>
      <trkpt lat="47.24433" lon="-1.62607">
        <ele>52.8</ele>
        <time>2013-08-07T18:50:43Z</time>
      </trkpt>
      <trkpt lat="47.24421" lon="-1.6261">
        <ele>53.6</ele>
        <time>2013-08-07T18:50:46Z</time>
      </trkpt>
      <trkpt lat="47.24408" lon="-1.62615">
        <ele>53.7</ele>
        <time>2013-08-07T18:50:49Z</time>
      </trkpt>
      <trkpt lat="47.24396" lon="-1.62621">
        <ele>53.7</ele>
        <time>2013-08-07T18:50:52Z</time>
      </trkpt>
      <trkpt lat="47.24387" lon="-1.62626">
        <ele>53.9</ele>
        <time>2013-08-07T18:50:54Z</time>
      </trkpt>
      <trkpt lat="47.24375" lon="-1.62632">
        <ele>53.6</ele>
        <time>2013-08-07T18:50:57Z</time>
      </trkpt>
      <trkpt lat="47.24364" lon="-1.62638">
        <ele>54</ele>
        <time>2013-08-07T18:51:00Z</time>
      </trkpt>
      <trkpt lat="47.24352" lon="-1.62643">
        <ele>54.2</ele>
        <time>2013-08-07T18:51:03Z</time>
      </trkpt>
      <trkpt lat="47.24342" lon="-1.62648">
        <ele>53.8</ele>
        <time>2013-08-07T18:51:05Z</time>
      </trkpt>
      <trkpt lat="47.24332" lon="-1.62652">
        <ele>53.2</ele>
        <time>2013-08-07T18:51:07Z</time>
      </trkpt>
      <trkpt lat="47.24322" lon="-1.62656">
        <ele>52.7</ele>
        <time>2013-08-07T18:51:09Z</time>
      </trkpt>
      <trkpt lat="47.2431" lon="-1.62659">
        <ele>52</ele>
        <time>2013-08-07T18:51:11Z</time>
      </trkpt>
      <trkpt lat="47.24299" lon="-1.62663">
        <ele>51.5</ele>
        <time>2013-08-07T18:51:13Z</time>
      </trkpt>
      <trkpt lat="47.24287" lon="-1.62667">
        <ele>51.3</ele>
        <time>2013-08-07T18:51:15Z</time>
      </trkpt>
      <trkpt lat="47.24275" lon="-1.6267">
        <ele>50.9</ele>
        <time>2013-08-07T18:51:17Z</time>
      </trkpt>
      <trkpt lat="47.24263" lon="-1.62673">
        <ele>50.2</ele>
        <time>2013-08-07T18:51:19Z</time>
      </trkpt>
      <trkpt lat="47.24252" lon="-1.62676">
        <ele>49.5</ele>
        <time>2013-08-07T18:51:21Z</time>
      </trkpt>
      <trkpt lat="47.2424" lon="-1.62681">
        <ele>49.7</ele>
        <time>2013-08-07T18:51:23Z</time>
      </trkpt>
      <trkpt lat="47.24227" lon="-1.62687">
        <ele>49.2</ele>
        <time>2013-08-07T18:51:25Z</time>
      </trkpt>
      <trkpt lat="47.24216" lon="-1.62692">
        <ele>47.9</ele>
        <time>2013-08-07T18:51:27Z</time>
      </trkpt>
      <trkpt lat="47.24206" lon="-1.62697">
        <ele>46.5</ele>
        <time>2013-08-07T18:51:29Z</time>
      </trkpt>
      <trkpt lat="47.24197" lon="-1.62702">
        <ele>44.2</ele>
        <time>2013-08-07T18:51:31Z</time>
      </trkpt>
      <trkpt lat="47.24187" lon="-1.62706">
        <ele>41.9</ele>
        <time>2013-08-07T18:51:33Z</time>
      </trkpt>
      <trkpt lat="47.24175" lon="-1.62712">
        <ele>39.9</ele>
        <time>2013-08-07T18:51:35Z</time>
      </trkpt>
      <trkpt lat="47.24164" lon="-1.62717">
        <ele>38.3</ele>
        <time>2013-08-07T18:51:37Z</time>
      </trkpt>
      <trkpt lat="47.24155" lon="-1.62723">
        <ele>35</ele>
        <time>2013-08-07T18:51:39Z</time>
      </trkpt>
      <trkpt lat="47.24145" lon="-1.62729">
        <ele>32.1</ele>
        <time>2013-08-07T18:51:41Z</time>
      </trkpt>
      <trkpt lat="47.24135" lon="-1.62733">
        <ele>29.5</ele>
        <time>2013-08-07T18:51:43Z</time>
      </trkpt>
      <trkpt lat="47.24125" lon="-1.62738">
        <ele>26.5</ele>
        <time>2013-08-07T18:51:45Z</time>
      </trkpt>
      <trkpt lat="47.24112" lon="-1.62743">
        <ele>23.7</ele>
        <time>2013-08-07T18:51:48Z</time>
      </trkpt>
      <trkpt lat="47.24102" lon="-1.62744">
        <ele>23.6</ele>
        <time>2013-08-07T18:51:51Z</time>
      </trkpt>
      <trkpt lat="47.24093" lon="-1.62735">
        <ele>23.6</ele>
        <time>2013-08-07T18:51:55Z</time>
      </trkpt>
      <trkpt lat="47.24091" lon="-1.62719">
        <ele>23.2</ele>
        <time>2013-08-07T18:52:02Z</time>
      </trkpt>
      <trkpt lat="47.24083" lon="-1.6271">
        <ele>22.8</ele>
        <time>2013-08-07T18:52:08Z</time>
      </trkpt>
      <trkpt lat="47.24075" lon="-1.627">
        <ele>22.5</ele>
        <time>2013-08-07T18:52:16Z</time>
      </trkpt>
      <trkpt lat="47.24069" lon="-1.62688">
        <ele>22</ele>
        <time>2013-08-07T18:52:24Z</time>
      </trkpt>
      <trkpt lat="47.24063" lon="-1.62672">
        <ele>21.4</ele>
        <time>2013-08-07T18:52:28Z</time>
      </trkpt>
      <trkpt lat="47.24065" lon="-1.62656">
        <ele>20.9</ele>
        <time>2013-08-07T18:52:32Z</time>
      </trkpt>
      <trkpt lat="47.24071" lon="-1.6264">
        <ele>20.7</ele>
        <time>2013-08-07T18:52:35Z</time>
      </trkpt>
      <trkpt lat="47.24077" lon="-1.62629">
        <ele>20.7</ele>
        <time>2013-08-07T18:52:37Z</time>
      </trkpt>
      <trkpt lat="47.24083" lon="-1.62617">
        <ele>20.6</ele>
        <time>2013-08-07T18:52:39Z</time>
      </trkpt>
      <trkpt lat="47.24088" lon="-1.62605">
        <ele>20.4</ele>
        <time>2013-08-07T18:52:41Z</time>
      </trkpt>
      <trkpt lat="47.24094" lon="-1.62594">
        <ele>20.1</ele>
        <time>2013-08-07T18:52:43Z</time>
      </trkpt>
      <trkpt lat="47.241" lon="-1.62583">
        <ele>18.5</ele>
        <time>2013-08-07T18:52:45Z</time>
      </trkpt>
      <trkpt lat="47.24103" lon="-1.62568">
        <ele>17.6</ele>
        <time>2013-08-07T18:52:47Z</time>
      </trkpt>
      <trkpt lat="47.24099" lon="-1.62551">
        <ele>16.8</ele>
        <time>2013-08-07T18:52:50Z</time>
      </trkpt>
      <trkpt lat="47.24089" lon="-1.62549">
        <ele>14.9</ele>
        <time>2013-08-07T18:52:52Z</time>
      </trkpt>
      <trkpt lat="47.2408" lon="-1.62546">
        <ele>14.7</ele>
        <time>2013-08-07T18:52:54Z</time>
      </trkpt>
      <trkpt lat="47.24071" lon="-1.62537">
        <ele>14.6</ele>
        <time>2013-08-07T18:52:56Z</time>
      </trkpt>
      <trkpt lat="47.24063" lon="-1.62529">
        <ele>14.5</ele>
        <time>2013-08-07T18:52:58Z</time>
      </trkpt>
      <trkpt lat="47.24052" lon="-1.62515">
        <ele>14.8</ele>
        <time>2013-08-07T18:53:00Z</time>
      </trkpt>
      <trkpt lat="47.24043" lon="-1.62503">
        <ele>15.5</ele>
        <time>2013-08-07T18:53:02Z</time>
      </trkpt>
      <trkpt lat="47.24035" lon="-1.62492">
        <ele>15.9</ele>
        <time>2013-08-07T18:53:04Z</time>
      </trkpt>
      <trkpt lat="47.24026" lon="-1.62479">
        <ele>15.5</ele>
        <time>2013-08-07T18:53:06Z</time>
      </trkpt>
      <trkpt lat="47.24018" lon="-1.62468">
        <ele>14.8</ele>
        <time>2013-08-07T18:53:08Z</time>
      </trkpt>
      <trkpt lat="47.2401" lon="-1.62456">
        <ele>15.5</ele>
        <time>2013-08-07T18:53:10Z</time>
      </trkpt>
      <trkpt lat="47.2401" lon="-1.6244">
        <ele>15.2</ele>
        <time>2013-08-07T18:53:12Z</time>
      </trkpt>
      <trkpt lat="47.24014" lon="-1.62423">
        <ele>15.4</ele>
        <time>2013-08-07T18:53:14Z</time>
      </trkpt>
      <trkpt lat="47.24014" lon="-1.62409">
        <ele>15.5</ele>
        <time>2013-08-07T18:53:16Z</time>
      </trkpt>
      <trkpt lat="47.24013" lon="-1.62396">
        <ele>15.6</ele>
        <time>2013-08-07T18:53:18Z</time>
      </trkpt>
      <trkpt lat="47.24012" lon="-1.6238">
        <ele>16</ele>
        <time>2013-08-07T18:53:20Z</time>
      </trkpt>
      <trkpt lat="47.24011" lon="-1.62365">
        <ele>13.8</ele>
        <time>2013-08-07T18:53:22Z</time>
      </trkpt>
      <trkpt lat="47.24009" lon="-1.6235">
        <ele>11.5</ele>
        <time>2013-08-07T18:53:24Z</time>
      </trkpt>
      <trkpt lat="47.24009" lon="-1.62335">
        <ele>11.8</ele>
        <time>2013-08-07T18:53:26Z</time>
      </trkpt>
      <trkpt lat="47.24013" lon="-1.62322">
        <ele>12.1</ele>
        <time>2013-08-07T18:53:29Z</time>
      </trkpt>
      <trkpt lat="47.24016" lon="-1.62303">
        <ele>12.4</ele>
        <time>2013-08-07T18:53:33Z</time>
      </trkpt>
      <trkpt lat="47.24016" lon="-1.62289">
        <ele>12.7</ele>
        <time>2013-08-07T18:53:35Z</time>
      </trkpt>
      <trkpt lat="47.24015" lon="-1.62271">
        <ele>13.3</ele>
        <time>2013-08-07T18:53:38Z</time>
      </trkpt>
      <trkpt lat="47.24013" lon="-1.62256">
        <ele>13.9</ele>
        <time>2013-08-07T18:53:41Z</time>
      </trkpt>
      <trkpt lat="47.24012" lon="-1.62243">
        <ele>14.6</ele>
        <time>2013-08-07T18:53:45Z</time>
      </trkpt>
      <trkpt lat="47.24012" lon="-1.62228">
        <ele>15</ele>
        <time>2013-08-07T18:54:15Z</time>
      </trkpt>
      <trkpt lat="47.24008" lon="-1.62213">
        <ele>15.1</ele>
        <time>2013-08-07T18:54:19Z</time>
      </trkpt>
      <trkpt lat="47.24007" lon="-1.62196">
        <ele>15</ele>
        <time>2013-08-07T18:54:22Z</time>
      </trkpt>
      <trkpt lat="47.24007" lon="-1.62182">
        <ele>14.7</ele>
        <time>2013-08-07T18:54:24Z</time>
      </trkpt>
      <trkpt lat="47.24007" lon="-1.62165">
        <ele>14.4</ele>
        <time>2013-08-07T18:54:27Z</time>
      </trkpt>
      <trkpt lat="47.24008" lon="-1.62147">
        <ele>14.2</ele>
        <time>2013-08-07T18:54:30Z</time>
      </trkpt>
      <trkpt lat="47.24007" lon="-1.62133">
        <ele>13.7</ele>
        <time>2013-08-07T18:54:32Z</time>
      </trkpt>
      <trkpt lat="47.24007" lon="-1.62119">
        <ele>13.5</ele>
        <time>2013-08-07T18:54:34Z</time>
      </trkpt>
      <trkpt lat="47.24006" lon="-1.62105">
        <ele>12.6</ele>
        <time>2013-08-07T18:54:36Z</time>
      </trkpt>
      <trkpt lat="47.24007" lon="-1.6209">
        <ele>12.1</ele>
        <time>2013-08-07T18:54:38Z</time>
      </trkpt>
      <trkpt lat="47.24009" lon="-1.62076">
        <ele>11.9</ele>
        <time>2013-08-07T18:54:40Z</time>
      </trkpt>
      <trkpt lat="47.24006" lon="-1.62059">
        <ele>11.8</ele>
        <time>2013-08-07T18:54:43Z</time>
      </trkpt>
      <trkpt lat="47.23999" lon="-1.62043">
        <ele>11.6</ele>
        <time>2013-08-07T18:54:46Z</time>
      </trkpt>
      <trkpt lat="47.23988" lon="-1.62029">
        <ele>11.3</ele>
        <time>2013-08-07T18:54:49Z</time>
      </trkpt>
      <trkpt lat="47.23979" lon="-1.62018">
        <ele>12.8</ele>
        <time>2013-08-07T18:54:51Z</time>
      </trkpt>
      <trkpt lat="47.2397" lon="-1.62007">
        <ele>13.2</ele>
        <time>2013-08-07T18:54:53Z</time>
      </trkpt>
      <trkpt lat="47.23961" lon="-1.61996">
        <ele>12.7</ele>
        <time>2013-08-07T18:54:55Z</time>
      </trkpt>
      <trkpt lat="47.23951" lon="-1.61989">
        <ele>11.3</ele>
        <time>2013-08-07T18:54:57Z</time>
      </trkpt>
      <trkpt lat="47.23942" lon="-1.61986">
        <ele>10.6</ele>
        <time>2013-08-07T18:54:59Z</time>
      </trkpt>
      <trkpt lat="47.23932" lon="-1.61984">
        <ele>9.6</ele>
        <time>2013-08-07T18:55:01Z</time>
      </trkpt>
      <trkpt lat="47.23922" lon="-1.6198">
        <ele>6.7</ele>
        <time>2013-08-07T18:55:03Z</time>
      </trkpt>
      <trkpt lat="47.2391" lon="-1.61978">
        <ele>6.4</ele>
        <time>2013-08-07T18:55:05Z</time>
      </trkpt>
      <trkpt lat="47.23899" lon="-1.61976">
        <ele>5.2</ele>
        <time>2013-08-07T18:55:07Z</time>
      </trkpt>
      <trkpt lat="47.23888" lon="-1.61972">
        <ele>5.1</ele>
        <time>2013-08-07T18:55:09Z</time>
      </trkpt>
      <trkpt lat="47.2388" lon="-1.61967">
        <ele>5.3</ele>
        <time>2013-08-07T18:55:11Z</time>
      </trkpt>
      <trkpt lat="47.23869" lon="-1.6196">
        <ele>5.7</ele>
        <time>2013-08-07T18:55:13Z</time>
      </trkpt>
      <trkpt lat="47.23861" lon="-1.61953">
        <ele>6.3</ele>
        <time>2013-08-07T18:55:15Z</time>
      </trkpt>
      <trkpt lat="47.23852" lon="-1.61944">
        <ele>7</ele>
        <time>2013-08-07T18:55:17Z</time>
      </trkpt>
      <trkpt lat="47.23845" lon="-1.61934">
        <ele>8.3</ele>
        <time>2013-08-07T18:55:21Z</time>
      </trkpt>
      <trkpt lat="47.23837" lon="-1.61921">
        <ele>10.1</ele>
        <time>2013-08-07T18:55:29Z</time>
      </trkpt>
      <trkpt lat="47.23829" lon="-1.61912">
        <ele>10.6</ele>
        <time>2013-08-07T18:55:33Z</time>
      </trkpt>
      <trkpt lat="47.23825" lon="-1.61896">
        <ele>13.6</ele>
        <time>2013-08-07T18:56:01Z</time>
      </trkpt>
      <trkpt lat="47.23824" lon="-1.61879">
        <ele>15</ele>
        <time>2013-08-07T18:56:06Z</time>
      </trkpt>
      <trkpt lat="47.23821" lon="-1.61863">
        <ele>16.7</ele>
        <time>2013-08-07T18:56:13Z</time>
      </trkpt>
      <trkpt lat="47.23814" lon="-1.61851">
        <ele>17.9</ele>
        <time>2013-08-07T18:56:18Z</time>
      </trkpt>
      <trkpt lat="47.23807" lon="-1.6184">
        <ele>18.7</ele>
        <time>2013-08-07T18:56:22Z</time>
      </trkpt>
      <trkpt lat="47.238" lon="-1.6183">
        <ele>19.4</ele>
        <time>2013-08-07T18:56:26Z</time>
      </trkpt>
      <trkpt lat="47.23794" lon="-1.61817">
        <ele>20.2</ele>
        <time>2013-08-07T18:56:31Z</time>
      </trkpt>
      <trkpt lat="47.2379" lon="-1.61802">
        <ele>20.9</ele>
        <time>2013-08-07T18:56:36Z</time>
      </trkpt>
      <trkpt lat="47.23785" lon="-1.61788">
        <ele>21.6</ele>
        <time>2013-08-07T18:56:43Z</time>
      </trkpt>
      <trkpt lat="47.23779" lon="-1.61777">
        <ele>21.4</ele>
        <time>2013-08-07T18:56:48Z</time>
      </trkpt>
      <trkpt lat="47.23777" lon="-1.61763">
        <ele>20.8</ele>
        <time>2013-08-07T18:56:54Z</time>
      </trkpt>
      <trkpt lat="47.23776" lon="-1.61747">
        <ele>19</ele>
        <time>2013-08-07T18:57:00Z</time>
      </trkpt>
      <trkpt lat="47.23775" lon="-1.61733">
        <ele>16.5</ele>
        <time>2013-08-07T18:57:05Z</time>
      </trkpt>
      <trkpt lat="47.23769" lon="-1.61723">
        <ele>12.1</ele>
        <time>2013-08-07T18:57:13Z</time>
      </trkpt>
      <trkpt lat="47.23769" lon="-1.61709">
        <ele>9.5</ele>
        <time>2013-08-07T18:57:18Z</time>
      </trkpt>
      <trkpt lat="47.23767" lon="-1.61695">
        <ele>8.7</ele>
        <time>2013-08-07T18:57:20Z</time>
      </trkpt>
      <trkpt lat="47.23765" lon="-1.61682">
        <ele>8.6</ele>
        <time>2013-08-07T18:57:22Z</time>
      </trkpt>
      <trkpt lat="47.23767" lon="-1.61663">
        <ele>8.8</ele>
        <time>2013-08-07T18:57:25Z</time>
      </trkpt>
      <trkpt lat="47.23768" lon="-1.61649">
        <ele>9.1</ele>
        <time>2013-08-07T18:57:28Z</time>
      </trkpt>
      <trkpt lat="47.23768" lon="-1.61636">
        <ele>9.6</ele>
        <time>2013-08-07T18:57:30Z</time>
      </trkpt>
      <trkpt lat="47.2377" lon="-1.61621">
        <ele>10</ele>
        <time>2013-08-07T18:57:33Z</time>
      </trkpt>
      <trkpt lat="47.23771" lon="-1.61608">
        <ele>10.3</ele>
        <time>2013-08-07T18:57:35Z</time>
      </trkpt>
      <trkpt lat="47.23773" lon="-1.61591">
        <ele>10.8</ele>
        <time>2013-08-07T18:57:38Z</time>
      </trkpt>
      <trkpt lat="47.2377" lon="-1.61578">
        <ele>9.6</ele>
        <time>2013-08-07T18:58:05Z</time>
      </trkpt>
      <trkpt lat="47.23766" lon="-1.61562">
        <ele>9.9</ele>
        <time>2013-08-07T18:58:23Z</time>
      </trkpt>
      <trkpt lat="47.23756" lon="-1.61553">
        <ele>9.9</ele>
        <time>2013-08-07T18:58:27Z</time>
      </trkpt>
      <trkpt lat="47.23749" lon="-1.61543">
        <ele>9.7</ele>
        <time>2013-08-07T18:58:30Z</time>
      </trkpt>
      <trkpt lat="47.23743" lon="-1.61532">
        <ele>9.7</ele>
        <time>2013-08-07T18:58:34Z</time>
      </trkpt>
      <trkpt lat="47.23736" lon="-1.61523">
        <ele>10.1</ele>
        <time>2013-08-07T18:58:39Z</time>
      </trkpt>
      <trkpt lat="47.2373" lon="-1.61509">
        <ele>10.7</ele>
        <time>2013-08-07T18:58:43Z</time>
      </trkpt>
      <trkpt lat="47.23723" lon="-1.615">
        <ele>11.4</ele>
        <time>2013-08-07T18:58:47Z</time>
      </trkpt>
      <trkpt lat="47.23714" lon="-1.61499">
        <ele>12.2</ele>
        <time>2013-08-07T18:58:51Z</time>
      </trkpt>
      <trkpt lat="47.23705" lon="-1.61505">
        <ele>12.6</ele>
        <time>2013-08-07T18:58:54Z</time>
      </trkpt>
      <trkpt lat="47.23696" lon="-1.6151">
        <ele>13</ele>
        <time>2013-08-07T18:58:57Z</time>
      </trkpt>
      <trkpt lat="47.23686" lon="-1.61514">
        <ele>13.5</ele>
        <time>2013-08-07T18:59:01Z</time>
      </trkpt>
      <trkpt lat="47.23677" lon="-1.61523">
        <ele>13.8</ele>
        <time>2013-08-07T18:59:05Z</time>
      </trkpt>
      <trkpt lat="47.23666" lon="-1.61526">
        <ele>14.1</ele>
        <time>2013-08-07T18:59:10Z</time>
      </trkpt>
      <trkpt lat="47.23655" lon="-1.6153">
        <ele>14.4</ele>
        <time>2013-08-07T18:59:15Z</time>
      </trkpt>
      <trkpt lat="47.23646" lon="-1.61531">
        <ele>14.8</ele>
        <time>2013-08-07T18:59:19Z</time>
      </trkpt>
      <trkpt lat="47.23636" lon="-1.6153">
        <ele>15.2</ele>
        <time>2013-08-07T18:59:23Z</time>
      </trkpt>
      <trkpt lat="47.23627" lon="-1.61528">
        <ele>15.8</ele>
        <time>2013-08-07T18:59:28Z</time>
      </trkpt>
      <trkpt lat="47.23631" lon="-1.61514">
        <ele>16.7</ele>
        <time>2013-08-07T18:59:33Z</time>
      </trkpt>
      <trkpt lat="47.23633" lon="-1.61499">
        <ele>18.1</ele>
        <time>2013-08-07T18:59:39Z</time>
      </trkpt>
      <trkpt lat="47.23633" lon="-1.61482">
        <ele>19.2</ele>
        <time>2013-08-07T18:59:44Z</time>
      </trkpt>
      <trkpt lat="47.23632" lon="-1.61469">
        <ele>20.2</ele>
        <time>2013-08-07T18:59:48Z</time>
      </trkpt>
      <trkpt lat="47.23634" lon="-1.61455">
        <ele>21.1</ele>
        <time>2013-08-07T18:59:53Z</time>
      </trkpt>
      <trkpt lat="47.23631" lon="-1.6144">
        <ele>22</ele>
        <time>2013-08-07T18:59:58Z</time>
      </trkpt>
      <trkpt lat="47.23628" lon="-1.61427">
        <ele>22.4</ele>
        <time>2013-08-07T19:00:02Z</time>
      </trkpt>
      <trkpt lat="47.23622" lon="-1.61417">
        <ele>22.7</ele>
        <time>2013-08-07T19:00:06Z</time>
      </trkpt>
      <trkpt lat="47.23618" lon="-1.61403">
        <ele>22.5</ele>
        <time>2013-08-07T19:00:11Z</time>
      </trkpt>
      <trkpt lat="47.23617" lon="-1.61389">
        <ele>22.3</ele>
        <time>2013-08-07T19:00:14Z</time>
      </trkpt>
      <trkpt lat="47.23612" lon="-1.61374">
        <ele>21.7</ele>
        <time>2013-08-07T19:00:18Z</time>
      </trkpt>
      <trkpt lat="47.23603" lon="-1.61363">
        <ele>21.2</ele>
        <time>2013-08-07T19:00:21Z</time>
      </trkpt>
      <trkpt lat="47.23594" lon="-1.6135">
        <ele>20.4</ele>
        <time>2013-08-07T19:00:24Z</time>
      </trkpt>
      <trkpt lat="47.23586" lon="-1.61337">
        <ele>19.6</ele>
        <time>2013-08-07T19:00:27Z</time>
      </trkpt>
      <trkpt lat="47.23579" lon="-1.61327">
        <ele>18.9</ele>
        <time>2013-08-07T19:00:30Z</time>
      </trkpt>
      <trkpt lat="47.23572" lon="-1.61313">
        <ele>18.4</ele>
        <time>2013-08-07T19:00:33Z</time>
      </trkpt>
      <trkpt lat="47.23569" lon="-1.61298">
        <ele>18.1</ele>
        <time>2013-08-07T19:00:35Z</time>
      </trkpt>
      <trkpt lat="47.23565" lon="-1.61275">
        <ele>18.1</ele>
        <time>2013-08-07T19:00:37Z</time>
      </trkpt>
      <trkpt lat="47.2356" lon="-1.61263">
        <ele>18.4</ele>
        <time>2013-08-07T19:00:39Z</time>
      </trkpt>
      <trkpt lat="47.23554" lon="-1.61252">
        <ele>20.3</ele>
        <time>2013-08-07T19:00:41Z</time>
      </trkpt>
      <trkpt lat="47.23547" lon="-1.6124">
        <ele>22.1</ele>
        <time>2013-08-07T19:00:43Z</time>
      </trkpt>
      <trkpt lat="47.23542" lon="-1.61228">
        <ele>22.9</ele>
        <time>2013-08-07T19:00:45Z</time>
      </trkpt>
      <trkpt lat="47.23532" lon="-1.61221">
        <ele>22.8</ele>
        <time>2013-08-07T19:00:48Z</time>
      </trkpt>
      <trkpt lat="47.23522" lon="-1.61217">
        <ele>22.6</ele>
        <time>2013-08-07T19:00:51Z</time>
      </trkpt>
      <trkpt lat="47.23515" lon="-1.61207">
        <ele>22.2</ele>
        <time>2013-08-07T19:00:55Z</time>
      </trkpt>
      <trkpt lat="47.23511" lon="-1.61195">
        <ele>21.7</ele>
        <time>2013-08-07T19:00:59Z</time>
      </trkpt>
      <trkpt lat="47.23503" lon="-1.61188">
        <ele>21.2</ele>
        <time>2013-08-07T19:01:04Z</time>
      </trkpt>
      <trkpt lat="47.23494" lon="-1.61183">
        <ele>20.7</ele>
        <time>2013-08-07T19:01:08Z</time>
      </trkpt>
      <trkpt lat="47.2349" lon="-1.6117">
        <ele>20.7</ele>
        <time>2013-08-07T19:01:23Z</time>
      </trkpt>
      <trkpt lat="47.23497" lon="-1.6116">
        <ele>21.3</ele>
        <time>2013-08-07T19:01:40Z</time>
      </trkpt>
      <trkpt lat="47.23508" lon="-1.61157">
        <ele>21.3</ele>
        <time>2013-08-07T19:01:44Z</time>
      </trkpt>
      <trkpt lat="47.23518" lon="-1.61151">
        <ele>21.5</ele>
        <time>2013-08-07T19:01:48Z</time>
      </trkpt>
      <trkpt lat="47.23529" lon="-1.61143">
        <ele>21.6</ele>
        <time>2013-08-07T19:01:52Z</time>
      </trkpt>
      <trkpt lat="47.23541" lon="-1.61135">
        <ele>21.6</ele>
        <time>2013-08-07T19:01:55Z</time>
      </trkpt>
      <trkpt lat="47.2355" lon="-1.61125">
        <ele>21.5</ele>
        <time>2013-08-07T19:01:57Z</time>
      </trkpt>
      <trkpt lat="47.23558" lon="-1.61114">
        <ele>20.5</ele>
        <time>2013-08-07T19:01:59Z</time>
      </trkpt>
      <trkpt lat="47.23563" lon="-1.61101">
        <ele>20.4</ele>
        <time>2013-08-07T19:02:01Z</time>
      </trkpt>
      <trkpt lat="47.23566" lon="-1.61086">
        <ele>19.9</ele>
        <time>2013-08-07T19:02:04Z</time>
      </trkpt>
      <trkpt lat="47.23568" lon="-1.6107">
        <ele>18.9</ele>
        <time>2013-08-07T19:02:08Z</time>
      </trkpt>
      <trkpt lat="47.23574" lon="-1.61059">
        <ele>18.3</ele>
        <time>2013-08-07T19:02:11Z</time>
      </trkpt>
      <trkpt lat="47.23581" lon="-1.6105">
        <ele>18.2</ele>
        <time>2013-08-07T19:02:14Z</time>
      </trkpt>
      <trkpt lat="47.23591" lon="-1.61043">
        <ele>18</ele>
        <time>2013-08-07T19:02:18Z</time>
      </trkpt>
      <trkpt lat="47.23599" lon="-1.61037">
        <ele>17.9</ele>
        <time>2013-08-07T19:02:22Z</time>
      </trkpt>
      <trkpt lat="47.23603" lon="-1.61024">
        <ele>17.5</ele>
        <time>2013-08-07T19:02:27Z</time>
      </trkpt>
      <trkpt lat="47.23604" lon="-1.61008">
        <ele>17.3</ele>
        <time>2013-08-07T19:02:32Z</time>
      </trkpt>
      <trkpt lat="47.23606" lon="-1.60994">
        <ele>16.8</ele>
        <time>2013-08-07T19:02:35Z</time>
      </trkpt>
      <trkpt lat="47.23611" lon="-1.60977">
        <ele>16.6</ele>
        <time>2013-08-07T19:02:38Z</time>
      </trkpt>
      <trkpt lat="47.23616" lon="-1.60959">
        <ele>16.2</ele>
        <time>2013-08-07T19:02:41Z</time>
      </trkpt>
      <trkpt lat="47.23619" lon="-1.60946">
        <ele>15.9</ele>
        <time>2013-08-07T19:02:43Z</time>
      </trkpt>
      <trkpt lat="47.2362" lon="-1.60931">
        <ele>15.3</ele>
        <time>2013-08-07T19:02:46Z</time>
      </trkpt>
      <trkpt lat="47.23613" lon="-1.60922">
        <ele>14.8</ele>
        <time>2013-08-07T19:02:50Z</time>
      </trkpt>
      <trkpt lat="47.2361" lon="-1.60903">
        <ele>14.5</ele>
        <time>2013-08-07T19:02:54Z</time>
      </trkpt>
      <trkpt lat="47.2361" lon="-1.60885">
        <ele>14.3</ele>
        <time>2013-08-07T19:02:57Z</time>
      </trkpt>
      <trkpt lat="47.23611" lon="-1.60868">
        <ele>14.3</ele>
        <time>2013-08-07T19:03:00Z</time>
      </trkpt>
      <trkpt lat="47.23612" lon="-1.60854">
        <ele>14.4</ele>
        <time>2013-08-07T19:03:03Z</time>
      </trkpt>
      <trkpt lat="47.23611" lon="-1.6084">
        <ele>14.5</ele>
        <time>2013-08-07T19:03:06Z</time>
      </trkpt>
      <trkpt lat="47.23606" lon="-1.60826">
        <ele>14.4</ele>
        <time>2013-08-07T19:03:10Z</time>
      </trkpt>
      <trkpt lat="47.23598" lon="-1.60813">
        <ele>14.8</ele>
        <time>2013-08-07T19:03:14Z</time>
      </trkpt>
      <trkpt lat="47.23589" lon="-1.60805">
        <ele>15.4</ele>
        <time>2013-08-07T19:03:18Z</time>
      </trkpt>
      <trkpt lat="47.23579" lon="-1.60797">
        <ele>16</ele>
        <time>2013-08-07T19:03:22Z</time>
      </trkpt>
      <trkpt lat="47.23571" lon="-1.60788">
        <ele>16.7</ele>
        <time>2013-08-07T19:03:26Z</time>
      </trkpt>
      <trkpt lat="47.23563" lon="-1.60776">
        <ele>17.1</ele>
        <time>2013-08-07T19:03:30Z</time>
      </trkpt>
      <trkpt lat="47.23557" lon="-1.60763">
        <ele>17.2</ele>
        <time>2013-08-07T19:03:33Z</time>
      </trkpt>
      <trkpt lat="47.23551" lon="-1.60751">
        <ele>17.4</ele>
        <time>2013-08-07T19:03:36Z</time>
      </trkpt>
      <trkpt lat="47.23545" lon="-1.6074">
        <ele>17.5</ele>
        <time>2013-08-07T19:03:39Z</time>
      </trkpt>
      <trkpt lat="47.2354" lon="-1.60729">
        <ele>17.7</ele>
        <time>2013-08-07T19:03:42Z</time>
      </trkpt>
      <trkpt lat="47.23535" lon="-1.60715">
        <ele>17.8</ele>
        <time>2013-08-07T19:03:46Z</time>
      </trkpt>
      <trkpt lat="47.2353" lon="-1.60704">
        <ele>17.8</ele>
        <time>2013-08-07T19:03:49Z</time>
      </trkpt>
      <trkpt lat="47.23524" lon="-1.60691">
        <ele>18.1</ele>
        <time>2013-08-07T19:03:52Z</time>
      </trkpt>
      <trkpt lat="47.2352" lon="-1.6068">
        <ele>18.5</ele>
        <time>2013-08-07T19:03:55Z</time>
      </trkpt>
      <trkpt lat="47.23516" lon="-1.60665">
        <ele>18.6</ele>
        <time>2013-08-07T19:03:59Z</time>
      </trkpt>
      <trkpt lat="47.23514" lon="-1.60651">
        <ele>18</ele>
        <time>2013-08-07T19:04:03Z</time>
      </trkpt>
      <trkpt lat="47.23511" lon="-1.60637">
        <ele>16.3</ele>
        <time>2013-08-07T19:04:06Z</time>
      </trkpt>
      <trkpt lat="47.23507" lon="-1.60625">
        <ele>14</ele>
        <time>2013-08-07T19:04:08Z</time>
      </trkpt>
      <trkpt lat="47.23502" lon="-1.60608">
        <ele>10.3</ele>
        <time>2013-08-07T19:04:10Z</time>
      </trkpt>
      <trkpt lat="47.23498" lon="-1.60592">
        <ele>9.9</ele>
        <time>2013-08-07T19:04:12Z</time>
      </trkpt>
      <trkpt lat="47.23496" lon="-1.60568">
        <ele>9.8</ele>
        <time>2013-08-07T19:04:15Z</time>
      </trkpt>
      <trkpt lat="47.23492" lon="-1.60549">
        <ele>9.8</ele>
        <time>2013-08-07T19:04:17Z</time>
      </trkpt>
      <trkpt lat="47.2349" lon="-1.60533">
        <ele>10</ele>
        <time>2013-08-07T19:04:19Z</time>
      </trkpt>
      <trkpt lat="47.23487" lon="-1.6052">
        <ele>10.3</ele>
        <time>2013-08-07T19:04:21Z</time>
      </trkpt>
      <trkpt lat="47.23485" lon="-1.60504">
        <ele>10.4</ele>
        <time>2013-08-07T19:04:24Z</time>
      </trkpt>
      <trkpt lat="47.23477" lon="-1.60494">
        <ele>10.4</ele>
        <time>2013-08-07T19:04:30Z</time>
      </trkpt>
      <trkpt lat="47.23469" lon="-1.60503">
        <ele>11.5</ele>
        <time>2013-08-07T19:04:36Z</time>
      </trkpt>
      <trkpt lat="47.23458" lon="-1.60504">
        <ele>12.6</ele>
        <time>2013-08-07T19:04:41Z</time>
      </trkpt>
      <trkpt lat="47.23449" lon="-1.60497">
        <ele>13.4</ele>
        <time>2013-08-07T19:04:46Z</time>
      </trkpt>
      <trkpt lat="47.23441" lon="-1.60489">
        <ele>14.4</ele>
        <time>2013-08-07T19:04:51Z</time>
      </trkpt>
      <trkpt lat="47.23433" lon="-1.60479">
        <ele>15.3</ele>
        <time>2013-08-07T19:04:57Z</time>
      </trkpt>
      <trkpt lat="47.23423" lon="-1.60473">
        <ele>15.7</ele>
        <time>2013-08-07T19:05:02Z</time>
      </trkpt>
      <trkpt lat="47.23413" lon="-1.60473">
        <ele>16.3</ele>
        <time>2013-08-07T19:05:08Z</time>
      </trkpt>
      <trkpt lat="47.23403" lon="-1.60472">
        <ele>17.3</ele>
        <time>2013-08-07T19:05:14Z</time>
      </trkpt>
      <trkpt lat="47.23392" lon="-1.6047">
        <ele>17.5</ele>
        <time>2013-08-07T19:05:20Z</time>
      </trkpt>
      <trkpt lat="47.23381" lon="-1.60467">
        <ele>18</ele>
        <time>2013-08-07T19:05:25Z</time>
      </trkpt>
      <trkpt lat="47.23372" lon="-1.60462">
        <ele>18.1</ele>
        <time>2013-08-07T19:05:29Z</time>
      </trkpt>
      <trkpt lat="47.23363" lon="-1.60455">
        <ele>18.2</ele>
        <time>2013-08-07T19:05:33Z</time>
      </trkpt>
      <trkpt lat="47.23353" lon="-1.60447">
        <ele>18.4</ele>
        <time>2013-08-07T19:05:37Z</time>
      </trkpt>
      <trkpt lat="47.23345" lon="-1.6044">
        <ele>19.1</ele>
        <time>2013-08-07T19:05:41Z</time>
      </trkpt>
      <trkpt lat="47.23338" lon="-1.60431">
        <ele>19.7</ele>
        <time>2013-08-07T19:05:45Z</time>
      </trkpt>
      <trkpt lat="47.23332" lon="-1.60419">
        <ele>20.6</ele>
        <time>2013-08-07T19:05:49Z</time>
      </trkpt>
      <trkpt lat="47.23325" lon="-1.60408">
        <ele>21.3</ele>
        <time>2013-08-07T19:05:53Z</time>
      </trkpt>
      <trkpt lat="47.23316" lon="-1.60403">
        <ele>21.5</ele>
        <time>2013-08-07T19:05:57Z</time>
      </trkpt>
      <trkpt lat="47.23306" lon="-1.60403">
        <ele>21.6</ele>
        <time>2013-08-07T19:06:01Z</time>
      </trkpt>
      <trkpt lat="47.23297" lon="-1.60407">
        <ele>21.9</ele>
        <time>2013-08-07T19:06:05Z</time>
      </trkpt>
      <trkpt lat="47.23287" lon="-1.6041">
        <ele>22.1</ele>
        <time>2013-08-07T19:06:10Z</time>
      </trkpt>
      <trkpt lat="47.23278" lon="-1.60401">
        <ele>22.5</ele>
        <time>2013-08-07T19:06:15Z</time>
      </trkpt>
      <trkpt lat="47.23272" lon="-1.60393">
        <ele>22.9</ele>
        <time>2013-08-07T19:06:20Z</time>
      </trkpt>
      <trkpt lat="47.23262" lon="-1.60383">
        <ele>23</ele>
        <time>2013-08-07T19:06:25Z</time>
      </trkpt>
      <trkpt lat="47.23252" lon="-1.60381">
        <ele>23.4</ele>
        <time>2013-08-07T19:06:28Z</time>
      </trkpt>
      <trkpt lat="47.23242" lon="-1.60389">
        <ele>24.1</ele>
        <time>2013-08-07T19:06:32Z</time>
      </trkpt>
      <trkpt lat="47.23236" lon="-1.60399">
        <ele>24.7</ele>
        <time>2013-08-07T19:06:37Z</time>
      </trkpt>
      <trkpt lat="47.2323" lon="-1.6041">
        <ele>25</ele>
        <time>2013-08-07T19:06:41Z</time>
      </trkpt>
      <trkpt lat="47.23224" lon="-1.60421">
        <ele>25.5</ele>
        <time>2013-08-07T19:06:45Z</time>
      </trkpt>
      <trkpt lat="47.23217" lon="-1.60433">
        <ele>26</ele>
        <time>2013-08-07T19:06:49Z</time>
      </trkpt>
      <trkpt lat="47.23211" lon="-1.60444">
        <ele>26.5</ele>
        <time>2013-08-07T19:06:53Z</time>
      </trkpt>
      <trkpt lat="47.23205" lon="-1.60455">
        <ele>27</ele>
        <time>2013-08-07T19:06:57Z</time>
      </trkpt>
      <trkpt lat="47.23198" lon="-1.60465">
        <ele>27.6</ele>
        <time>2013-08-07T19:07:01Z</time>
      </trkpt>
      <trkpt lat="47.23192" lon="-1.60475">
        <ele>28.5</ele>
        <time>2013-08-07T19:07:05Z</time>
      </trkpt>
      <trkpt lat="47.23185" lon="-1.60487">
        <ele>29.6</ele>
        <time>2013-08-07T19:07:10Z</time>
      </trkpt>
      <trkpt lat="47.23177" lon="-1.60495">
        <ele>30.3</ele>
        <time>2013-08-07T19:07:14Z</time>
      </trkpt>
      <trkpt lat="47.2317" lon="-1.60504">
        <ele>30.9</ele>
        <time>2013-08-07T19:07:18Z</time>
      </trkpt>
      <trkpt lat="47.23163" lon="-1.60513">
        <ele>31.6</ele>
        <time>2013-08-07T19:07:22Z</time>
      </trkpt>
      <trkpt lat="47.23156" lon="-1.60525">
        <ele>32.2</ele>
        <time>2013-08-07T19:07:27Z</time>
      </trkpt>
      <trkpt lat="47.23147" lon="-1.60532">
        <ele>32.8</ele>
        <time>2013-08-07T19:07:31Z</time>
      </trkpt>
      <trkpt lat="47.23137" lon="-1.60536">
        <ele>33.2</ele>
        <time>2013-08-07T19:07:35Z</time>
      </trkpt>
      <trkpt lat="47.23128" lon="-1.60528">
        <ele>33.3</ele>
        <time>2013-08-07T19:07:40Z</time>
      </trkpt>
      <trkpt lat="47.23121" lon="-1.60519">
        <ele>33.4</ele>
        <time>2013-08-07T19:07:44Z</time>
      </trkpt>
      <trkpt lat="47.23114" lon="-1.60508">
        <ele>33.2</ele>
        <time>2013-08-07T19:07:49Z</time>
      </trkpt>
      <trkpt lat="47.23107" lon="-1.60495">
        <ele>33.1</ele>
        <time>2013-08-07T19:07:53Z</time>
      </trkpt>
      <trkpt lat="47.23099" lon="-1.60483">
        <ele>33.1</ele>
        <time>2013-08-07T19:07:57Z</time>
      </trkpt>
      <trkpt lat="47.2309" lon="-1.60475">
        <ele>33</ele>
        <time>2013-08-07T19:08:01Z</time>
      </trkpt>
      <trkpt lat="47.23083" lon="-1.60486">
        <ele>32.9</ele>
        <time>2013-08-07T19:08:06Z</time>
      </trkpt>
      <trkpt lat="47.23088" lon="-1.60502">
        <ele>33.3</ele>
        <time>2013-08-07T19:08:10Z</time>
      </trkpt>
      <trkpt lat="47.23086" lon="-1.60516">
        <ele>33.5</ele>
        <time>2013-08-07T19:08:13Z</time>
      </trkpt>
      <trkpt lat="47.23082" lon="-1.60529">
        <ele>33.7</ele>
        <time>2013-08-07T19:08:16Z</time>
      </trkpt>
      <trkpt lat="47.23077" lon="-1.60542">
        <ele>33.9</ele>
        <time>2013-08-07T19:08:21Z</time>
      </trkpt>
      <trkpt lat="47.23069" lon="-1.60536">
        <ele>35.1</ele>
        <time>2013-08-07T19:09:15Z</time>
      </trkpt>
      <trkpt lat="47.23062" lon="-1.60526">
        <ele>36.1</ele>
        <time>2013-08-07T19:09:26Z</time>
      </trkpt>
      <trkpt lat="47.23053" lon="-1.60531">
        <ele>36.1</ele>
        <time>2013-08-07T19:09:32Z</time>
      </trkpt>
      <trkpt lat="47.23046" lon="-1.60541">
        <ele>36.2</ele>
        <time>2013-08-07T19:09:37Z</time>
      </trkpt>
      <trkpt lat="47.23036" lon="-1.60548">
        <ele>36</ele>
        <time>2013-08-07T19:09:42Z</time>
      </trkpt>
      <trkpt lat="47.23026" lon="-1.60553">
        <ele>35.9</ele>
        <time>2013-08-07T19:09:46Z</time>
      </trkpt>
      <trkpt lat="47.23018" lon="-1.60561">
        <ele>35</ele>
        <time>2013-08-07T19:09:50Z</time>
      </trkpt>
      <trkpt lat="47.23011" lon="-1.6057">
        <ele>34.2</ele>
        <time>2013-08-07T19:09:54Z</time>
      </trkpt>
      <trkpt lat="47.23003" lon="-1.60581">
        <ele>33.5</ele>
        <time>2013-08-07T19:09:58Z</time>
      </trkpt>
      <trkpt lat="47.23004" lon="-1.60595">
        <ele>33.4</ele>
        <time>2013-08-07T19:10:02Z</time>
      </trkpt>
      <trkpt lat="47.23008" lon="-1.60609">
        <ele>33.3</ele>
        <time>2013-08-07T19:10:07Z</time>
      </trkpt>
      <trkpt lat="47.23012" lon="-1.60622">
        <ele>33.5</ele>
        <time>2013-08-07T19:10:12Z</time>
      </trkpt>
      <trkpt lat="47.23019" lon="-1.60636">
        <ele>34.1</ele>
        <time>2013-08-07T19:10:16Z</time>
      </trkpt>
      <trkpt lat="47.23023" lon="-1.60651">
        <ele>34.6</ele>
        <time>2013-08-07T19:10:19Z</time>
      </trkpt>
      <trkpt lat="47.23028" lon="-1.60663">
        <ele>35.1</ele>
        <time>2013-08-07T19:10:22Z</time>
      </trkpt>
      <trkpt lat="47.23034" lon="-1.60677">
        <ele>35.5</ele>
        <time>2013-08-07T19:10:25Z</time>
      </trkpt>
      <trkpt lat="47.23038" lon="-1.60689">
        <ele>35.9</ele>
        <time>2013-08-07T19:10:28Z</time>
      </trkpt>
      <trkpt lat="47.23042" lon="-1.60702">
        <ele>36.7</ele>
        <time>2013-08-07T19:10:34Z</time>
      </trkpt>
      <trkpt lat="47.23049" lon="-1.60714">
        <ele>37.4</ele>
        <time>2013-08-07T19:10:40Z</time>
      </trkpt>
      <trkpt lat="47.23053" lon="-1.60726">
        <ele>37.8</ele>
        <time>2013-08-07T19:10:44Z</time>
      </trkpt>
      <trkpt lat="47.23059" lon="-1.60738">
        <ele>38.2</ele>
        <time>2013-08-07T19:10:49Z</time>
      </trkpt>
      <trkpt lat="47.23065" lon="-1.60748">
        <ele>38.5</ele>
        <time>2013-08-07T19:10:53Z</time>
      </trkpt>
      <trkpt lat="47.23074" lon="-1.60744">
        <ele>39</ele>
        <time>2013-08-07T19:10:58Z</time>
      </trkpt>
      <trkpt lat="47.23078" lon="-1.60729">
        <ele>39</ele>
        <time>2013-08-07T19:11:03Z</time>
      </trkpt>
      <trkpt lat="47.23074" lon="-1.60715">
        <ele>38.8</ele>
        <time>2013-08-07T19:11:07Z</time>
      </trkpt>
      <trkpt lat="47.23072" lon="-1.607">
        <ele>38.6</ele>
        <time>2013-08-07T19:11:12Z</time>
      </trkpt>
      <trkpt lat="47.23071" lon="-1.60683">
        <ele>38.6</ele>
        <time>2013-08-07T19:11:17Z</time>
      </trkpt>
      <trkpt lat="47.23075" lon="-1.60669">
        <ele>38.6</ele>
        <time>2013-08-07T19:11:22Z</time>
      </trkpt>
      <trkpt lat="47.23071" lon="-1.60657">
        <ele>38.6</ele>
        <time>2013-08-07T19:11:30Z</time>
      </trkpt>
      <trkpt lat="47.23073" lon="-1.6067">
        <ele>40.2</ele>
        <time>2013-08-07T19:12:25Z</time>
      </trkpt>
      <trkpt lat="47.23073" lon="-1.60657">
        <ele>38.1</ele>
        <time>2013-08-07T19:14:00Z</time>
      </trkpt>
      <trkpt lat="47.23075" lon="-1.60642">
        <ele>36.9</ele>
        <time>2013-08-07T19:14:07Z</time>
      </trkpt>
      <trkpt lat="47.23073" lon="-1.60644">
        <ele>34.1</ele>
        <time>2013-08-07T19:15:34Z</time>
      </trkpt>
      <trkpt lat="47.23073" lon="-1.60644">
        <ele>34.1</ele>
        <time>2013-08-07T19:15:34Z</time>
      </trkpt>
    </trkseg>
  </trk>
</gpx>